[[{"header":{"parameterUnit":"m.s-1","parameterCategory":1,"la1":31.0,"la2":29.5877,"lo1":-88.7671,"lo2":-86.6584,"dx":0.0162,"dy":0.0185,"nx":115,"ny":88,"refTime":"2022-11-04T06:00:00:Z","depth":0,"parameterNumber":2,"parameterNumberName":"U-component_of_WINDS"},"data":[0.0,0.0,0.0,0.0,0.0,0.0,0.0,0.0,0.0,0.0,0.0,0.0,0.0,0.0,0.0,0.0,0.0,0.0,0.0,0.0,0.0,0.0,0.0,0.0,0.0,0.0,0.0,0.0,0.0,0.0,0.0,0.0,0.0,0.0,0.0,0.0,0.0,0.0,0.0,0.0,0.0,0.0,0.0,0.0,0.0,0.0,0.0,0.0,0.0,0.0,0.0,0.0,0.0,0.0,0.0,0.0,0.0,0.0,0.0,0.0,0.0,0.0,0.0,0.0,0.0,0.0,0.0,0.0,0.0,0.0,0.0,0.0,0.0,0.0,0.0,0.0,0.0,0.0,0.0,0.0,0.0,0.0,0.0,0.0,0.0,0.0,0.0,0.0,0.0,0.0,0.0,0.0,0.0,0.0,0.0,0.0,0.0,0.0,0.0,0.0,0.0,0.0,0.0,0.0,0.0,0.0,0.0,0.0,0.0,0.0,0.0,0.0,0.0,0.0,0.0,0.0,0.0,0.0,0.0,0.0,0.0,0.0,0.0,0.0,0.0,0.0,0.0,0.0,0.0,0.0,0.0,0.0,0.0,0.0,0.0,0.0,0.0,0.0,0.0,0.0,0.0,0.0,0.0,0.0,0.0,0.0,0.0,0.0,0.0,0.0,0.0,0.0,0.0,0.0,0.0,0.0,0.0,0.0,0.0,0.0,0.0,0.0,0.0,0.0,0.0,0.0,0.0,0.0,0.0,0.0,0.0,0.0,0.0,0.0,0.0,0.0,0.0,0.0,0.0,0.0,0.0,0.0,0.0,0.0,0.0,0.0,0.0,0.0,0.0,0.0,0.0,0.0,0.0,0.0,0.0,0.0,0.0,0.0,0.0,0.0,0.0,0.0,0.0,0.0,0.0,0.0,0.0,0.0,0.0,0.0,0.0,0.0,0.0,0.0,0.0,0.0,0.0,0.0,0.0,0.0,0.0,0.0,0.0,0.0,0.0,0.0,0.0,0.0,0.0,0.0,0.0,0.0,0.0,0.0,0.0,0.0,0.0,0.0,0.0,0.0,0.0,0.0,0.0,0.0,0.0,0.0,0.0,0.0,0.0,0.0,0.0,0.0,0.0,0.0,0.0,0.0,0.0,0.0,0.0,0.0,0.0,0.0,0.0,0.0,0.0,0.0,0.0,0.0,0.0,0.0,0.0,0.0,0.0,0.0,0.0,0.0,0.0,0.0,0.0,0.0,0.0,0.0,0.0,0.0,0.0,0.0,0.0,0.0,0.0,0.0,0.0,0.0,0.0,0.0,0.0,0.0,0.0,0.0,0.0,0.0,0.0,0.0,0.0,0.0,0.0,0.0,0.0,0.0,0.0,0.0,0.0,0.0,0.0,0.0,0.0,0.0,0.0,0.0,0.0,0.0,0.0,0.0,0.0,0.0,0.0,0.0,0.0,0.0,0.0,0.0,0.0,0.0,0.0,0.0,0.0,0.0,0.0,0.0,0.0,0.0,0.0,0.0,0.0,0.0,0.0,0.0,0.0,0.0,0.0,0.0,0.0,0.0,0.0,0.0,0.0,0.0,0.0,0.0,0.0,0.0,0.0,0.0,0.0,0.0,0.0,0.0,0.0,0.0,0.0,0.0,0.0,0.0,0.0,0.0,0.0,0.0,0.0,0.0,0.0,0.0,0.0,0.0,0.0,0.0,0.0,0.0,0.0,0.0,0.0,0.0,0.0,0.0,0.0,0.0,0.0,0.0,0.0,0.0,0.0,0.0,0.0,0.0,0.0,0.0,0.0,0.0,0.0,0.0,0.0,0.0,0.0,0.0,0.0,0.0,0.0,0.0,0.0,0.0,0.0,0.0,0.0,0.0,0.0,0.0,0.0,0.0,0.0,0.0,0.0,0.0,0.0,0.0,0.0,0.0,0.0,0.0,0.0,0.0,0.0,0.0,0.0,0.0,0.0,0.0,0.0,0.0,0.0,0.0,0.0,0.0,0.0,0.0,0.0,0.0,0.0,0.0,0.0,0.0,0.0,0.0,0.0,0.0,0.0,0.0,0.0,0.0,0.0,0.0,0.0,0.0,0.0,0.0,0.0,0.0,0.0,0.0,0.0,0.0,0.0,0.0,0.0,0.0,0.0,0.0,0.0,0.0,0.0,0.0,0.0,0.0,0.0,0.0,0.0,0.0,0.0,0.0,0.0,0.0,0.0,0.0,0.0,0.0,0.0,0.0,0.0,0.0,0.0,0.0,0.0,0.0,0.0,0.0,0.0,0.0,0.0,0.0,0.0,0.0,0.0,0.0,0.0,0.0,0.0,0.0,0.0,0.0,0.0,0.0,0.0,0.0,0.0,0.0,0.0,0.0,0.0,0.0,0.0,0.0,0.0,0.0,0.0,0.0,0.0,0.0,0.0,0.0,0.0,0.0,0.0,0.0,0.0,0.0,0.0,0.0,0.0,0.0,0.0,0.0,0.0,0.0,0.0,0.0,0.0,0.0,0.0,0.0,0.0,0.0,0.0,0.0,0.0,0.0,0.0,0.0,0.0,0.0,0.0,0.0,0.0,0.0,0.0,0.0,0.0,0.0,0.0,0.0,0.0,0.0,0.0,0.0,0.0,0.0,0.0,0.0,0.0,0.0,0.0,0.0,0.0,0.0,0.0,0.0,0.0,0.0,0.0,0.0,0.0,0.0,0.0,0.0,0.0,0.0,0.0,0.0,0.0,0.0,0.0,0.0,0.0,0.0,0.0,0.0,0.0,0.0,0.0,0.0,0.0,0.0,0.0,0.0,0.0,0.0,0.0,0.0,0.0,0.0,0.0,0.0,0.0,0.0,0.0,0.0,0.0,0.0,0.0,0.0,0.0,0.0,0.0,0.0,0.0,0.0,0.0,0.0,0.0,0.0,0.0,0.0,0.0,0.0,0.0,0.0,0.0,0.0,0.0,0.0,0.0,0.0,0.0,0.0,0.0,0.0,0.0,0.0,0.0,0.0,0.0,0.0,0.0,0.0,0.0,0.0,0.0,0.0,0.0,0.0,0.0,0.0,0.0,0.0,0.0,0.0,0.0,0.0,0.0,0.0,0.0,0.0,0.0,0.0,0.0,0.0,0.0,0.0,0.0,0.0,0.0,0.0,0.0,0.0,0.0,0.0,0.0,0.0,0.0,0.0,0.0,0.0,0.0,0.0,0.0,0.0,0.0,0.0,0.0,0.0,0.0,0.0,0.0,0.0,0.0,0.0,0.0,0.0,0.0,0.0,0.0,0.0,0.0,0.0,0.0,0.0,0.0,0.0,0.0,0.0,0.0,0.0,0.0,0.0,0.0,0.0,0.0,0.0,0.0,0.0,0.0,0.0,0.0,0.0,0.0,0.0,0.0,0.0,0.0,0.0,0.0,0.0,0.0,0.0,0.0,0.0,0.0,0.0,0.0,0.0,0.0,0.0,0.0,0.0,0.0,0.0,0.0,0.0,0.0,0.0,0.0,0.0,0.0,0.0,0.0,0.0,0.0,0.0,0.0,0.0,0.0,0.0,0.0,0.0,0.0,0.0,0.0,0.0,0.0,0.0,0.0,0.0,0.0,0.0,0.0,0.0,0.0,0.0,0.0,0.0,0.0,0.0,0.0,0.0,0.0,0.0,0.0,0.0,0.0,0.0,0.0,0.0,0.0,0.0,0.0,0.0,0.0,0.0,0.0,0.0,0.0,0.0,0.0,0.0,0.0,0.0,0.0,0.0,0.0,0.0,0.0,0.0,0.0,0.0,0.0,0.0,0.0,0.0,0.0,0.0,0.0,0.0,0.0,0.0,0.0,0.0,0.0,0.0,0.0,0.0,0.0,0.0,0.0,0.0,0.0,0.0,0.0,0.0,0.0,0.0,0.0,0.0,0.0,0.0,0.0,0.0,0.0,0.0,0.0,0.0,0.0,0.0,0.0,0.0,0.0,0.0,0.0,0.0,0.0,0.0,0.0,0.0,0.0,0.0,0.0,0.0,0.0,0.0,0.0,0.0,0.0,0.0,0.0,0.0,0.0,0.0,0.0,0.0,0.0,0.0,0.0,0.0,0.0,0.0,0.0,0.0,0.0,0.0,0.0,0.0,0.0,0.0,0.0,0.0,0.0,0.0,0.0,0.0,0.0,0.0,0.0,0.0,0.0,0.0,0.0,0.0,0.0,0.0,0.0,0.0,0.0,0.0,0.0,0.0,0.0,0.0,0.0,0.0,0.0,0.0,0.0,0.0,0.0,0.0,0.0,0.0,-2.129,0.0,0.0,0.0,-1.9339,0.0,0.0,0.0,0.0,0.0,0.0,0.0,0.0,0.0,0.0,0.0,0.0,0.0,0.0,0.0,0.0,0.0,0.0,0.0,0.0,0.0,0.0,0.0,0.0,0.0,0.0,0.0,0.0,0.0,0.0,0.0,0.0,0.0,0.0,0.0,0.0,0.0,0.0,0.0,0.0,0.0,0.0,0.0,0.0,0.0,0.0,0.0,0.0,0.0,0.0,0.0,0.0,0.0,0.0,0.0,0.0,0.0,0.0,0.0,0.0,0.0,0.0,0.0,0.0,0.0,0.0,0.0,0.0,0.0,0.0,0.0,0.0,0.0,0.0,0.0,0.0,0.0,0.0,0.0,0.0,0.0,0.0,0.0,0.0,0.0,0.0,0.0,0.0,0.0,0.0,0.0,0.0,0.0,0.0,0.0,0.0,0.0,0.0,0.0,0.0,0.0,0.0,0.0,0.0,0.0,0.0,0.0,0.0,0.0,0.0,-2.2335,-2.2002,-2.1735,-2.1158,-2.0281,0.0,0.0,0.0,0.0,0.0,0.0,0.0,0.0,0.0,0.0,0.0,0.0,0.0,0.0,0.0,0.0,0.0,0.0,0.0,0.0,0.0,0.0,0.0,0.0,0.0,0.0,0.0,0.0,0.0,0.0,0.0,0.0,0.0,0.0,0.0,0.0,0.0,0.0,0.0,0.0,0.0,0.0,0.0,0.0,0.0,0.0,0.0,0.0,0.0,0.0,0.0,0.0,0.0,0.0,0.0,0.0,0.0,0.0,0.0,0.0,0.0,0.0,0.0,0.0,0.0,0.0,0.0,0.0,0.0,0.0,0.0,0.0,0.0,0.0,0.0,0.0,0.0,0.0,0.0,0.0,0.0,0.0,0.0,0.0,0.0,0.0,0.0,0.0,0.0,0.0,0.0,0.0,0.0,0.0,0.0,0.0,0.0,0.0,0.0,0.0,0.0,0.0,0.0,0.0,0.0,0.0,0.0,0.0,0.0,0.0,0.0,0.0,-2.2697,-2.2061,-2.1057,0.0,0.0,0.0,0.0,0.0,0.0,0.0,0.0,0.0,0.0,0.0,0.0,0.0,0.0,0.0,0.0,0.0,0.0,0.0,0.0,0.0,0.0,0.0,0.0,0.0,0.0,0.0,0.0,0.0,0.0,0.0,0.0,0.0,0.0,0.0,0.0,0.0,0.0,0.0,0.0,0.0,0.0,0.0,0.0,0.0,0.0,0.0,0.0,0.0,0.0,0.0,0.0,0.0,0.0,0.0,0.0,0.0,0.0,0.0,0.0,0.0,0.0,0.0,0.0,0.0,0.0,0.0,0.0,0.0,0.0,0.0,0.0,0.0,0.0,0.0,0.0,0.0,0.0,0.0,0.0,0.0,0.0,0.0,0.0,0.0,0.0,0.0,0.0,0.0,0.0,0.0,0.0,0.0,0.0,0.0,0.0,0.0,0.0,0.0,0.0,0.0,0.0,0.0,0.0,0.0,0.0,0.0,0.0,0.0,0.0,-2.4815,-2.4745,-2.3565,0.0,-2.1204,0.0,0.0,0.0,0.0,0.0,0.0,0.0,0.0,0.0,0.0,0.0,0.0,0.0,0.0,0.0,0.0,0.0,0.0,0.0,0.0,0.0,0.0,0.0,0.0,0.0,0.0,0.0,0.0,0.0,0.0,0.0,0.0,0.0,0.0,0.0,0.0,0.0,0.0,0.0,0.0,0.0,0.0,0.0,0.0,0.0,0.0,0.0,0.0,0.0,0.0,0.0,0.0,0.0,0.0,0.0,0.0,0.0,0.0,0.0,0.0,0.0,0.0,0.0,0.0,0.0,0.0,0.0,0.0,0.0,0.0,0.0,0.0,0.0,0.0,0.0,0.0,0.0,0.0,0.0,0.0,0.0,0.0,0.0,0.0,0.0,0.0,0.0,0.0,0.0,0.0,0.0,0.0,0.0,0.0,0.0,0.0,0.0,0.0,0.0,0.0,0.0,0.0,0.0,0.0,0.0,0.0,0.0,0.0,0.0,0.0,-2.5807,-2.5357,-2.3932,-2.2696,0.0,0.0,0.0,0.0,0.0,0.0,0.0,0.0,0.0,0.0,0.0,0.0,0.0,0.0,0.0,0.0,0.0,0.0,0.0,0.0,0.0,0.0,0.0,0.0,0.0,0.0,0.0,0.0,0.0,0.0,0.0,0.0,0.0,0.0,0.0,0.0,0.0,0.0,0.0,0.0,0.0,0.0,0.0,0.0,0.0,0.0,0.0,0.0,0.0,0.0,0.0,0.0,0.0,0.0,0.0,0.0,0.0,0.0,0.0,0.0,0.0,0.0,0.0,0.0,0.0,0.0,0.0,0.0,0.0,0.0,0.0,0.0,0.0,0.0,0.0,0.0,0.0,0.0,0.0,0.0,0.0,0.0,0.0,0.0,0.0,0.0,0.0,0.0,0.0,0.0,0.0,0.0,0.0,0.0,0.0,0.0,0.0,0.0,0.0,0.0,0.0,0.0,0.0,0.0,0.0,0.0,0.0,0.0,0.0,0.0,-2.6788,-2.6396,-2.5441,-2.431,-2.325,-2.2212,0.0,0.0,0.0,0.0,0.0,0.0,0.0,0.0,0.0,0.0,0.0,0.0,0.0,0.0,0.0,0.0,0.0,0.0,0.0,0.0,0.0,0.0,0.0,0.0,0.0,0.0,0.0,0.0,0.0,0.0,0.0,0.0,0.0,0.0,0.0,0.0,0.0,0.0,0.0,0.0,0.0,0.0,0.0,0.0,0.0,0.0,0.0,0.0,0.0,0.0,0.0,0.0,0.0,0.0,0.0,0.0,0.0,0.0,0.0,0.0,0.0,0.0,0.0,0.0,0.0,0.0,0.0,0.0,0.0,0.0,0.0,0.0,0.0,0.0,0.0,0.0,0.0,0.0,0.0,0.0,0.0,0.0,0.0,0.0,0.0,0.0,0.0,0.0,0.0,0.0,0.0,0.0,0.0,0.0,0.0,0.0,0.0,0.0,0.0,0.0,0.0,0.0,0.0,0.0,0.0,0.0,0.0,0.0,-2.7167,-2.7167,-2.6512,-2.5116,-2.4917,-2.4115,0.0,0.0,0.0,0.0,0.0,0.0,0.0,0.0,0.0,0.0,0.0,0.0,0.0,0.0,0.0,0.0,0.0,0.0,0.0,0.0,0.0,0.0,0.0,0.0,0.0,0.0,0.0,0.0,0.0,0.0,0.0,0.0,0.0,0.0,0.0,0.0,0.0,0.0,0.0,0.0,0.0,0.0,0.0,0.0,0.0,0.0,0.0,0.0,0.0,0.0,0.0,0.0,0.0,0.0,0.0,0.0,0.0,0.0,0.0,0.0,0.0,0.0,0.0,0.0,0.0,0.0,0.0,0.0,0.0,0.0,0.0,0.0,0.0,0.0,0.0,0.0,0.0,0.0,0.0,0.0,0.0,0.0,0.0,0.0,0.0,0.0,0.0,0.0,0.0,0.0,0.0,0.0,0.0,0.0,0.0,0.0,0.0,0.0,0.0,0.0,0.0,0.0,0.0,0.0,0.0,0.0,0.0,0.0,0.0,-2.731,-2.735,-2.688,-2.5928,-2.5379,-2.4595,0.0,0.0,0.0,0.0,0.0,0.0,0.0,0.0,0.0,0.0,0.0,0.0,0.0,0.0,0.0,0.0,0.0,0.0,0.0,0.0,0.0,0.0,0.0,0.0,0.0,0.0,0.0,0.0,0.0,0.0,0.0,0.0,0.0,0.0,0.0,0.0,0.0,0.0,0.0,0.0,0.0,0.0,0.0,0.0,0.0,0.0,0.0,0.0,0.0,0.0,0.0,0.0,0.0,0.0,0.0,0.0,0.0,0.0,0.0,0.0,0.0,0.0,0.0,0.0,0.0,0.0,0.0,0.0,0.0,0.0,0.0,0.0,0.0,0.0,0.0,0.0,0.0,0.0,0.0,0.0,0.0,0.0,0.0,0.0,0.0,0.0,0.0,0.0,0.0,0.0,0.0,0.0,0.0,0.0,0.0,0.0,0.0,0.0,0.0,0.0,0.0,0.0,0.0,0.0,0.0,0.0,0.0,0.0,0.0,-2.7463,-2.7463,-2.715,-2.6465,-2.5666,-2.4888,0.0,0.0,0.0,0.0,0.0,0.0,0.0,0.0,0.0,0.0,0.0,0.0,0.0,0.0,0.0,0.0,0.0,0.0,0.0,0.0,0.0,0.0,0.0,0.0,0.0,0.0,0.0,0.0,0.0,0.0,0.0,0.0,0.0,0.0,0.0,0.0,0.0,0.0,0.0,0.0,0.0,0.0,0.0,0.0,0.0,0.0,0.0,0.0,0.0,0.0,0.0,0.0,0.0,0.0,0.0,0.0,0.0,0.0,0.0,0.0,0.0,0.0,0.0,0.0,0.0,0.0,0.0,0.0,0.0,0.0,0.0,0.0,0.0,0.0,0.0,0.0,0.0,0.0,0.0,0.0,0.0,0.0,0.0,0.0,0.0,0.0,0.0,0.0,0.0,0.0,0.0,0.0,0.0,0.0,0.0,0.0,0.0,0.0,0.0,0.0,0.0,0.0,0.0,0.0,0.0,0.0,0.0,0.0,-2.7575,-2.76,-2.7575,-2.7275,-2.6617,-2.583,-2.5073,0.0,0.0,0.0,0.0,0.0,0.0,0.0,0.0,0.0,0.0,0.0,0.0,0.0,0.0,0.0,0.0,0.0,0.0,0.0,0.0,0.0,0.0,0.0,0.0,0.0,0.0,0.0,0.0,0.0,0.0,0.0,0.0,0.0,0.0,0.0,0.0,0.0,0.0,0.0,0.0,0.0,0.0,0.0,0.0,0.0,0.0,0.0,0.0,0.0,0.0,0.0,0.0,0.0,0.0,0.0,0.0,0.0,0.0,0.0,0.0,0.0,0.0,0.0,0.0,0.0,0.0,0.0,0.0,0.0,0.0,0.0,0.0,0.0,0.0,0.0,0.0,0.0,0.0,0.0,0.0,0.0,0.0,0.0,0.0,0.0,0.0,0.0,0.0,0.0,0.0,0.0,0.0,0.0,0.0,0.0,0.0,0.0,0.0,0.0,0.0,0.0,0.0,0.0,0.0,0.0,0.0,0.0,0.0,0.0,-2.7335,-2.7321,-2.7246,-2.7024,-2.6312,-2.5604,0.0,0.0,0.0,0.0,0.0,0.0,0.0,0.0,0.0,0.0,0.0,0.0,0.0,0.0,0.0,0.0,0.0,0.0,0.0,0.0,0.0,0.0,0.0,0.0,0.0,0.0,0.0,0.0,0.0,0.0,0.0,0.0,0.0,0.0,0.0,0.0,0.0,0.0,0.0,0.0,0.0,0.0,0.0,0.0,0.0,0.0,0.0,0.0,0.0,0.0,0.0,0.0,0.0,0.0,0.0,0.0,0.0,0.0,0.0,0.0,0.0,0.0,0.0,0.0,0.0,0.0,0.0,0.0,0.0,0.0,0.0,0.0,0.0,0.0,0.0,0.0,0.0,0.0,0.0,0.0,0.0,0.0,0.0,0.0,0.0,0.0,0.0,0.0,0.0,0.0,0.0,0.0,0.0,0.0,0.0,0.0,0.0,0.0,0.0,0.0,0.0,0.0,0.0,0.0,0.0,0.0,0.0,0.0,0.0,-2.6645,-2.6881,-2.7011,-2.6997,-2.6396,-2.5858,-2.5384,0.0,0.0,0.0,0.0,0.0,0.0,0.0,0.0,0.0,0.0,0.0,0.0,0.0,0.0,0.0,0.0,0.0,0.0,0.0,0.0,0.0,0.0,0.0,0.0,0.0,0.0,0.0,0.0,0.0,0.0,0.0,0.0,0.0,0.0,0.0,0.0,0.0,0.0,0.0,0.0,0.0,0.0,0.0,0.0,0.0,0.0,0.0,0.0,0.0,0.0,0.0,0.0,0.0,0.0,0.0,0.0,0.0,0.0,0.0,0.0,0.0,0.0,0.0,0.0,0.0,0.0,0.0,0.0,0.0,0.0,0.0,0.0,0.0,0.0,0.0,0.0,0.0,0.0,0.0,0.0,0.0,0.0,0.0,0.0,0.0,0.0,0.0,0.0,0.0,0.0,0.0,0.0,0.0,0.0,0.0,0.0,0.0,0.0,0.0,0.0,0.0,0.0,0.0,0.0,0.0,0.0,0.0,0.0,-2.5688,-2.6343,-2.665,-2.6642,-2.6081,-2.5774,0.0,0.0,0.0,0.0,0.0,0.0,0.0,0.0,0.0,0.0,0.0,0.0,0.0,0.0,0.0,0.0,0.0,0.0,0.0,0.0,0.0,0.0,0.0,0.0,0.0,0.0,0.0,0.0,0.0,0.0,0.0,0.0,0.0,0.0,0.0,0.0,0.0,0.0,0.0,0.0,0.0,0.0,0.0,0.0,0.0,0.0,0.0,0.0,0.0,0.0,0.0,0.0,0.0,0.0,0.0,0.0,0.0,0.0,0.0,0.0,0.0,0.0,0.0,0.0,0.0,0.0,0.0,0.0,0.0,0.0,0.0,0.0,0.0,0.0,0.0,0.0,0.0,0.0,0.0,0.0,0.0,0.0,0.0,0.0,0.0,0.0,0.0,0.0,0.0,0.0,0.0,0.0,0.0,0.0,0.0,0.0,0.0,0.0,0.0,0.0,0.0,0.0,0.0,0.0,0.0,0.0,0.0,0.0,0.0,-2.5641,-2.6077,-2.6235,-2.5976,-2.5806,-2.5604,0.0,0.0,0.0,0.0,0.0,0.0,0.0,0.0,0.0,0.0,0.0,0.0,0.0,0.0,0.0,0.0,0.0,0.0,0.0,0.0,0.0,0.0,0.0,0.0,0.0,0.0,0.0,0.0,0.0,0.0,0.0,0.0,0.0,0.0,0.0,0.0,0.0,0.0,0.0,0.0,0.0,0.0,0.0,0.0,0.0,0.0,0.0,0.0,0.0,0.0,0.0,0.0,0.0,0.0,0.0,0.0,0.0,0.0,0.0,0.0,0.0,0.0,0.0,0.0,0.0,0.0,0.0,0.0,0.0,0.0,0.0,0.0,0.0,0.0,0.0,0.0,0.0,0.0,0.0,0.0,0.0,0.0,0.0,0.0,0.0,0.0,0.0,0.0,0.0,0.0,0.0,0.0,0.0,0.0,0.0,0.0,0.0,0.0,0.0,0.0,0.0,0.0,0.0,0.0,0.0,0.0,0.0,0.0,-2.5462,-2.5454,-2.5597,-2.5638,-2.5502,-2.5622,-2.5536,0.0,0.0,0.0,0.0,0.0,0.0,0.0,0.0,0.0,0.0,0.0,0.0,0.0,0.0,0.0,0.0,0.0,0.0,0.0,0.0,0.0,0.0,0.0,0.0,0.0,0.0,0.0,0.0,0.0,0.0,0.0,0.0,0.0,0.0,0.0,0.0,0.0,0.0,0.0,0.0,0.0,0.0,0.0,0.0,0.0,0.0,0.0,0.0,0.0,0.0,0.0,0.0,0.0,0.0,0.0,0.0,0.0,0.0,0.0,0.0,0.0,0.0,0.0,0.0,0.0,0.0,0.0,0.0,0.0,0.0,0.0,0.0,0.0,0.0,0.0,0.0,0.0,0.0,0.0,0.0,0.0,0.0,0.0,0.0,0.0,0.0,0.0,0.0,0.0,0.0,0.0,0.0,0.0,0.0,0.0,0.0,0.0,0.0,0.0,0.0,0.0,0.0,0.0,0.0,0.0,0.0,0.0,0.0,-2.5135,-2.5224,-2.514,-2.5152,-2.5224,-2.5398,-2.5484,0.0,0.0,0.0,0.0,0.0,0.0,0.0,0.0,0.0,0.0,0.0,0.0,0.0,0.0,0.0,0.0,0.0,0.0,0.0,0.0,0.0,0.0,0.0,0.0,0.0,0.0,0.0,0.0,0.0,0.0,0.0,0.0,0.0,0.0,0.0,0.0,0.0,0.0,0.0,0.0,0.0,0.0,0.0,0.0,0.0,0.0,0.0,0.0,0.0,0.0,0.0,0.0,0.0,0.0,0.0,0.0,0.0,0.0,0.0,0.0,0.0,0.0,0.0,0.0,0.0,0.0,0.0,0.0,0.0,0.0,0.0,0.0,0.0,0.0,0.0,0.0,0.0,0.0,0.0,0.0,0.0,0.0,0.0,0.0,0.0,0.0,0.0,0.0,0.0,0.0,0.0,0.0,0.0,0.0,0.0,0.0,0.0,0.0,0.0,0.0,0.0,0.0,0.0,0.0,0.0,0.0,0.0,0.0,-2.5282,-2.5514,-2.5638,-2.5595,-2.5282,-2.4974,-2.5064,0.0,0.0,0.0,0.0,0.0,0.0,0.0,0.0,0.0,0.0,0.0,0.0,0.0,0.0,0.0,0.0,0.0,0.0,0.0,0.0,0.0,0.0,0.0,0.0,0.0,0.0,0.0,0.0,0.0,0.0,0.0,0.0,0.0,0.0,0.0,0.0,0.0,0.0,0.0,0.0,0.0,0.0,0.0,0.0,0.0,0.0,0.0,0.0,-2.8396,0.0,0.0,0.0,0.0,0.0,0.0,0.0,0.0,0.0,0.0,0.0,0.0,0.0,0.0,0.0,0.0,0.0,0.0,0.0,0.0,0.0,0.0,0.0,0.0,0.0,0.0,0.0,0.0,0.0,0.0,0.0,0.0,0.0,0.0,0.0,0.0,0.0,0.0,0.0,0.0,0.0,0.0,0.0,0.0,0.0,0.0,0.0,0.0,0.0,0.0,0.0,0.0,0.0,0.0,0.0,0.0,0.0,0.0,0.0,-2.556,-2.5592,-2.5599,-2.5507,-2.5306,-2.4863,-2.4785,0.0,0.0,0.0,0.0,0.0,0.0,0.0,0.0,0.0,0.0,0.0,0.0,0.0,0.0,0.0,0.0,0.0,0.0,0.0,0.0,0.0,0.0,0.0,0.0,0.0,0.0,0.0,0.0,0.0,0.0,0.0,0.0,0.0,0.0,0.0,0.0,0.0,0.0,0.0,0.0,0.0,0.0,0.0,0.0,0.0,0.0,0.0,0.0,0.0,0.0,0.0,0.0,0.0,0.0,0.0,0.0,0.0,0.0,0.0,0.0,0.0,0.0,0.0,0.0,0.0,0.0,0.0,0.0,0.0,0.0,0.0,0.0,0.0,0.0,0.0,0.0,0.0,0.0,0.0,0.0,0.0,0.0,0.0,0.0,0.0,0.0,0.0,0.0,0.0,0.0,0.0,0.0,0.0,0.0,0.0,0.0,0.0,0.0,0.0,0.0,0.0,0.0,0.0,0.0,0.0,0.0,0.0,-2.5728,-2.5706,-2.5546,-2.5312,-2.5206,-2.5206,-2.4852,-2.4616,-2.4553,0.0,0.0,0.0,0.0,0.0,0.0,0.0,0.0,0.0,0.0,0.0,0.0,0.0,0.0,0.0,0.0,0.0,0.0,0.0,0.0,0.0,0.0,0.0,0.0,0.0,0.0,0.0,0.0,0.0,0.0,0.0,0.0,0.0,0.0,0.0,0.0,0.0,0.0,-2.7955,-2.8201,0.0,0.0,0.0,0.0,0.0,0.0,0.0,0.0,-2.8411,0.0,0.0,0.0,0.0,0.0,0.0,0.0,0.0,0.0,0.0,0.0,0.0,0.0,0.0,0.0,0.0,0.0,0.0,0.0,0.0,0.0,0.0,0.0,0.0,0.0,0.0,0.0,0.0,0.0,0.0,0.0,0.0,0.0,0.0,0.0,0.0,0.0,0.0,0.0,0.0,0.0,0.0,0.0,0.0,0.0,0.0,0.0,0.0,0.0,0.0,0.0,0.0,0.0,0.0,0.0,0.0,-2.5294,-2.519,-2.523,-2.5323,-2.5052,-2.4885,-2.4873,-2.4633,-2.4466,-2.427,0.0,0.0,0.0,0.0,0.0,0.0,0.0,0.0,0.0,0.0,0.0,0.0,0.0,0.0,0.0,0.0,0.0,0.0,0.0,0.0,0.0,0.0,0.0,0.0,0.0,0.0,0.0,0.0,0.0,0.0,0.0,0.0,0.0,0.0,0.0,0.0,0.0,0.0,0.0,-2.8113,-2.8259,0.0,0.0,0.0,0.0,0.0,0.0,0.0,0.0,-2.8411,0.0,0.0,0.0,0.0,0.0,0.0,0.0,0.0,0.0,0.0,0.0,0.0,0.0,0.0,0.0,0.0,0.0,0.0,0.0,0.0,0.0,0.0,0.0,0.0,0.0,0.0,0.0,0.0,0.0,0.0,0.0,0.0,0.0,0.0,0.0,0.0,0.0,0.0,0.0,0.0,0.0,0.0,0.0,0.0,0.0,0.0,0.0,0.0,0.0,0.0,0.0,0.0,0.0,0.0,0.0,-2.5237,-2.5377,-2.5303,-2.5004,-2.4658,-2.4502,-2.449,-2.4413,-2.4222,0.0,0.0,0.0,0.0,0.0,0.0,0.0,0.0,0.0,0.0,0.0,0.0,0.0,0.0,0.0,0.0,0.0,0.0,0.0,0.0,0.0,0.0,0.0,0.0,0.0,0.0,0.0,0.0,0.0,0.0,0.0,0.0,0.0,0.0,0.0,0.0,0.0,0.0,0.0,0.0,-2.8113,-2.8235,-2.8372,0.0,0.0,0.0,0.0,0.0,0.0,-2.8411,-2.8411,0.0,0.0,0.0,0.0,0.0,0.0,0.0,0.0,0.0,0.0,0.0,0.0,0.0,0.0,0.0,0.0,0.0,0.0,0.0,0.0,0.0,0.0,0.0,0.0,0.0,0.0,0.0,0.0,0.0,0.0,0.0,0.0,0.0,0.0,0.0,0.0,0.0,0.0,0.0,0.0,0.0,0.0,0.0,0.0,0.0,0.0,0.0,0.0,0.0,0.0,0.0,0.0,0.0,0.0,0.0,-2.5045,-2.5469,-2.5347,-2.4612,-2.4286,-2.4116,-2.408,-2.4164,-2.4037,0.0,0.0,0.0,0.0,0.0,0.0,0.0,0.0,0.0,0.0,0.0,0.0,0.0,0.0,0.0,0.0,0.0,0.0,0.0,0.0,0.0,0.0,0.0,0.0,0.0,0.0,0.0,0.0,0.0,0.0,0.0,0.0,0.0,0.0,0.0,0.0,0.0,0.0,0.0,0.0,0.0,-2.821,-2.8372,-2.8411,0.0,0.0,0.0,0.0,-2.8411,-2.8372,0.0,0.0,0.0,0.0,0.0,0.0,0.0,0.0,0.0,0.0,0.0,0.0,0.0,0.0,0.0,0.0,0.0,0.0,0.0,0.0,0.0,0.0,0.0,0.0,0.0,0.0,0.0,0.0,0.0,0.0,0.0,0.0,0.0,0.0,0.0,0.0,0.0,0.0,0.0,0.0,0.0,0.0,0.0,0.0,0.0,0.0,0.0,0.0,0.0,0.0,0.0,0.0,0.0,0.0,0.0,0.0,-2.4365,-2.4828,-2.4862,-2.4261,-2.4043,-2.3861,-2.3677,-2.4007,-2.4104,0.0,0.0,0.0,0.0,0.0,0.0,0.0,0.0,0.0,0.0,0.0,0.0,0.0,0.0,0.0,0.0,0.0,0.0,0.0,0.0,0.0,0.0,0.0,0.0,0.0,0.0,0.0,0.0,0.0,0.0,0.0,0.0,0.0,0.0,0.0,0.0,0.0,0.0,0.0,0.0,0.0,-2.8118,-2.8363,-2.8411,-2.8411,0.0,0.0,-2.8411,-2.8411,-2.8299,0.0,0.0,0.0,0.0,0.0,0.0,0.0,0.0,0.0,0.0,0.0,0.0,0.0,0.0,0.0,0.0,0.0,0.0,0.0,0.0,0.0,0.0,0.0,0.0,0.0,0.0,0.0,0.0,0.0,0.0,0.0,0.0,0.0,0.0,0.0,0.0,0.0,0.0,0.0,0.0,0.0,0.0,0.0,0.0,0.0,0.0,0.0,0.0,0.0,0.0,0.0,0.0,0.0,0.0,0.0,-2.4613,-2.4058,-2.4551,-2.4551,-2.4043,-2.3751,-2.353,-2.3446,-2.3714,-2.3767,0.0,0.0,0.0,0.0,0.0,0.0,0.0,0.0,0.0,0.0,0.0,0.0,0.0,0.0,0.0,0.0,0.0,0.0,0.0,0.0,0.0,0.0,0.0,0.0,0.0,0.0,0.0,0.0,0.0,0.0,0.0,0.0,0.0,0.0,0.0,0.0,0.0,0.0,0.0,0.0,0.0,0.0,-2.8348,-2.8411,0.0,0.0,0.0,-2.8299,-2.8299,0.0,0.0,0.0,0.0,0.0,0.0,0.0,0.0,0.0,0.0,0.0,0.0,0.0,0.0,0.0,0.0,0.0,0.0,0.0,0.0,0.0,0.0,0.0,0.0,0.0,0.0,0.0,0.0,0.0,0.0,0.0,0.0,0.0,0.0,0.0,0.0,0.0,0.0,0.0,0.0,0.0,0.0,0.0,0.0,0.0,0.0,0.0,0.0,0.0,0.0,0.0,0.0,0.0,0.0,0.0,0.0,0.0,-2.385,-2.4307,-2.4311,-2.374,-2.3457,-2.3298,-2.3235,-2.3409,0.0,0.0,0.0,0.0,0.0,0.0,0.0,0.0,0.0,0.0,0.0,0.0,0.0,0.0,0.0,0.0,0.0,0.0,0.0,0.0,0.0,0.0,0.0,0.0,0.0,0.0,0.0,-2.1743,0.0,0.0,0.0,0.0,0.0,0.0,0.0,0.0,0.0,0.0,0.0,0.0,0.0,0.0,-2.8054,-2.825,-2.8339,-2.8339,0.0,0.0,-2.8137,-2.8113,-2.798,-2.7865,0.0,0.0,0.0,0.0,0.0,0.0,0.0,0.0,0.0,0.0,0.0,0.0,0.0,0.0,0.0,0.0,0.0,0.0,0.0,0.0,0.0,0.0,0.0,0.0,0.0,0.0,0.0,0.0,0.0,0.0,0.0,0.0,0.0,0.0,0.0,0.0,0.0,0.0,0.0,0.0,0.0,0.0,0.0,0.0,0.0,0.0,0.0,0.0,0.0,0.0,0.0,0.0,0.0,0.0,-2.3708,-2.3642,-2.4021,-2.3922,-2.3372,-2.3298,-2.3224,-2.3038,-2.3235,-2.3508,0.0,0.0,0.0,0.0,0.0,0.0,0.0,0.0,0.0,0.0,0.0,0.0,0.0,0.0,0.0,0.0,0.0,0.0,0.0,0.0,0.0,0.0,0.0,0.0,0.0,0.0,0.0,0.0,0.0,0.0,0.0,0.0,0.0,0.0,0.0,0.0,0.0,0.0,0.0,0.0,0.0,-2.802,-2.8005,-2.8128,-2.8177,0.0,-2.8005,-2.7955,-2.784,-2.7715,-2.7575,-2.7452,0.0,0.0,0.0,0.0,0.0,0.0,0.0,0.0,0.0,0.0,0.0,0.0,0.0,0.0,0.0,0.0,0.0,0.0,0.0,0.0,0.0,0.0,0.0,0.0,0.0,0.0,0.0,0.0,0.0,0.0,0.0,0.0,0.0,0.0,0.0,0.0,0.0,0.0,0.0,0.0,0.0,0.0,0.0,0.0,0.0,0.0,0.0,0.0,0.0,0.0,0.0,0.0,0.0,-2.3641,-2.329,-2.3539,-2.3446,-2.3113,-2.2852,-2.2703,-2.2628,-2.2975,-2.3187,0.0,0.0,0.0,0.0,0.0,0.0,0.0,0.0,0.0,0.0,0.0,0.0,0.0,0.0,0.0,0.0,0.0,0.0,0.0,0.0,0.0,0.0,0.0,0.0,0.0,0.0,0.0,0.0,-2.1819,-2.2211,-2.2653,0.0,0.0,0.0,0.0,0.0,0.0,0.0,0.0,0.0,0.0,-2.7905,-2.798,-2.8054,0.0,0.0,-2.7815,-2.7715,-2.7579,-2.7437,-2.7335,-2.7284,-2.7218,0.0,0.0,0.0,0.0,0.0,0.0,0.0,0.0,0.0,0.0,0.0,0.0,0.0,0.0,0.0,0.0,0.0,0.0,0.0,0.0,0.0,0.0,0.0,0.0,0.0,0.0,0.0,0.0,0.0,0.0,0.0,0.0,0.0,0.0,0.0,0.0,0.0,0.0,0.0,0.0,0.0,0.0,0.0,0.0,0.0,0.0,0.0,0.0,0.0,0.0,0.0,0.0,-2.3394,-2.3089,-2.3095,-2.3038,-2.2852,-2.2553,-2.2392,-2.2402,-2.2665,-2.2852,0.0,0.0,0.0,0.0,0.0,0.0,0.0,0.0,0.0,0.0,0.0,0.0,0.0,0.0,0.0,0.0,0.0,0.0,0.0,0.0,0.0,0.0,0.0,0.0,0.0,0.0,0.0,0.0,-2.1567,-2.211,-2.2681,0.0,0.0,0.0,0.0,0.0,0.0,0.0,0.0,0.0,0.0,-2.769,-2.774,-2.7755,-2.7765,-2.7818,-2.772,-2.7624,-2.77,-2.7598,-2.753,-2.7518,0.0,0.0,0.0,0.0,0.0,0.0,0.0,0.0,0.0,0.0,0.0,0.0,0.0,0.0,0.0,0.0,0.0,0.0,0.0,0.0,0.0,0.0,0.0,0.0,0.0,0.0,0.0,-1.9108,0.0,0.0,-1.9059,0.0,0.0,0.0,0.0,0.0,0.0,0.0,0.0,0.0,0.0,0.0,0.0,0.0,0.0,0.0,0.0,0.0,0.0,0.0,0.0,0.0,0.0,-2.2883,-2.3016,-2.2804,-2.259,-2.2402,-2.2402,-2.2365,-2.2402,-2.2413,-2.2515,-2.2703,0.0,0.0,0.0,0.0,0.0,0.0,0.0,0.0,0.0,0.0,0.0,0.0,0.0,0.0,0.0,0.0,0.0,0.0,0.0,0.0,0.0,0.0,0.0,0.0,0.0,0.0,-2.0773,-2.1665,-2.248,0.0,0.0,0.0,0.0,0.0,0.0,0.0,0.0,0.0,-2.6808,-2.7159,-2.7376,-2.7262,-2.7248,-2.7421,-2.782,-2.7775,-2.7871,-2.8267,-2.8339,-2.834,0.0,0.0,0.0,0.0,0.0,0.0,0.0,0.0,0.0,0.0,0.0,0.0,0.0,0.0,0.0,0.0,0.0,0.0,0.0,0.0,0.0,0.0,0.0,0.0,0.0,0.0,0.0,-1.9157,-1.9157,0.0,0.0,0.0,0.0,0.0,0.0,0.0,0.0,0.0,0.0,0.0,-1.9079,-1.9158,0.0,0.0,0.0,0.0,0.0,0.0,0.0,0.0,0.0,0.0,0.0,0.0,-2.2504,-2.2392,-2.2214,-2.1997,-2.1807,-2.1655,-2.1627,-2.1578,-2.1731,-2.1997,-2.2467,0.0,0.0,0.0,0.0,0.0,0.0,0.0,0.0,0.0,0.0,0.0,0.0,0.0,0.0,0.0,0.0,0.0,0.0,0.0,0.0,0.0,0.0,0.0,0.0,0.0,-2.041,0.0,0.0,0.0,0.0,0.0,0.0,0.0,0.0,0.0,0.0,-2.6901,-2.7385,-2.7639,-2.7972,-2.8137,-2.7971,-2.7929,-2.7933,0.0,0.0,0.0,0.0,0.0,0.0,0.0,0.0,0.0,0.0,0.0,0.0,0.0,0.0,-2.7752,-2.7343,-2.731,-2.7386,-2.7529,0.0,0.0,0.0,0.0,0.0,0.0,0.0,0.0,0.0,0.0,0.0,0.0,0.0,0.0,-1.8792,-1.8756,-1.8572,0.0,0.0,0.0,0.0,0.0,0.0,0.0,0.0,-1.8456,-1.8455,-1.8594,-1.8545,-1.8586,0.0,-1.895,-1.943,0.0,0.0,0.0,0.0,0.0,0.0,0.0,0.0,-2.1959,-2.1883,-2.1693,-2.154,-2.1397,-2.1282,-2.1215,-2.1215,-2.132,-2.1617,-2.2073,-2.1892,-2.1834,0.0,0.0,0.0,0.0,0.0,0.0,0.0,0.0,0.0,0.0,0.0,0.0,0.0,0.0,0.0,0.0,0.0,0.0,0.0,0.0,0.0,0.0,0.0,-2.0188,0.0,0.0,0.0,0.0,0.0,0.0,0.0,0.0,0.0,-2.6175,-2.6846,-2.7324,-2.7573,-2.7894,-2.8025,-2.7895,0.0,0.0,0.0,0.0,0.0,0.0,0.0,-2.782,-2.7776,-2.7881,-2.7928,-2.7989,-2.8126,-2.8162,-2.7996,0.0,0.0,-2.7438,-2.731,-2.729,-2.7266,-2.7361,-2.7524,-2.775,-2.8082,-2.8383,0.0,0.0,0.0,0.0,0.0,0.0,0.0,0.0,-1.8118,-1.8015,0.0,-1.7819,0.0,0.0,0.0,0.0,-1.7959,-1.7976,0.0,0.0,-1.771,-1.7771,-1.7903,-1.8071,-1.8188,-1.8188,-1.8438,-1.8499,-1.8397,-1.9347,0.0,0.0,0.0,0.0,0.0,0.0,-2.1254,-2.1466,-2.1284,-2.1207,-2.1227,-2.1227,-2.1227,-2.1188,-2.1227,-2.1294,-2.1494,-2.1484,-2.155,-2.1721,-2.1298,0.0,0.0,0.0,0.0,0.0,0.0,0.0,0.0,0.0,0.0,0.0,0.0,0.0,0.0,0.0,0.0,0.0,0.0,0.0,0.0,-1.9183,0.0,0.0,0.0,0.0,0.0,0.0,0.0,0.0,0.0,-2.4809,-2.5268,-2.598,-2.6492,-2.6685,0.0,0.0,0.0,0.0,-2.6948,-2.7516,-2.7314,-2.729,-2.7867,-2.7947,-2.7947,-2.7947,0.0,0.0,-2.8509,-2.8643,-2.857,-2.8191,-2.8263,-2.8204,-2.7597,-2.7519,-2.7413,-2.7074,-2.7125,-2.7237,-2.7376,-2.765,-2.7984,-1.8719,0.0,0.0,0.0,0.0,-1.8767,-1.8524,-1.828,-1.8101,-1.8022,-1.7991,-1.7943,0.0,0.0,0.0,0.0,0.0,0.0,-1.7542,-1.7691,-1.7563,-1.749,-1.7541,-1.7585,-1.762,-1.7628,-1.7852,-1.8002,-1.8159,-1.8608,-1.9,-1.9359,0.0,0.0,0.0,0.0,-2.0517,-2.1045,-2.1025,-2.1061,-2.1219,-2.1228,-2.1188,-2.1197,-2.1341,-2.1317,-2.1075,-2.1204,-2.1164,-2.0964,-2.0632,0.0,0.0,0.0,0.0,0.0,0.0,0.0,0.0,0.0,0.0,0.0,0.0,0.0,0.0,0.0,0.0,0.0,0.0,0.0,-1.8689,-1.8858,-1.9049,0.0,0.0,0.0,0.0,0.0,0.0,0.0,0.0,0.0,-2.4002,-2.5571,-2.6679,0.0,0.0,-2.7332,-2.7183,-2.7118,-2.7099,-2.7157,-2.7096,0.0,-2.725,-2.731,-2.7276,-2.7276,-2.7397,-2.753,-2.7597,-2.7875,-2.8071,-2.8026,-2.8206,-2.8184,-2.7693,-2.7689,-2.7584,-2.7169,-2.723,-2.726,-2.6878,-2.7008,-2.7276,-1.8052,-1.864,-1.8749,-1.8625,-1.8353,-1.8233,-1.7983,-1.7651,-1.7546,-1.7505,-1.7505,-1.7465,-1.7466,-1.7392,-1.7297,0.0,0.0,0.0,-1.7062,-1.7138,-1.6999,-1.7023,-1.7174,-1.7137,-1.7189,-1.7181,-1.7418,-1.7526,-1.7569,-1.7858,-1.8114,-1.8402,0.0,-1.9534,-1.9869,-1.995,-2.0223,-2.0671,-2.0721,-2.0771,-2.0908,-2.0866,-2.0908,-2.0899,-2.1024,-2.0944,-2.0731,-2.0813,-2.078,-2.0514,-2.0134,-1.9811,0.0,0.0,0.0,0.0,0.0,0.0,0.0,0.0,0.0,0.0,0.0,-1.7677,-1.7609,0.0,0.0,0.0,-1.7726,-1.7893,-1.7902,-1.7974,0.0,0.0,0.0,0.0,0.0,0.0,0.0,-2.1019,-2.1431,-2.1866,-2.2515,-2.3809,-2.5004,-2.5812,-2.6261,-2.6467,-2.6343,0.0,-2.6299,-2.623,-2.6161,-2.6092,-2.6079,-2.6161,-2.6242,-2.6414,-2.6564,-2.6722,-2.679,-2.7108,-2.7423,-2.7564,-2.7762,-2.7821,-2.7573,-2.7767,-2.7781,-2.721,-2.73,-2.7371,-2.7015,-2.6963,-2.6992,-1.7321,-1.7601,-1.7796,-1.7687,-1.736,-1.736,-1.7114,-1.6694,-1.6653,-1.6645,-1.6653,-1.6653,-1.6742,-1.6842,-1.6906,0.0,-1.664,-1.6676,-1.6522,-1.6329,-1.6329,-1.6474,-1.6788,-1.6788,-1.6788,-1.6795,-1.7023,-1.7018,-1.6736,-1.7163,-1.7383,-1.7464,-1.8669,-1.9419,-1.9683,-1.9878,-2.0108,-2.0337,-2.0337,-2.0346,-2.0392,-2.0383,-2.0383,-2.0392,-2.0383,-2.0374,-2.0337,-2.0337,-2.0319,-2.0274,-1.9722,-1.9327,-1.9153,0.0,0.0,0.0,0.0,0.0,0.0,0.0,0.0,0.0,0.0,0.0,0.0,0.0,0.0,-1.6607,-1.6607,0.0,-1.6607,-1.6755,0.0,0.0,0.0,-1.7844,-1.7876,-1.8439,-1.8997,-1.9402,0.0,0.0,-2.0827,-2.1239,-2.2103,-2.377,-2.4469,-2.4779,-2.4815,-2.4803,-2.4814,-2.4814,-2.4671,-2.4552,-2.4636,-2.4791,-2.5052,-2.5382,-2.5606,-2.5816,-2.6013,-2.6336,-2.6598,-2.6824,-2.6994,-2.7162,-2.7356,-2.7624,-2.7739,-2.7244,-2.7357,-2.7537,-2.7488,-2.7213,-2.6976,-1.6748,-1.6632,-1.6694,-1.685,-1.711,-1.7066,-1.6807,-1.6409,-1.6373,-1.6416,-1.6373,-1.6373,-1.633,-1.6221,-1.6213,-1.6238,-1.6242,-1.6235,-1.6324,-1.6504,-1.6504,-1.6593,-1.6657,-1.6657,-1.6657,-1.6664,-1.671,-1.6815,-1.6936,-1.7028,-1.7259,-1.762,-1.8163,-1.8519,-1.874,-1.899,-1.9359,-1.9852,-1.9852,-2.0,-2.0313,-2.0331,-2.0331,-2.0331,-2.0331,-2.02,-1.9878,-1.9861,-1.9713,-1.9418,-1.8931,-1.8658,-1.8581,-1.813,0.0,0.0,0.0,0.0,0.0,0.0,0.0,0.0,0.0,-1.6451,-1.6417,0.0,-1.5767,0.0,-1.5684,-1.5726,-1.5726,-1.5767,0.0,0.0,-1.6131,-1.646,-1.6944,-1.7139,-1.7464,-1.8095,-1.8359,-1.8709,-1.9137,-1.9462,-1.9846,-2.0478,-2.192,-2.2988,-2.3136,-2.3172,-2.3231,-2.3427,-2.3427,-2.3475,-2.3607,-2.3801,-2.4032,-2.4261,-2.4491,-2.4695,-2.5016,-2.5264,-2.5511,-2.5838,-2.6094,-2.6267,-2.6474,-2.6769,-2.6997,-2.7052,-2.733,-2.7435,-2.7042,-2.684,-2.6804,-1.6276,-1.6253,-1.6123,-1.6162,-1.6277,-1.6358,-1.616,-1.5812,-1.5716,-1.5672,-1.5679,-1.5812,-1.5784,-1.5701,-1.5832,-1.584,-1.5804,-1.5758,-1.5852,-1.5927,-1.5933,-1.5933,-1.5927,-1.5927,-1.5927,-1.5933,-1.6015,-1.6204,-1.6454,-1.6588,-1.6824,-1.72,-1.7488,-1.7673,-1.7807,-1.8471,-1.8978,-1.9302,-1.9437,-1.9582,-1.982,-1.9783,-1.9828,-1.9783,-1.97,-1.9509,-1.9319,-1.931,-1.9211,-1.896,-1.8354,-1.8037,-1.8037,-1.7427,-1.7011,0.0,0.0,0.0,0.0,0.0,0.0,0.0,0.0,0.0,0.0,0.0,-1.5183,-1.519,-1.5183,-1.519,-1.5183,-1.5183,-1.5226,-1.5319,-1.5447,-1.5597,-1.5824,-1.6019,-1.63,-1.6648,-1.687,-1.7147,-1.7553,-1.7836,-1.8029,-1.827,-1.9346,-2.043,-2.1257,-2.1535,-2.1735,-2.1973,-2.201,-2.2172,-2.2569,-2.2718,-2.2905,-2.3187,-2.3471,-2.3754,-2.3936,-2.4263,-2.4623,-2.4909,-2.5206,-2.5453,-2.5629,-2.599,-2.6267,-2.6458,-2.675,-2.6955,-2.7038,-2.6854,-2.6698,-1.5785,-1.6001,-1.5778,-1.5493,-1.5257,-1.5355,-1.5327,-1.5206,-1.4973,-1.4883,-1.4896,-1.5055,-1.516,-1.5179,-1.5476,-1.5486,-1.5248,-1.5242,-1.5153,-1.4987,-1.4987,-1.4987,-1.4981,-1.5035,-1.5035,-1.5083,-1.5255,-1.5486,-1.5683,-1.5961,-1.6197,-1.644,-1.6683,-1.6831,-1.6885,-1.7947,-1.8542,-1.8643,-1.8912,-1.905,-1.9058,-1.905,-1.905,-1.9004,-1.8781,-1.8643,-1.8643,-1.8596,-1.8596,-1.8581,-1.7896,-1.7508,-1.7455,-1.6705,-1.6269,0.0,-1.5995,0.0,0.0,0.0,0.0,0.0,0.0,0.0,0.0,-1.4796,-1.4719,-1.4726,-1.4726,-1.4726,-1.4732,-1.4726,-1.4726,-1.4726,-1.486,-1.4888,-1.4757,-1.5078,-1.5333,-1.5337,-1.5526,-1.5819,-1.6217,-1.6397,-1.6564,-1.6827,-1.7098,-1.7819,-1.9058,-1.9816,-2.0216,-2.045,-2.0576,-2.0875,-2.1375,-2.1527,-2.1728,-2.209,-2.2467,-2.2777,-2.2841,-2.3298,-2.3728,-2.3973,-2.424,-2.4528,-2.4791,-2.5135,-2.543,-2.5688,-2.5884,-2.6261,-2.7005,-2.6901,-2.6603,-1.5251,-1.4975,-1.4921,-1.4736,-1.4478,-1.4279,-1.4574,-1.5113,-1.5066,-1.4918,-1.4722,-1.4535,-1.4506,-1.4512,-1.4561,-1.4586,-1.4538,-1.4484,-1.449,-1.4448,-1.4442,-1.4448,-1.4442,-1.4688,-1.479,-1.479,-1.5029,-1.5172,-1.522,-1.5267,-1.5404,-1.5629,-1.5676,-1.5825,-1.6015,0.0,0.0,0.0,-1.8179,-1.8319,-1.8311,-1.8311,-1.8226,-1.8001,-1.7947,0.0,-1.7613,-1.7606,-1.7559,-1.7559,-1.7282,0.0,0.0,0.0,0.0,0.0,0.0,0.0,0.0,0.0,0.0,0.0,-1.3744,-1.3921,-1.4244,-1.3916,-1.3689,-1.3683,-1.3689,-1.3689,-1.3689,-1.3689,-1.3683,-1.3683,-1.3734,-1.3839,-1.4174,-1.4308,-1.4512,-1.4967,-1.5174,-1.5313,-1.5404,-1.5439,-1.5526,-1.5739,-1.5772,-1.5982,-1.6476,-1.7732,-1.8519,-1.8767,-1.9244,-1.9678,-1.9952,-2.0304,-2.0576,-2.0857,-2.1213,-2.1645,-2.1966,-2.2231,-2.259,-2.2916,-2.3176,-2.3434,-2.3801,-2.4068,-2.4383,-2.4838,-2.4969,-2.5323,-2.638,-2.6497,-2.6434,-1.4526,-1.4298,-1.416,-1.3968,0.0,-1.357,-1.3673,-1.3968,-1.4214,-1.4214,-1.4118,-1.3968,-1.3919,-1.3919,-1.3919,-1.3919,-1.3919,-1.3919,-1.3919,-1.3913,-1.3919,-1.3913,-1.3913,-1.4016,-1.4112,-1.4118,-1.4262,-1.44,-1.449,-1.4496,-1.4634,-1.4867,-1.4962,-1.5112,-1.5255,-1.5629,-1.6244,-1.7153,-1.7441,-1.7581,-1.7581,-1.7581,-1.7488,-1.7347,-1.7106,0.0,0.0,0.0,0.0,0.0,0.0,0.0,0.0,-1.5635,0.0,-1.486,-1.4706,-1.4456,-1.4034,-1.38,-1.352,-1.3292,-1.3076,-1.314,-1.3567,-1.338,-1.3198,-1.3104,-1.3104,-1.3104,-1.3104,-1.3192,-1.3245,-1.3245,-1.3339,-1.3479,-1.3574,-1.3734,-1.3869,-1.3979,-1.4186,-1.4321,-1.4321,-1.4505,-1.4628,-1.4798,-1.5026,-1.5182,-1.5369,-1.638,-1.7277,-1.761,-1.8135,-1.8576,-1.8807,-1.9173,-1.9529,-1.9775,-2.0128,-2.0518,-2.0808,-2.1126,-2.1443,-2.1873,-2.2203,-2.2531,-2.2916,-2.315,-2.3471,-2.4009,-2.4154,-2.4371,-2.5158,-2.5581,-2.5873,-1.3715,-1.3619,-1.3389,-1.3152,-1.2905,-1.2899,-1.2807,-1.2662,-1.3104,0.0,0.0,-1.3249,-1.3249,-1.3201,-1.3249,-1.3249,-1.3249,-1.3244,-1.3244,-1.3244,-1.3249,-1.3249,-1.3249,-1.3298,-1.3298,-1.3298,-1.3346,-1.3485,-1.3715,-1.3715,-1.3859,-1.4106,-1.4352,-1.449,-1.4592,-1.4965,-1.5565,-1.6238,-1.6672,-1.6869,-1.6876,-1.6926,-1.6906,-1.6859,-1.6464,-1.6157,-1.6061,-1.5828,-1.5671,-1.5619,-1.5373,-1.515,-1.4908,-1.4634,-1.4346,-1.41,-1.4058,-1.3913,-1.3667,-1.342,-1.3184,-1.2856,-1.2467,-1.2467,-1.2856,-1.2905,-1.2856,-1.2662,-1.2667,-1.2662,-1.2667,-1.2807,-1.2905,-1.2905,-1.3098,-1.3154,-1.3006,-1.3167,-1.3233,-1.3136,-1.3303,-1.3371,-1.3481,-1.3741,-1.3925,-1.4055,-1.4315,-1.4636,-1.4832,-1.5548,-1.6348,-1.6722,-1.7123,-1.7489,-1.7723,-1.8086,-1.8456,-1.8674,-1.9054,-1.9362,-1.9618,-1.9971,-2.0401,-2.076,-2.1213,-2.1586,-2.1977,-2.2252,-2.2628,-2.3224,-2.3372,-2.353,-2.397,-2.4527,-2.4993,-1.2996,-1.2613,-1.2565,-1.2419,-1.217,-1.2175,-1.2122,-1.2127,-1.2424,-1.257,-1.257,-1.2322,-1.2224,-1.2219,-1.2224,-1.2224,-1.2224,-1.2224,-1.2224,-1.2224,-1.2219,-1.2224,-1.2224,-1.2467,-1.257,-1.2565,-1.2764,-1.2905,-1.2953,-1.3147,-1.3238,-1.3298,-1.3539,-1.3786,-1.4022,-1.4283,-1.4642,-1.4973,-1.5859,-1.6303,-1.6303,-1.6545,-1.653,-1.6338,-1.6232,-1.5982,-1.5513,-1.5457,-1.5264,-1.4894,-1.4832,-1.4576,-1.4112,-1.3811,-1.357,-1.3286,-1.3104,-1.2905,-1.2608,-1.2559,-1.2365,-1.1878,-1.1731,-1.1829,-1.2127,-1.2175,-1.2127,-1.2127,-1.2078,-1.2122,-1.2122,-1.2127,-1.2175,-1.2175,-1.2175,-1.2301,-1.2453,-1.2549,-1.2721,-1.3014,-1.3095,-1.3216,-1.3368,-1.3308,-1.3321,-1.3531,-1.3614,-1.3616,-1.4193,-1.4818,-1.5411,-1.5801,-1.6113,-1.636,-1.6631,-1.696,-1.7351,-1.7595,-1.7974,-1.8278,-1.8536,-1.8904,-1.9271,-1.9529,-1.9923,-2.0313,-2.0741,-2.1146,-2.1655,-2.2214,-2.2429,-2.274,-2.3261,-2.3545,-2.3838,-1.2322,-1.1996,-1.2063,-1.192,-1.1527,-1.1436,-1.1378,-1.1428,-1.1534,-1.18,-1.2132,-1.1878,-1.178,-1.1785,-1.1634,-1.159,-1.1541,-1.159,-1.1536,-1.1585,-1.1736,-1.1785,-1.1829,-1.2078,-1.2175,-1.2175,-1.2322,-1.2438,-1.2503,-1.2613,-1.2725,-1.283,-1.3091,-1.3347,-1.3596,-1.3758,-1.3858,-1.401,-1.5008,-1.5557,-1.5557,-1.5676,-1.5702,-1.555,-1.5398,-1.5241,-1.4987,-1.4683,-1.4427,-1.4217,-1.406,-1.3791,-1.3297,-1.3133,-1.2828,-1.2332,-1.2219,-1.2024,-1.1785,-1.1585,-1.1345,-1.0998,-1.0949,-1.1002,-1.1145,-1.1243,-1.1296,-1.1145,-1.1145,-1.1149,-1.1149,-1.1296,-1.1438,-1.1536,-1.1683,-1.1878,-1.2127,-1.2175,-1.2273,-1.2467,-1.2511,-1.2565,-1.2667,-1.2705,-1.2831,-1.3065,-1.3195,-1.3461,-1.3731,-1.4014,-1.4462,-1.5133,-1.5591,-1.5762,-1.5786,-1.6205,-1.6555,-1.6696,-1.6927,-1.7237,-1.7521,-1.7902,-1.8233,-1.8536,-1.8935,-1.9381,-1.9766,-2.0216,-2.0722,-2.13,-2.1606,-2.1959,-2.2478,-2.2815,-2.3298,-1.1677,-1.1454,-1.1611,-1.1434,-1.1041,-1.0871,-1.0832,-1.0828,-1.0772,-1.1072,-1.1508,-1.1484,-1.143,-1.1434,-1.1236,-1.1137,-1.1137,-1.1137,-1.1132,-1.1137,-1.1335,-1.1434,-1.1484,-1.1628,-1.1732,-1.1781,-1.1732,-1.182,-1.1971,-1.2041,-1.2171,-1.2422,-1.2591,-1.2797,-1.3003,-1.3055,-1.3127,-1.3137,-1.3961,-1.4527,-1.4726,-1.4778,-1.4808,-1.4813,-1.4608,-1.4442,-1.4396,-1.3994,-1.3713,-1.3499,-1.3287,-1.2971,-1.2501,-1.243,-1.2149,-1.1598,-1.1441,-1.1246,-1.0953,-1.0703,-1.0413,-1.0162,-1.0117,-1.0117,-1.0064,-1.0212,-1.0408,-1.0408,-1.0462,-1.0462,-1.0462,-1.0609,-1.0806,-1.1002,-1.1194,-1.1389,-1.1585,-1.1634,-1.1683,-1.1731,-1.178,-1.1834,-1.1927,-1.2127,-1.2408,-1.2597,-1.3001,-1.3256,-1.3324,-1.3378,-1.3754,-1.4374,-1.4947,-1.5154,-1.5023,-1.5518,-1.5899,-1.5953,-1.6198,-1.6522,-1.6826,-1.7061,-1.7269,-1.763,-1.8066,-1.8474,-1.8825,-1.9301,-1.9814,-2.0391,-2.0712,-2.1118,-2.1769,-2.2289,-2.2852,-1.1185,-1.0983,-1.0996,-1.0958,-1.0867,-1.0625,-1.0533,-1.0481,-1.0264,-1.0196,-1.0366,-1.0724,-1.0927,-1.0983,-1.0918,-1.0862,-1.0858,-1.0927,-1.0918,-1.0862,-1.0931,-1.0978,-1.0961,-1.0974,-1.0983,-1.1021,-1.1012,-1.1073,-1.1113,-1.1329,-1.154,-1.1761,-1.1813,-1.1878,-1.1893,-1.2107,-1.2192,-1.2255,-1.2495,-1.3041,-1.3861,-1.4157,-1.4266,-1.4266,-1.426,-1.4105,-1.3762,-1.3739,-1.3367,-1.2692,-1.262,-1.2359,-1.1864,-1.1573,-1.1414,-1.1326,-1.0977,-1.061,-1.0143,-0.9871,-0.964,-0.9331,-0.9343,-0.924,-0.9031,-0.9023,-0.9418,-1.0113,-1.0364,-1.0314,-1.0413,-1.0364,-1.0364,-1.0408,-1.0462,-1.0511,-1.0605,-1.056,-1.0659,-1.0904,-1.1149,-1.134,-1.1536,-1.1785,-1.2024,-1.2078,-1.2322,-1.2603,-1.2796,-1.2973,-1.3171,-1.3595,-1.3973,-1.4314,-1.4545,-1.4955,-1.5301,-1.5583,-1.5861,-1.6038,-1.6264,-1.6468,-1.6615,-1.6838,-1.7192,-1.763,-1.7833,-1.8233,-1.8931,-1.9445,-1.9871,-2.0303,-2.1089,-2.1731,-2.2365,-1.0672,-1.0425,-1.0318,-1.0265,-1.025,-1.0096,-1.0096,-1.0042,-0.9935,-0.9939,-0.9939,-1.015,-1.0253,-1.016,-1.0,-0.9947,-0.9951,-0.9951,-0.9951,-0.9951,-1.0104,-1.0208,-1.0208,-1.0364,-1.0416,-1.0412,-1.0416,-1.0471,-1.0632,-1.1003,-1.1327,-1.1594,-1.1652,-1.1647,-1.1657,-1.1729,-1.1823,-1.1769,-1.1905,-1.2127,-1.2494,-1.2935,-1.3142,-1.3142,-1.3142,-1.3088,-1.293,-1.2767,-1.2561,-1.2206,-1.1877,-1.1514,-1.1173,-1.0892,-1.063,-1.0373,-1.0043,-0.9769,-0.9595,-0.9485,-0.9383,-0.928,-0.9189,-0.9082,-0.897,-0.8885,-0.9023,-0.932,-0.9468,-0.9468,-0.9472,-0.9468,-0.9521,-0.9673,-0.9673,-0.9821,-1.0167,-1.0171,-1.0265,-1.0511,-1.0659,-1.0752,-1.09,-1.1145,-1.134,-1.1492,-1.1736,-1.2029,-1.2273,-1.2414,-1.2613,-1.298,-1.3239,-1.3549,-1.4062,-1.4381,-1.4682,-1.4907,-1.5033,-1.5212,-1.5627,-1.586,-1.5995,-1.614,-1.6721,-1.7106,-1.7227,-1.7704,-1.8365,-1.8821,-1.9451,-2.0029,-2.0381,-2.0954,-2.152,-1.0196,-1.0004,-0.9854,-0.9755,-0.9702,-0.9482,-0.9427,-0.943,-0.9372,-0.9316,-0.9316,-0.9316,-0.9251,-0.9268,-0.9356,-0.9462,-0.9462,-0.9413,-0.9462,-0.9462,-0.9671,-0.9728,-0.9728,-0.994,-1.0038,-1.0038,-1.0046,-1.0109,-1.0281,-1.0564,-1.0857,-1.1076,-1.1076,-1.1131,-1.1135,-1.1076,-1.1131,-1.1076,-1.1131,-1.1131,-1.1181,-1.1459,-1.1782,-1.2001,-1.1951,-1.1951,-1.1951,-1.1728,-1.1623,-1.1509,-1.1126,-1.074,-1.0513,-1.0335,-1.0037,-0.9572,-0.9184,-0.9008,-0.8965,-0.8856,-0.8856,-0.8849,-0.8743,-0.8683,-0.8665,-0.8577,-0.8463,-0.8466,-0.8459,-0.8546,-0.8779,-0.8775,-0.8878,-0.9084,-0.9084,-0.9278,-0.9575,-0.9669,-0.9719,-0.9916,-0.9969,-1.0117,-1.0314,-1.0556,-1.0806,-1.1002,-1.1149,-1.1389,-1.1639,-1.1736,-1.1932,-1.237,-1.2511,-1.2925,-1.3631,-1.4008,-1.4173,-1.4318,-1.4446,-1.4786,-1.5034,-1.528,-1.5514,-1.5784,-1.6314,-1.6661,-1.6775,-1.7263,-1.7907,-1.8456,-1.9108,-1.9663,-1.9761,-2.0252,-2.0615,-0.9849,-0.9731,-0.9526,-0.9368,-0.9379,-0.8819,-0.8595,-0.8595,-0.8266,-0.8103,-0.8156,-0.8159,-0.8094,-0.8232,-0.9208,-0.9731,-0.9731,-0.9658,-0.9654,-0.9654,-0.9717,-0.9786,-0.9794,-0.9794,-0.9783,-0.9694,-0.9691,-0.9713,-0.9794,-0.986,-0.9868,-0.9871,-0.9923,-0.9923,-0.9923,-0.9923,-0.9871,-0.9923,-0.9981,-0.9923,-0.9926,-0.9923,-1.0359,-1.0962,-1.0907,-1.0802,-1.0802,-1.0747,-1.0637,-1.0421,-1.0308,-1.0139,-0.9856,-0.9798,-0.9556,-0.9147,-0.8649,-0.8267,-0.8101,-0.7936,-0.7775,-0.7713,-0.7759,-0.7691,-0.774,-0.7713,-0.7694,-0.7673,-0.77,-0.7969,-0.851,-0.8613,-0.8698,-0.8748,-0.8783,-0.8775,-0.8825,-0.8874,-0.8825,-0.8973,-0.9179,-0.9476,-0.992,-1.0216,-1.0314,-1.0413,-1.0462,-1.0556,-1.085,-1.1096,-1.134,-1.1634,-1.1932,-1.236,-1.327,-1.3598,-1.3789,-1.3963,-1.4181,-1.4582,-1.4735,-1.4895,-1.5086,-1.5324,-1.5652,-1.5984,-1.6315,-1.6785,-1.7419,-1.8051,-1.8684,-1.9126,-1.9215,-1.9629,-1.9965,-0.8871,-0.8657,-0.8543,-0.8491,-0.8488,-0.8266,-0.8208,-0.8152,-0.8045,-0.7992,-0.7992,-0.7992,-0.7992,-0.8042,-0.8432,-0.8654,-0.8654,-0.8654,-0.8654,-0.8654,-0.8654,-0.8654,-0.8654,-0.8654,-0.8654,-0.8654,-0.8654,-0.8764,-0.8985,-0.8985,-0.9096,-0.9203,-0.9203,-0.9254,-0.9203,-0.9199,-0.9203,-0.9203,-0.9258,-0.9254,-0.9199,-0.9092,-0.9147,-0.942,-0.9919,-1.0147,-1.0143,-0.9978,-0.9816,-0.9761,-0.9372,-0.9096,-0.8985,-0.8761,-0.8575,-0.842,-0.8249,-0.8063,-0.7965,-0.7741,-0.7577,-0.7572,-0.7334,-0.7124,-0.7166,-0.706,-0.7012,-0.7015,-0.7015,-0.7215,-0.741,-0.7725,-0.7877,-0.7914,-0.7842,-0.7892,-0.7978,-0.8028,-0.8177,-0.8478,-0.8779,-0.9023,-0.9175,-0.932,-0.9422,-0.9624,-0.9772,-0.9969,-1.0265,-1.0511,-1.0757,-1.1047,-1.134,-1.1634,-1.2127,-1.2851,-1.3232,-1.3431,-1.3661,-1.3932,-1.4142,-1.4369,-1.4543,-1.4854,-1.5126,-1.551,-1.5922,-1.6628,-1.7168,-1.742,-1.8118,-1.8616,-1.8684,-1.9191,-1.9461,-0.8211,-0.7989,-0.7823,-0.7765,-0.7712,-0.7546,-0.7438,-0.7438,-0.7438,-0.7435,-0.7438,-0.7438,-0.7438,-0.7438,-0.7438,-0.7435,-0.749,-0.7823,-0.7992,-0.7992,-0.7992,-0.7992,-0.7992,-0.7992,-0.7992,-0.7989,-0.7992,-0.8152,-0.8318,-0.8318,-0.8429,-0.8595,-0.8595,-0.8595,-0.8592,-0.8592,-0.8595,-0.8592,-0.8592,-0.8595,-0.8592,-0.8322,-0.8211,-0.8266,-0.8709,-0.904,-0.9206,-0.9044,-0.8933,-0.8878,-0.8543,-0.8318,-0.8211,-0.7823,-0.7601,-0.7601,-0.749,-0.7438,-0.7438,-0.7274,-0.716,-0.716,-0.6921,-0.6704,-0.6699,-0.6634,-0.6601,-0.6596,-0.6596,-0.6596,-0.6628,-0.6812,-0.709,-0.7251,-0.7268,-0.7319,-0.7566,-0.7623,-0.7759,-0.8026,-0.8267,-0.8439,-0.8439,-0.8577,-0.873,-0.8931,-0.9179,-0.9426,-0.9575,-0.9821,-1.0117,-1.0359,-1.0609,-1.09,-1.1247,-1.1736,-1.2381,-1.2629,-1.2953,-1.3238,-1.3528,-1.3769,-1.4058,-1.4394,-1.4777,-1.5201,-1.5704,-1.6371,-1.6694,-1.6876,-1.747,-1.8061,-1.8355,-1.8765,-1.8922,-0.7934,-0.7823,-0.7435,-0.721,-0.7102,-0.6662,-0.633,-0.6439,-0.6383,-0.6495,-0.6495,-0.6383,-0.6497,-0.6383,-0.6495,-0.6386,-0.6609,-0.7382,-0.7823,-0.7823,-0.7826,-0.7881,-0.7826,-0.7826,-0.7826,-0.7826,-0.7937,-0.7934,-0.7878,-0.7878,-0.7878,-0.7934,-0.7934,-0.7878,-0.7931,-0.7878,-0.7934,-0.7934,-0.7875,-0.7934,-0.7937,-0.7715,-0.7551,-0.7549,-0.7438,-0.7543,-0.7989,-0.7989,-0.7989,-0.7989,-0.7934,-0.7881,-0.7549,-0.7104,-0.6712,-0.6771,-0.6495,-0.6386,-0.6383,-0.6386,-0.6328,-0.6328,-0.6267,-0.6144,-0.6135,-0.6135,-0.613,-0.6125,-0.613,-0.6197,-0.6176,-0.6103,-0.6327,-0.7029,-0.7031,-0.7124,-0.7404,-0.7527,-0.754,-0.7476,-0.7645,-0.7737,-0.7788,-0.8032,-0.8353,-0.8403,-0.8642,-0.8846,-0.8907,-0.9164,-0.9367,-0.9615,-0.9967,-1.0312,-1.0492,-1.0668,-1.1271,-1.1771,-1.2186,-1.2516,-1.2807,-1.3093,-1.3383,-1.3721,-1.4244,-1.4621,-1.5153,-1.5759,-1.6202,-1.6501,-1.7082,-1.7462,-1.7747,-1.8027,-1.8357,-0.6829,-0.6829,-0.6662,-0.6606,-0.655,-0.6386,-0.6272,-0.6272,-0.6272,-0.6272,-0.6272,-0.6272,-0.6272,-0.6274,-0.6272,-0.6272,-0.633,-0.6662,-0.6829,-0.6829,-0.6829,-0.6882,-0.6829,-0.6829,-0.6829,-0.6829,-0.6829,-0.6826,-0.6826,-0.6829,-0.6829,-0.6829,-0.6829,-0.6829,-0.6882,-0.6829,-0.6829,-0.6829,-0.6829,-0.6826,-0.6829,-0.6773,-0.672,-0.672,-0.6606,-0.6662,-0.6829,-0.6993,-0.7102,-0.7102,-0.6937,-0.6773,-0.6662,-0.6553,-0.6439,-0.6442,-0.6386,-0.6272,-0.6216,-0.5933,-0.5652,-0.5596,-0.532,-0.5096,-0.5041,-0.5096,-0.5096,-0.5096,-0.5041,-0.5041,-0.5035,-0.502,-0.5456,-0.6342,-0.6371,-0.6389,-0.6558,-0.6651,-0.6785,-0.6967,-0.7215,-0.74,-0.7577,-0.7769,-0.7804,-0.7859,-0.8065,-0.8268,-0.8481,-0.8717,-0.9069,-0.933,-0.9583,-0.9741,-0.9904,-1.0133,-1.0593,-1.1125,-1.1489,-1.1914,-1.2188,-1.2419,-1.2705,-1.319,-1.3667,-1.41,-1.4573,-1.5051,-1.5486,-1.5913,-1.6334,-1.6665,-1.6918,-1.7263,-1.7695,-0.6272,-0.6272,-0.6047,-0.5989,-0.5935,-0.5768,-0.5659,-0.5656,-0.5654,-0.5601,-0.5601,-0.5599,-0.5599,-0.5601,-0.5601,-0.5599,-0.5603,-0.5656,-0.5656,-0.5714,-0.6163,-0.6272,-0.6272,-0.6272,-0.6272,-0.6272,-0.6272,-0.6272,-0.6272,-0.6272,-0.6272,-0.6274,-0.6272,-0.6328,-0.6272,-0.6272,-0.6272,-0.6272,-0.6216,-0.6102,-0.6049,-0.5882,-0.577,-0.577,-0.5714,-0.5603,-0.5656,-0.5822,-0.61,-0.6381,-0.6214,-0.5938,-0.5826,-0.5712,-0.5654,-0.5656,-0.5601,-0.5601,-0.5601,-0.5262,-0.5037,-0.4981,-0.4704,-0.4536,-0.448,-0.448,-0.448,-0.448,-0.4536,-0.448,-0.448,-0.448,-0.4845,-0.5408,-0.5626,-0.5802,-0.5964,-0.618,-0.637,-0.6567,-0.6653,-0.6844,-0.692,-0.7065,-0.717,-0.7279,-0.7539,-0.7802,-0.8062,-0.821,-0.8542,-0.8808,-0.8971,-0.9112,-0.935,-0.9667,-1.0036,-1.0437,-1.0808,-1.1225,-1.1612,-1.1742,-1.2024,-1.2613,-1.3141,-1.3431,-1.3859,-1.4292,-1.4765,-1.5146,-1.5534,-1.588,-1.6162,-1.6854,-1.7274,-0.6163,-0.6105,-0.5596,-0.5371,-0.5316,-0.4815,-0.4648,-0.459,-0.4592,-0.4646,-0.4592,-0.4648,-0.4592,-0.4536,-0.4704,-0.4704,-0.4536,-0.4648,-0.4704,-0.4927,-0.5543,-0.5993,-0.5993,-0.5991,-0.5938,-0.6049,-0.6049,-0.6105,-0.5993,-0.5993,-0.6161,-0.6049,-0.5993,-0.6161,-0.6049,-0.6161,-0.6049,-0.5991,-0.5822,-0.5654,-0.5654,-0.5208,-0.4931,-0.4929,-0.476,-0.4648,-0.4704,-0.476,-0.515,-0.5935,-0.5599,-0.5206,-0.4929,-0.465,-0.4646,-0.4648,-0.4536,-0.4592,-0.4536,-0.4594,-0.4536,-0.4534,-0.4423,-0.4424,-0.4367,-0.4313,-0.4313,-0.4313,-0.4369,-0.4369,-0.4369,-0.4369,-0.4419,-0.4534,-0.5012,-0.5511,-0.6042,-0.6089,-0.6038,-0.6032,-0.6063,-0.6093,-0.6119,-0.6318,-0.6531,-0.6746,-0.7015,-0.7242,-0.7455,-0.763,-0.7743,-0.8017,-0.8381,-0.8551,-0.8805,-0.9073,-0.9393,-0.9716,-1.014,-1.0574,-1.1079,-1.1306,-1.1593,-1.2166,-1.2536,-1.2807,-1.3169,-1.3622,-1.3931,-1.4244,-1.4621,-1.5003,-1.5527,-1.6109,-1.6527,-0.4983,-0.4929,-0.4815,-0.4758,-0.4702,-0.4534,-0.448,-0.448,-0.448,-0.4424,-0.448,-0.448,-0.4424,-0.448,-0.4424,-0.448,-0.4424,-0.4424,-0.448,-0.4536,-0.4758,-0.4983,-0.4985,-0.4985,-0.4985,-0.5041,-0.5096,-0.4985,-0.4983,-0.5096,-0.5041,-0.4983,-0.5096,-0.5039,-0.4983,-0.5039,-0.4983,-0.4983,-0.4927,-0.4871,-0.4815,-0.4704,-0.4594,-0.4594,-0.4536,-0.448,-0.448,-0.448,-0.4592,-0.4929,-0.4871,-0.4702,-0.4594,-0.448,-0.4424,-0.4424,-0.4424,-0.448,-0.4424,-0.4258,-0.4148,-0.4092,-0.3923,-0.3866,-0.3811,-0.3867,-0.3811,-0.3811,-0.3811,-0.3811,-0.3811,-0.3811,-0.3923,-0.4147,-0.4424,-0.4758,-0.4983,-0.4983,-0.5083,-0.5507,-0.5609,-0.57,-0.5959,-0.6112,-0.6224,-0.6391,-0.6496,-0.6657,-0.6909,-0.7133,-0.7331,-0.765,-0.7956,-0.806,-0.8278,-0.8497,-0.8821,-0.9084,-0.9452,-0.9873,-1.0452,-1.1006,-1.1406,-1.1875,-1.2048,-1.2283,-1.2602,-1.3057,-1.3241,-1.3442,-1.381,-1.4256,-1.4604,-1.5112,-1.5486,-0.448,-0.448,-0.4369,-0.4313,-0.4257,-0.4201,-0.4145,-0.4147,-0.4145,-0.4032,-0.392,-0.392,-0.3864,-0.3755,-0.3754,-0.3755,-0.3754,-0.3755,-0.3698,-0.3755,-0.3754,-0.4033,-0.4369,-0.448,-0.448,-0.448,-0.448,-0.448,-0.4536,-0.448,-0.448,-0.4536,-0.448,-0.448,-0.4536,-0.448,-0.448,-0.448,-0.437,-0.4314,-0.4314,-0.4201,-0.4089,-0.4089,-0.3977,-0.3866,-0.3755,-0.3699,-0.3867,-0.4203,-0.4314,-0.4258,-0.4147,-0.3977,-0.3921,-0.392,-0.381,-0.3699,-0.3699,-0.3533,-0.3477,-0.3421,-0.3309,-0.3254,-0.3253,-0.3253,-0.3197,-0.3253,-0.3253,-0.3197,-0.3253,-0.3253,-0.3309,-0.3421,-0.3645,-0.3977,-0.4424,-0.4536,-0.4646,-0.4927,-0.5039,-0.5093,-0.5543,-0.5543,-0.5712,-0.5817,-0.5913,-0.6139,-0.6475,-0.6715,-0.6879,-0.7104,-0.7326,-0.7465,-0.7671,-0.7892,-0.8164,-0.8443,-0.8907,-0.9309,-0.983,-1.0466,-1.0854,-1.1239,-1.1448,-1.1725,-1.2027,-1.239,-1.2706,-1.297,-1.3232,-1.3541,-1.3926,-1.4219,-1.4582,-0.4367,-0.4311,-0.3979,-0.3868,-0.3813,-0.3643,-0.3475,-0.3531,-0.3475,-0.3363,-0.3193,-0.3081,-0.3027,-0.2693,-0.2917,-0.275,-0.2806,-0.2918,-0.2806,-0.2862,-0.2917,-0.3309,-0.4035,-0.4089,-0.4089,-0.4145,-0.4257,-0.4201,-0.4089,-0.4201,-0.4257,-0.4145,-0.4145,-0.4257,-0.4095,-0.4156,-0.4268,-0.4111,-0.3905,-0.3798,-0.3741,-0.3628,-0.3516,-0.3516,-0.3286,-0.3108,-0.2933,-0.2816,-0.3095,-0.3813,-0.3868,-0.3701,-0.3475,-0.3194,-0.3138,-0.3139,-0.2973,-0.2862,-0.275,-0.2862,-0.275,-0.2806,-0.275,-0.2693,-0.275,-0.2806,-0.2806,-0.2806,-0.2693,-0.275,-0.275,-0.275,-0.2806,-0.2862,-0.2806,-0.3253,-0.3977,-0.4311,-0.4369,-0.4424,-0.4424,-0.4424,-0.448,-0.4536,-0.4702,-0.5264,-0.5318,-0.5485,-0.5766,-0.6044,-0.6156,-0.6267,-0.6548,-0.6826,-0.7043,-0.7321,-0.7595,-0.787,-0.8416,-0.8825,-0.9187,-0.9743,-1.0168,-1.0491,-1.091,-1.115,-1.137,-1.1719,-1.2103,-1.2393,-1.2602,-1.2962,-1.3286,-1.3513,-1.3863,-0.3417,-0.3361,-0.3086,-0.2974,-0.2975,-0.2918,-0.2917,-0.2917,-0.2918,-0.2862,-0.2806,-0.2805,-0.2748,-0.2637,-0.2637,-0.2693,-0.2637,-0.2637,-0.2693,-0.2693,-0.2693,-0.275,-0.3085,-0.3141,-0.3141,-0.3141,-0.3085,-0.3085,-0.3141,-0.3253,-0.3086,-0.3141,-0.3259,-0.3086,-0.3148,-0.3242,-0.309,-0.3095,-0.3065,-0.3137,-0.3136,-0.3078,-0.302,-0.2963,-0.2905,-0.2832,-0.2695,-0.269,-0.2787,-0.2929,-0.2975,-0.2979,-0.2919,-0.2861,-0.2805,-0.2748,-0.2692,-0.2637,-0.2693,-0.2637,-0.2693,-0.2637,-0.2637,-0.2693,-0.2693,-0.2637,-0.2693,-0.2693,-0.2693,-0.2637,-0.2637,-0.2637,-0.2637,-0.2581,-0.2637,-0.275,-0.3029,-0.3306,-0.353,-0.3755,-0.3979,-0.4203,-0.4424,-0.4367,-0.4479,-0.4646,-0.4704,-0.476,-0.5039,-0.5373,-0.5485,-0.5599,-0.5822,-0.6156,-0.6434,-0.6715,-0.7051,-0.7326,-0.7765,-0.8202,-0.858,-0.9089,-0.9489,-0.9965,-1.0452,-1.0634,-1.0743,-1.1116,-1.1528,-1.1733,-1.1963,-1.2336,-1.2654,-1.2882,-1.3145,-0.2917,-0.2915,-0.275,-0.2693,-0.2693,-0.2693,-0.2693,-0.2693,-0.2693,-0.2637,-0.2468,-0.2468,-0.2412,-0.23,-0.23,-0.23,-0.23,-0.23,-0.2244,-0.2244,-0.2244,-0.2244,-0.23,-0.2356,-0.2412,-0.2637,-0.2693,-0.2693,-0.2693,-0.2693,-0.275,-0.2697,-0.2657,-0.2784,-0.2674,-0.271,-0.2789,-0.2793,-0.2752,-0.2824,-0.2824,-0.2824,-0.2708,-0.2591,-0.2531,-0.252,-0.2329,-0.2327,-0.2316,-0.2356,-0.2281,-0.2431,-0.2641,-0.2581,-0.2468,-0.2468,-0.23,-0.23,-0.2244,-0.23,-0.2244,-0.23,-0.23,-0.23,-0.23,-0.23,-0.23,-0.23,-0.2244,-0.23,-0.2244,-0.2244,-0.23,-0.2244,-0.2244,-0.23,-0.2356,-0.2635,-0.2971,-0.3141,-0.331,-0.3421,-0.3587,-0.3866,-0.3977,-0.4033,-0.4258,-0.4314,-0.4592,-0.4927,-0.4927,-0.5039,-0.5206,-0.5487,-0.5822,-0.6158,-0.6497,-0.6773,-0.7046,-0.7432,-0.7778,-0.8277,-0.8851,-0.9311,-0.981,-1.0046,-1.0209,-1.0584,-1.0903,-1.1105,-1.1358,-1.1705,-1.1978,-1.2203,-1.2582,-0.2637,-0.2637,-0.2581,-0.2581,-0.2581,-0.2525,-0.2524,-0.2525,-0.2581,-0.2356,-0.2188,-0.2132,-0.2019,-0.1851,-0.1851,-0.1795,-0.1795,-0.1851,-0.1907,-0.1907,-0.1907,-0.1907,-0.1907,-0.1963,-0.2075,-0.2525,-0.2524,-0.2524,-0.2524,-0.2582,-0.242,-0.254,-0.2567,-0.2473,-0.2546,-0.2637,-0.26,-0.2542,-0.2556,-0.2621,-0.2619,-0.2619,-0.2501,-0.2325,-0.2265,-0.22,-0.2014,-0.1892,-0.183,-0.1826,-0.1745,-0.1951,-0.2213,-0.2303,-0.2132,-0.2132,-0.1963,-0.1851,-0.1795,-0.1739,-0.1739,-0.1683,-0.1683,-0.1683,-0.1683,-0.1683,-0.1683,-0.1683,-0.1683,-0.1683,-0.1683,-0.1683,-0.1683,-0.1739,-0.1739,-0.1739,-0.1907,-0.2244,-0.2524,-0.2637,-0.2862,-0.2973,-0.2973,-0.3139,-0.3251,-0.3419,-0.3701,-0.3924,-0.4203,-0.4369,-0.4369,-0.4536,-0.476,-0.4927,-0.5262,-0.5652,-0.5991,-0.6214,-0.6434,-0.6771,-0.699,-0.7324,-0.7878,-0.8595,-0.9071,-0.935,-0.9625,-0.9945,-1.026,-1.0499,-1.0778,-1.1093,-1.1367,-1.1595,-1.195,-0.23,-0.2244,-0.2019,-0.1963,-0.1963,-0.1963,-0.1963,-0.1963,-0.1963,-0.1907,-0.1851,-0.1851,-0.1795,-0.1739,-0.1795,-0.1795,-0.1739,-0.1683,-0.1739,-0.1739,-0.1739,-0.1739,-0.1683,-0.1683,-0.1851,-0.1907,-0.1963,-0.1963,-0.2019,-0.1964,-0.2037,-0.1999,-0.2014,-0.2029,-0.2117,-0.2025,-0.2164,-0.2166,-0.2182,-0.2134,-0.2195,-0.2134,-0.2073,-0.1952,-0.195,-0.1942,-0.1807,-0.1622,-0.1494,-0.1475,-0.1234,-0.1172,-0.1337,-0.1654,-0.1804,-0.1802,-0.1744,-0.1632,-0.1406,-0.1402,-0.129,-0.1121,-0.1121,-0.1065,-0.1065,-0.1067,-0.1126,-0.1127,-0.1126,-0.1068,-0.1065,-0.1127,-0.118,-0.1292,-0.1407,-0.1463,-0.1688,-0.1859,-0.203,-0.2205,-0.2424,-0.2637,-0.258,-0.2636,-0.2805,-0.2971,-0.3085,-0.3309,-0.3475,-0.3698,-0.3811,-0.4091,-0.437,-0.448,-0.4648,-0.515,-0.5541,-0.5654,-0.5877,-0.6214,-0.6381,-0.6439,-0.6882,-0.7657,-0.8318,-0.8699,-0.8978,-0.9316,-0.9588,-0.9853,-1.0167,-1.0479,-1.0733,-1.1027,-1.1331,-0.2019,-0.1963,-0.1851,-0.1795,-0.1795,-0.1795,-0.1795,-0.1795,-0.1627,-0.157,-0.1514,-0.1402,-0.1346,-0.1346,-0.1346,-0.1346,-0.1346,-0.1346,-0.1346,-0.1346,-0.1346,-0.1346,-0.1346,-0.1346,-0.1346,-0.1346,-0.1346,-0.1515,-0.1797,-0.1812,-0.177,-0.1786,-0.1809,-0.1836,-0.1913,-0.1939,-0.1952,-0.1958,-0.1846,-0.173,-0.173,-0.1606,-0.1483,-0.1483,-0.1482,-0.1476,-0.1409,-0.1344,-0.1217,-0.1148,-0.1018,-0.0895,-0.0948,-0.1111,-0.1324,-0.1322,-0.1371,-0.1307,-0.1133,-0.1072,-0.1065,-0.0953,-0.0898,-0.0897,-0.09,-0.0904,-0.0855,-0.0861,-0.0863,-0.0863,-0.0922,-0.0862,-0.0978,-0.1036,-0.1092,-0.1149,-0.1265,-0.1322,-0.1551,-0.1774,-0.1985,-0.2143,-0.2188,-0.23,-0.2412,-0.2524,-0.2584,-0.2755,-0.287,-0.3042,-0.3275,-0.3595,-0.3876,-0.4091,-0.4203,-0.4592,-0.4983,-0.5094,-0.5318,-0.5656,-0.5824,-0.588,-0.6216,-0.6882,-0.7435,-0.7873,-0.8322,-0.8598,-0.893,-0.9203,-0.9409,-0.9677,-1.0131,-1.0445,-1.0728,-0.1683,-0.1627,-0.1627,-0.1627,-0.1627,-0.1627,-0.1627,-0.157,-0.1346,-0.1234,-0.1177,-0.1009,-0.0897,-0.0897,-0.0897,-0.0897,-0.0897,-0.0897,-0.0953,-0.0953,-0.0953,-0.0897,-0.0897,-0.0897,-0.0953,-0.101,-0.0959,-0.1127,-0.1472,-0.1541,-0.1556,-0.152,-0.1614,-0.1694,-0.1701,-0.1655,-0.179,-0.173,-0.1544,-0.142,-0.1359,-0.1173,-0.0988,-0.0988,-0.0988,-0.105,-0.1048,-0.0924,-0.0924,-0.0859,-0.0793,-0.0667,-0.0726,-0.0719,-0.0714,-0.0712,-0.0818,-0.0869,-0.0806,-0.0802,-0.074,-0.0627,-0.0681,-0.068,-0.0682,-0.0633,-0.0696,-0.0705,-0.0706,-0.0646,-0.0586,-0.0706,-0.0706,-0.0823,-0.0822,-0.0824,-0.0939,-0.0996,-0.1111,-0.1335,-0.1489,-0.1712,-0.1885,-0.2056,-0.2178,-0.2178,-0.2295,-0.2408,-0.2582,-0.2631,-0.2799,-0.3056,-0.3324,-0.3593,-0.3813,-0.4035,-0.437,-0.4538,-0.476,-0.5039,-0.5208,-0.532,-0.5768,-0.6112,-0.6376,-0.6874,-0.7376,-0.7878,-0.8211,-0.8484,-0.8647,-0.8978,-0.9475,-0.9809,-1.0002,-0.1234,-0.1009,-0.1009,-0.1009,-0.1009,-0.1065,-0.1009,-0.1009,-0.1009,-0.0953,-0.0953,-0.0897,-0.0841,-0.0841,-0.0841,-0.0841,-0.0841,-0.0785,-0.0785,-0.0785,-0.0785,-0.0785,-0.0841,-0.0897,-0.0787,-0.0789,-0.0797,-0.0917,-0.1035,-0.1038,-0.1052,-0.1074,-0.1142,-0.1093,-0.1228,-0.1233,-0.1112,-0.1112,-0.105,-0.105,-0.105,-0.0988,-0.0926,-0.0926,-0.0926,-0.0926,-0.0865,-0.0679,-0.0556,-0.0556,-0.0308,-0.0123,-0.0123,-0.0123,-0.0123,-0.0244,-0.0539,-0.0764,-0.0528,-0.0467,-0.0408,0.0,0.0,0.0,0.0,0.0,0.0,-0.0118,0.0,0.0,0.0,0.0,0.0,-0.0355,-0.0475,-0.0592,-0.071,-0.0656,-0.0775,-0.0892,-0.1118,-0.1468,-0.1703,-0.1819,-0.1934,-0.1934,-0.1991,-0.2163,-0.2275,-0.2381,-0.2433,-0.27,-0.297,-0.3244,-0.3356,-0.3574,-0.3795,-0.4011,-0.4234,-0.4513,-0.4754,-0.4932,-0.506,-0.5398,-0.5613,-0.6047,-0.671,-0.721,-0.7546,-0.782,-0.8094,-0.8478,-0.892,-0.9144,-0.9313,-0.0841,-0.0897,-0.0897,-0.0897,-0.0897,-0.0897,-0.0897,-0.0841,-0.0729,-0.0617,-0.0561,-0.0448,-0.0392,0.0,-0.0392,-0.0392,0.0,0.0,0.0,0.0,0.0,0.0,-0.0336,-0.0393,-0.0394,0.0,0.0,-0.0349,-0.0469,-0.0709,-0.0895,-0.0843,-0.0913,-0.0981,-0.0926,-0.0988,-0.0988,-0.0988,-0.0803,-0.0618,-0.0494,0.0,0.0,0.0,0.0,0.0,0.0,-0.0309,-0.0247,-0.0185,-0.0062,0.0,0.0,0.0,0.0,0.0,-0.0244,-0.0301,-0.0179,0.0,0.0,0.0,0.0,0.0,0.0,0.0,0.0,0.0,0.0,0.0,0.0,0.0,0.0,0.0,0.0,0.0,0.0,0.0,-0.0364,-0.0545,-0.0725,-0.1024,-0.1258,-0.1309,-0.1423,-0.1598,-0.1655,-0.1828,-0.2,-0.2228,-0.2341,-0.2453,-0.2673,-0.2895,-0.2956,-0.3129,-0.3301,-0.3527,-0.3819,-0.4104,-0.4332,-0.4554,-0.4688,-0.4779,-0.5008,-0.5493,-0.6123,-0.6546,-0.6882,-0.7213,-0.7543,-0.7928,-0.826,-0.8429,-0.8706,-0.0448,-0.0673,-0.0673,-0.0673,-0.0673,-0.0673,-0.0673,-0.0617,-0.0392,-0.028,-0.0224,0.0,0.0,0.0,0.0,0.0,0.0,0.0,0.0,0.0,0.0,0.0,0.0,0.0,0.0,0.0,0.0,0.0,0.0,-0.0363,-0.0606,-0.0668,-0.0613,-0.0678,-0.0741,-0.0679,-0.0679,-0.0618,-0.0432,-0.0247,0.0,0.0,0.0,0.0,0.0,0.0,0.0,0.0,0.0,0.0,0.0,0.0,0.0,0.0,0.0,0.0,0.0,0.0,0.0,0.0,0.0,0.0,0.0,0.0,0.0,0.0,0.0,0.0,0.0,0.0,0.0,0.0,0.0,0.0,0.0,0.0,0.0,0.0,0.0,-0.0245,-0.0367,-0.0491,-0.061,-0.0663,-0.0839,-0.1195,-0.1371,-0.1489,-0.1725,-0.1961,-0.2136,-0.2193,-0.2293,-0.2519,-0.2638,-0.2762,-0.2885,-0.3068,-0.3364,-0.3592,-0.3871,-0.4094,-0.419,-0.4348,-0.4449,-0.484,-0.5449,-0.5836,-0.6272,-0.6659,-0.7046,-0.7324,-0.7601,-0.7771,-0.8045,-0.0056,-0.0056,0.0,0.0,0.0,0.0,0.0,0.0,0.0,0.0,0.0,0.0,0.0,0.0,0.0,0.0,0.0,0.0,0.0,0.0,0.0,0.0,0.0,0.0,0.0,0.0,0.0,0.0,0.0,0.0,0.0,0.0,0.0,0.0,0.0,0.0,0.0,0.0,0.0,0.0,0.0,0.0,0.0,0.0,0.0,0.0,0.0,0.0,0.0,0.0,0.0,0.0,0.0,0.0,0.0,0.0,0.0,0.0,0.0,0.0,0.0,0.0,0.0,0.0,0.0,0.0,0.0,0.0,0.0,0.0,0.0,0.0,0.0,0.0,0.0,0.0,0.0,0.0,0.0,0.0,0.0,0.0,0.0,0.0,0.0,-0.091,-0.1154,-0.1274,-0.1395,-0.1636,-0.181,-0.1923,-0.1903,-0.2071,-0.2304,-0.243,-0.2566,-0.2748,-0.2984,-0.3151,-0.3373,-0.3545,-0.3739,-0.3889,-0.4052,-0.4397,-0.4671,-0.5121,-0.5564,-0.6074,-0.6507,-0.6723,-0.7089,-0.7396,-0.7668,0.0,0.0,0.0,0.0,0.0,0.0,0.0,0.0,0.0,0.0,0.0,0.0,0.0,0.0,0.0,0.0,0.0,0.0,0.0,0.0,0.0,0.0,0.0,0.0,0.0,0.0,0.0,0.0,0.0,0.0,0.0,0.0,0.0,0.0,0.0,0.0,0.0,0.0,0.0,0.0,0.0,0.0,0.0,0.0,0.0,0.0,0.0,0.0,0.0,0.0,0.0,0.0309,0.0371,0.0494,0.0556,0.0556,0.0556,0.0556,0.0494,0.0247,0.0062,0.0309,0.0,0.0494,0.0371,0.0309,0.0185,0.0,0.0,0.0,0.0,0.0,0.0,0.0,0.0,0.0,0.0,0.0,0.0,0.0,0.0,0.0,0.0,0.0,0.0,-0.0616,-0.0802,-0.105,-0.117,-0.1352,-0.1467,-0.1585,-0.1631,-0.181,-0.205,-0.2115,-0.2241,-0.2419,-0.2595,-0.2832,-0.3007,-0.3091,-0.3339,-0.349,-0.3638,-0.3867,-0.4135,-0.443,-0.4906,-0.5567,-0.591,-0.6102,-0.6509,-0.6995,-0.7267,0.0,0.0,0.0,0.0,0.0,0.0,0.0,0.0,0.0,0.0,0.0,0.0,0.0,0.0,0.0,0.0,0.0,0.0,0.0,0.0,0.0,0.0,0.0,0.0,0.0,0.0,0.0,0.0,0.0,0.0,0.0,0.0,0.0,0.0,0.0,0.0,0.0,0.0,0.0,0.0,0.0,0.0,0.0,0.0,0.0,0.0,0.0,0.0,0.0,0.0,0.0556,0.0618,0.0741,0.0865,0.0988,0.0988,0.0988,0.0988,0.0865,0.0679,0.0371,0.0618,0.0803,0.0803,0.0741,0.0618,0.0556,0.0,0.0,0.0309,0.0247,0.0,0.0,0.0,0.0,0.0,0.0,0.0,0.0,0.0,0.0,0.0,0.0,0.0,0.0,0.0,-0.0618,-0.0741,-0.0864,-0.0986,-0.1171,-0.1292,-0.1352,-0.1538,-0.1789,-0.1842,-0.1895,-0.2141,-0.2323,-0.2512,-0.2701,-0.2776,-0.2959,-0.3173,-0.3332,-0.3379,-0.3545,-0.3884,-0.4444,-0.5169,-0.5449,-0.5776,-0.6043,-0.6498,-0.6757,0.0,0.0,0.0,0.0,0.0,0.0,0.0,0.0,0.0,0.0,0.0,0.0,0.0,0.0,0.0,0.0,0.0,0.0,0.0,0.0,0.0,0.0,0.0,0.0,0.0,0.0,0.0,0.0,0.0,0.0,0.0,0.0,0.0,0.0,0.0,0.0,0.0,0.0,0.0,0.0,0.0,0.0,0.0,0.0,0.0,0.0,0.0432,0.0494,0.0618,0.0803,0.0926,0.0988,0.105,0.1112,0.1112,0.1112,0.1112,0.105,0.0988,0.0988,0.0988,0.0988,0.1112,0.1112,0.0988,0.0988,0.0926,0.0741,0.0803,0.0865,0.0926,0.0926,0.0679,0.0618,0.0494,0.0,0.0,0.0,0.0,0.0,0.0,0.0,0.0,0.0,0.0,0.0,0.0,0.0,0.0,-0.0618,-0.0803,-0.0926,-0.0988,-0.1173,-0.142,-0.1483,-0.1603,-0.1853,-0.2038,-0.216,-0.2283,-0.2406,-0.265,-0.2831,-0.2945,-0.2988,-0.3124,-0.3321,-0.3884,-0.4548,-0.5208,-0.5536,-0.5758,-0.597,-0.6221,0.0617,0.0561,0.0336,0.028,0.0224,0.0,0.0,0.0,0.0,0.0,0.0,0.0,0.0,0.0,0.0,0.0,0.0,0.0,0.0,0.0,0.0,0.0,0.0,0.0,0.0,0.0,0.0,0.0,0.0,0.0,0.0,0.0,0.0,0.0,0.0,0.0,0.0,0.0,0.0,0.0,0.0309,0.0371,0.0432,0.0618,0.0618,0.0679,0.0803,0.0803,0.0926,0.1112,0.1235,0.1359,0.1359,0.142,0.1606,0.1668,0.1668,0.1668,0.1668,0.1668,0.1544,0.1482,0.1483,0.1483,0.1359,0.1297,0.1235,0.1112,0.1112,0.1112,0.0988,0.0988,0.0865,0.0865,0.0803,0.0803,0.0,0.0,0.0,0.0,0.0,0.0185,0.0,0.0,0.0,0.0,0.0,0.0,0.0,0.0,-0.0309,-0.0556,-0.0679,-0.0865,-0.0988,-0.1112,-0.1235,-0.142,-0.1606,-0.1729,-0.1853,-0.2037,-0.216,-0.2343,-0.2528,-0.2652,-0.2837,-0.3021,-0.332,-0.3837,-0.4454,-0.502,-0.5197,-0.5396,-0.5572,0.0897,0.0841,0.0673,0.0561,0.0504,0.0168,0.0,0.0,0.0,0.0,0.0,0.0,0.0,0.0,0.0,0.0,0.0,0.0,0.0,0.0,0.0,0.0,0.0,0.0,0.0,0.0,0.0124,0.0,0.0,0.0,0.0,0.0,0.0309,0.0,0.0,0.0,0.0,0.0,0.0432,0.0494,0.0618,0.0679,0.0803,0.0926,0.0988,0.105,0.1173,0.1173,0.1235,0.1359,0.1544,0.1667,0.173,0.1853,0.2038,0.2038,0.2161,0.2161,0.216,0.2346,0.2222,0.2099,0.2099,0.1915,0.173,0.1668,0.1606,0.1482,0.1359,0.1359,0.1359,0.1297,0.1235,0.1235,0.1173,0.1173,0.105,0.0988,0.0926,0.0741,0.0618,0.0432,0.0247,0.0,0.0,0.0,0.0,0.0,0.0,0.0,0.0,0.0,0.0,-0.0556,-0.0679,-0.0803,-0.0865,-0.0988,-0.1173,-0.1297,-0.142,-0.1606,-0.1729,-0.1853,-0.2099,-0.2345,-0.2529,-0.2773,-0.3015,-0.3317,-0.3727,-0.4137,-0.4557,-0.4879,-0.5125,0.0953,0.0897,0.0897,0.0897,0.0785,0.0337,0.0,0.0,0.0,0.0,0.0,0.0,0.0,0.0,0.0,0.0,0.0,0.0,0.0,0.0,0.0,0.0,0.0,0.0,0.0,0.0,0.0309,0.0494,0.0556,0.0679,0.0865,0.0926,0.0803,0.0865,0.0803,0.0741,0.0741,0.0803,0.0803,0.0865,0.0988,0.105,0.1112,0.1173,0.1235,0.1297,0.142,0.1544,0.1668,0.1853,0.1976,0.2038,0.2038,0.2038,0.2038,0.2161,0.2406,0.2467,0.2529,0.2776,0.2838,0.2653,0.2346,0.2161,0.2038,0.2099,0.1976,0.1914,0.1853,0.1915,0.1915,0.1853,0.1791,0.1668,0.1544,0.142,0.1235,0.1112,0.1112,0.0988,0.0926,0.0803,0.0618,0.0494,0.0432,0.0,0.0,0.0,0.0,0.0,0.0,0.0,0.0,0.0,0.0,0.0,-0.0556,-0.0618,-0.0803,-0.0988,-0.1112,-0.1235,-0.1359,-0.1544,-0.1791,-0.2038,-0.2283,-0.2468,-0.259,-0.2894,-0.3196,-0.3563,-0.4039,-0.4474,-0.4754,0.1514,0.1514,0.129,0.1177,0.1124,0.0795,0.0628,0.0628,0.0628,0.0634,0.0702,0.0702,0.0649,0.0718,0.0,0.0726,0.0671,0.0,0.0,0.0679,0.0618,0.0679,0.0679,0.0679,0.0679,0.0679,0.0803,0.0865,0.0865,0.105,0.105,0.0988,0.1112,0.1173,0.1235,0.1235,0.1173,0.1112,0.1112,0.1173,0.1297,0.1359,0.142,0.1544,0.1606,0.173,0.1791,0.1853,0.1976,0.2038,0.2283,0.2344,0.2344,0.2591,0.2715,0.2716,0.2838,0.2837,0.2899,0.296,0.3022,0.3085,0.2838,0.2777,0.2654,0.2531,0.2407,0.2346,0.2223,0.2223,0.2223,0.2161,0.2099,0.2038,0.1914,0.1791,0.1605,0.1544,0.1482,0.1359,0.1297,0.1112,0.0926,0.0865,0.0803,0.0679,0.0556,0.0432,0.0247,0.0124,0.0,0.0,0.0,0.0,0.0,0.0,0.0,-0.0247,-0.0494,-0.0679,-0.0741,-0.0865,-0.105,-0.1297,-0.1483,-0.1791,-0.2038,-0.2222,-0.2284,-0.2468,-0.2773,-0.3144,-0.3517,-0.3947,-0.4316,0.1795,0.1795,0.157,0.152,0.1476,0.1384,0.1281,0.1228,0.1048,0.0996,0.101,0.1011,0.102,0.0973,0.0975,0.0979,0.0986,0.0925,0.0926,0.0926,0.105,0.0988,0.0988,0.105,0.0988,0.105,0.1112,0.1235,0.1235,0.1359,0.142,0.142,0.1359,0.1483,0.1668,0.1668,0.1606,0.1483,0.142,0.1544,0.1606,0.1668,0.1853,0.1977,0.2038,0.21,0.216,0.2222,0.2222,0.2346,0.2652,0.2714,0.2714,0.2899,0.296,0.2961,0.3146,0.3146,0.3208,0.3331,0.3331,0.3331,0.3393,0.3332,0.3146,0.2961,0.2776,0.2652,0.253,0.2407,0.2407,0.2407,0.2407,0.2407,0.2346,0.2222,0.2099,0.2038,0.1853,0.173,0.1544,0.142,0.1297,0.1236,0.1112,0.0926,0.0803,0.0741,0.0494,0.0247,0.0,0.0,0.0,0.0,0.0,0.0,0.0,0.0,-0.0185,-0.0309,0.0,-0.0556,-0.0803,-0.0988,-0.1173,-0.1482,-0.1729,-0.1791,-0.1914,-0.2099,-0.2345,-0.2653,-0.2961,-0.3269,-0.3639,0.1795,0.1795,0.1797,0.176,0.1846,0.1817,0.1844,0.1807,0.1309,0.1073,0.1147,0.1088,0.1157,0.1229,0.1231,0.1232,0.1235,0.1235,0.1235,0.1112,0.1235,0.1235,0.1235,0.1112,0.1297,0.1235,0.1359,0.1544,0.1606,0.173,0.1853,0.1977,0.1915,0.1915,0.1915,0.1976,0.1975,0.1975,0.1976,0.2099,0.1976,0.1976,0.2038,0.2099,0.2161,0.2223,0.2467,0.259,0.2714,0.2899,0.3022,0.3022,0.3146,0.3146,0.3146,0.3269,0.3454,0.3577,0.3702,0.3825,0.3948,0.4011,0.4011,0.4011,0.3825,0.3331,0.3085,0.296,0.2838,0.2776,0.2715,0.2715,0.2715,0.2715,0.2653,0.253,0.253,0.2406,0.2284,0.2102,0.1988,0.1801,0.1619,0.1559,0.1571,0.1247,0.1059,0.1059,0.0872,0.056,0.0,0.0,0.0,0.0,0.0,0.0,0.0,0.0,0.0,0.0,0.0,0.0,-0.0556,-0.0741,-0.0926,-0.1112,-0.1359,-0.1421,-0.1544,-0.1853,-0.2038,-0.216,-0.2406,-0.2715,-0.3085,0.1795,0.1797,0.182,0.1847,0.1877,0.1907,0.1924,0.1933,0.1828,0.1773,0.178,0.1781,0.1721,0.1666,0.1668,0.1668,0.173,0.1606,0.173,0.173,0.1668,0.1606,0.173,0.1668,0.1668,0.1791,0.1853,0.1915,0.1977,0.2038,0.2038,0.2038,0.21,0.21,0.21,0.2222,0.2345,0.2406,0.253,0.2408,0.2161,0.2283,0.2406,0.2468,0.253,0.2715,0.2837,0.2899,0.2899,0.3022,0.3269,0.3455,0.3702,0.3702,0.3702,0.3764,0.401,0.4071,0.4195,0.4379,0.4502,0.4626,0.4627,0.4627,0.4381,0.3764,0.3393,0.3331,0.3269,0.3145,0.3022,0.3022,0.3022,0.3022,0.29,0.29,0.2839,0.2719,0.2596,0.2485,0.2436,0.2257,0.2011,0.1895,0.191,0.1788,0.1533,0.1469,0.1339,0.1081,0.0753,0.0,0.0,0.0,0.0,0.0,0.0,0.0,0.0,0.0,0.0,0.0,-0.0312,-0.0495,-0.0618,-0.0807,-0.0996,-0.1051,-0.1236,-0.1549,-0.1668,-0.1729,-0.1914,-0.2223,-0.2592,0.2197,0.2216,0.2269,0.2303,0.2326,0.2361,0.2377,0.2381,0.246,0.247,0.2346,0.2161,0.2038,0.2038,0.2038,0.2038,0.2038,0.1977,0.1977,0.1977,0.2038,0.1977,0.2038,0.2038,0.1977,0.2038,0.2161,0.2284,0.2346,0.2469,0.2469,0.2407,0.2407,0.2408,0.2408,0.2653,0.2714,0.2714,0.296,0.2776,0.2407,0.2591,0.2714,0.2837,0.2899,0.3085,0.3208,0.3208,0.3331,0.3454,0.3764,0.4071,0.4256,0.4381,0.4381,0.4381,0.4502,0.4624,0.4685,0.481,0.4933,0.4995,0.4935,0.4812,0.4812,0.4256,0.407,0.4009,0.3884,0.3761,0.3577,0.3517,0.3517,0.3517,0.3337,0.3154,0.3058,0.296,0.284,0.2852,0.2799,0.2738,0.2552,0.2362,0.2312,0.2248,0.1998,0.1809,0.1744,0.1687,0.1345,0.1079,0.0947,0.063,0.0,0.0,0.0,0.0,0.0,0.0,0.0,0.0,-0.0063,0.0,0.0,-0.0442,-0.0568,-0.0751,-0.0936,-0.1189,-0.1306,-0.1297,-0.1546,-0.1674,-0.1984,0.2731,0.2783,0.2858,0.2897,0.2907,0.2943,0.2958,0.2959,0.2961,0.2961,0.2901,0.2408,0.2161,0.2099,0.2162,0.2161,0.2161,0.2285,0.2224,0.2223,0.2223,0.2285,0.2285,0.2223,0.2223,0.2346,0.2468,0.2653,0.2838,0.29,0.2838,0.296,0.3022,0.296,0.3022,0.3085,0.3085,0.3085,0.3146,0.3146,0.3085,0.3085,0.3085,0.3085,0.3146,0.3269,0.3516,0.364,0.3764,0.401,0.4256,0.4502,0.4687,0.475,0.4812,0.481,0.4872,0.4933,0.4995,0.5118,0.5118,0.5118,0.4995,0.4996,0.5056,0.4996,0.4812,0.4627,0.4502,0.4319,0.4137,0.4027,0.4027,0.4033,0.3792,0.3555,0.3414,0.3262,0.3274,0.3223,0.3164,0.3167,0.2977,0.2848,0.2723,0.2592,0.2462,0.2334,0.2146,0.2096,0.1896,0.1693,0.1494,0.1103,0.071,0.0579,0.0513,0.0,0.0,0.0,0.0,0.0,0.0,0.0,0.0,0.0,0.0,-0.0446,-0.0635,-0.0887,-0.0947,-0.1006,-0.1192,-0.1319,-0.1376,0.2851,0.2868,0.2887,0.2914,0.3007,0.302,0.296,0.3022,0.3022,0.296,0.3023,0.2962,0.2777,0.2776,0.2776,0.2776,0.2653,0.2716,0.2776,0.2838,0.2654,0.2715,0.2715,0.2592,0.2776,0.2838,0.2838,0.296,0.3146,0.3085,0.3022,0.3085,0.3022,0.3022,0.3085,0.3208,0.3455,0.3517,0.364,0.3703,0.364,0.3579,0.3394,0.3455,0.364,0.3887,0.4132,0.4193,0.4439,0.4626,0.4749,0.4872,0.4995,0.5056,0.5058,0.5179,0.5239,0.5362,0.5423,0.5609,0.5671,0.5732,0.5671,0.5671,0.5736,0.5746,0.55,0.5255,0.5134,0.489,0.4715,0.4758,0.4773,0.4668,0.4556,0.4266,0.405,0.3936,0.3882,0.377,0.3656,0.3469,0.3285,0.3164,0.3119,0.3052,0.2983,0.2785,0.2584,0.2526,0.2463,0.2195,0.1993,0.1576,0.1102,0.0973,0.0906,0.0776,0.0582,0.0391,0.0,0.0,0.0,0.0,0.0,0.0,0.0,0.0,-0.0322,-0.0514,-0.0579,-0.0641,-0.0831,-0.1019,-0.1078]},{"header":{"parameterUnit":"m.s-1","parameterCategory":1,"la1":31.0,"la2":29.5877,"lo1":-88.7671,"lo2":-86.6584,"dx":0.0162,"dy":0.0185,"nx":115,"ny":88,"refTime":"2022-11-04T06:00:00:Z","depth":0,"parameterNumber":3,"parameterNumberName":"V-component_of_WINDS"},"data":[0.0,0.0,0.0,0.0,0.0,0.0,0.0,0.0,0.0,0.0,0.0,0.0,0.0,0.0,0.0,0.0,0.0,0.0,0.0,0.0,0.0,0.0,0.0,0.0,0.0,0.0,0.0,0.0,0.0,0.0,0.0,0.0,0.0,0.0,0.0,0.0,0.0,0.0,0.0,0.0,0.0,0.0,0.0,0.0,0.0,0.0,0.0,0.0,0.0,0.0,0.0,0.0,0.0,0.0,0.0,0.0,0.0,0.0,0.0,0.0,0.0,0.0,0.0,0.0,0.0,0.0,0.0,0.0,0.0,0.0,0.0,0.0,0.0,0.0,0.0,0.0,0.0,0.0,0.0,0.0,0.0,0.0,0.0,0.0,0.0,0.0,0.0,0.0,0.0,0.0,0.0,0.0,0.0,0.0,0.0,0.0,0.0,0.0,0.0,0.0,0.0,0.0,0.0,0.0,0.0,0.0,0.0,0.0,0.0,0.0,0.0,0.0,0.0,0.0,0.0,0.0,0.0,0.0,0.0,0.0,0.0,0.0,0.0,0.0,0.0,0.0,0.0,0.0,0.0,0.0,0.0,0.0,0.0,0.0,0.0,0.0,0.0,0.0,0.0,0.0,0.0,0.0,0.0,0.0,0.0,0.0,0.0,0.0,0.0,0.0,0.0,0.0,0.0,0.0,0.0,0.0,0.0,0.0,0.0,0.0,0.0,0.0,0.0,0.0,0.0,0.0,0.0,0.0,0.0,0.0,0.0,0.0,0.0,0.0,0.0,0.0,0.0,0.0,0.0,0.0,0.0,0.0,0.0,0.0,0.0,0.0,0.0,0.0,0.0,0.0,0.0,0.0,0.0,0.0,0.0,0.0,0.0,0.0,0.0,0.0,0.0,0.0,0.0,0.0,0.0,0.0,0.0,0.0,0.0,0.0,0.0,0.0,0.0,0.0,0.0,0.0,0.0,0.0,0.0,0.0,0.0,0.0,0.0,0.0,0.0,0.0,0.0,0.0,0.0,0.0,0.0,0.0,0.0,0.0,0.0,0.0,0.0,0.0,0.0,0.0,0.0,0.0,0.0,0.0,0.0,0.0,0.0,0.0,0.0,0.0,0.0,0.0,0.0,0.0,0.0,0.0,0.0,0.0,0.0,0.0,0.0,0.0,0.0,0.0,0.0,0.0,0.0,0.0,0.0,0.0,0.0,0.0,0.0,0.0,0.0,0.0,0.0,0.0,0.0,0.0,0.0,0.0,0.0,0.0,0.0,0.0,0.0,0.0,0.0,0.0,0.0,0.0,0.0,0.0,0.0,0.0,0.0,0.0,0.0,0.0,0.0,0.0,0.0,0.0,0.0,0.0,0.0,0.0,0.0,0.0,0.0,0.0,0.0,0.0,0.0,0.0,0.0,0.0,0.0,0.0,0.0,0.0,0.0,0.0,0.0,0.0,0.0,0.0,0.0,0.0,0.0,0.0,0.0,0.0,0.0,0.0,0.0,0.0,0.0,0.0,0.0,0.0,0.0,0.0,0.0,0.0,0.0,0.0,0.0,0.0,0.0,0.0,0.0,0.0,0.0,0.0,0.0,0.0,0.0,0.0,0.0,0.0,0.0,0.0,0.0,0.0,0.0,0.0,0.0,0.0,0.0,0.0,0.0,0.0,0.0,0.0,0.0,0.0,0.0,0.0,0.0,0.0,0.0,0.0,0.0,0.0,0.0,0.0,0.0,0.0,0.0,0.0,0.0,0.0,0.0,0.0,0.0,0.0,0.0,0.0,0.0,0.0,0.0,0.0,0.0,0.0,0.0,0.0,0.0,0.0,0.0,0.0,0.0,0.0,0.0,0.0,0.0,0.0,0.0,0.0,0.0,0.0,0.0,0.0,0.0,0.0,0.0,0.0,0.0,0.0,0.0,0.0,0.0,0.0,0.0,0.0,0.0,0.0,0.0,0.0,0.0,0.0,0.0,0.0,0.0,0.0,0.0,0.0,0.0,0.0,0.0,0.0,0.0,0.0,0.0,0.0,0.0,0.0,0.0,0.0,0.0,0.0,0.0,0.0,0.0,0.0,0.0,0.0,0.0,0.0,0.0,0.0,0.0,0.0,0.0,0.0,0.0,0.0,0.0,0.0,0.0,0.0,0.0,0.0,0.0,0.0,0.0,0.0,0.0,0.0,0.0,0.0,0.0,0.0,0.0,0.0,0.0,0.0,0.0,0.0,0.0,0.0,0.0,0.0,0.0,0.0,0.0,0.0,0.0,0.0,0.0,0.0,0.0,0.0,0.0,0.0,0.0,0.0,0.0,0.0,0.0,0.0,0.0,0.0,0.0,0.0,0.0,0.0,0.0,0.0,0.0,0.0,0.0,0.0,0.0,0.0,0.0,0.0,0.0,0.0,0.0,0.0,0.0,0.0,0.0,0.0,0.0,0.0,0.0,0.0,0.0,0.0,0.0,0.0,0.0,0.0,0.0,0.0,0.0,0.0,0.0,0.0,0.0,0.0,0.0,0.0,0.0,0.0,0.0,0.0,0.0,0.0,0.0,0.0,0.0,0.0,0.0,0.0,0.0,0.0,0.0,0.0,0.0,0.0,0.0,0.0,0.0,0.0,0.0,0.0,0.0,0.0,0.0,0.0,0.0,0.0,0.0,0.0,0.0,0.0,0.0,0.0,0.0,0.0,0.0,0.0,0.0,0.0,0.0,0.0,0.0,0.0,0.0,0.0,0.0,0.0,0.0,0.0,0.0,0.0,0.0,0.0,0.0,0.0,0.0,0.0,0.0,0.0,0.0,0.0,0.0,0.0,0.0,0.0,0.0,0.0,0.0,0.0,0.0,0.0,0.0,0.0,0.0,0.0,0.0,0.0,0.0,0.0,0.0,0.0,0.0,0.0,0.0,0.0,0.0,0.0,0.0,0.0,0.0,0.0,0.0,0.0,0.0,0.0,0.0,0.0,0.0,0.0,0.0,0.0,0.0,0.0,0.0,0.0,0.0,0.0,0.0,0.0,0.0,0.0,0.0,0.0,0.0,0.0,0.0,0.0,0.0,0.0,0.0,0.0,0.0,0.0,0.0,0.0,0.0,0.0,0.0,0.0,0.0,0.0,0.0,0.0,0.0,0.0,0.0,0.0,0.0,0.0,0.0,0.0,0.0,0.0,0.0,0.0,0.0,0.0,0.0,0.0,0.0,0.0,0.0,0.0,0.0,0.0,0.0,0.0,0.0,0.0,0.0,0.0,0.0,0.0,0.0,0.0,0.0,0.0,0.0,0.0,0.0,0.0,0.0,0.0,0.0,0.0,0.0,0.0,0.0,0.0,0.0,0.0,0.0,0.0,0.0,0.0,0.0,0.0,0.0,0.0,0.0,0.0,0.0,0.0,0.0,0.0,0.0,0.0,0.0,0.0,0.0,0.0,0.0,0.0,0.0,0.0,0.0,0.0,0.0,0.0,0.0,0.0,0.0,0.0,0.0,0.0,0.0,0.0,0.0,0.0,0.0,0.0,0.0,0.0,0.0,0.0,0.0,0.0,0.0,0.0,0.0,0.0,0.0,0.0,0.0,0.0,0.0,0.0,0.0,0.0,0.0,0.0,0.0,0.0,0.0,0.0,0.0,0.0,0.0,0.0,0.0,0.0,0.0,0.0,0.0,0.0,0.0,0.0,0.0,0.0,0.0,0.0,0.0,0.0,0.0,0.0,0.0,0.0,0.0,0.0,0.0,0.0,0.0,0.0,0.0,0.0,0.0,0.0,0.0,0.0,0.0,0.0,0.0,0.0,0.0,0.0,0.0,0.0,0.0,0.0,0.0,0.0,0.0,0.0,0.0,0.0,0.0,0.0,0.0,0.0,0.0,0.0,0.0,0.0,0.0,0.0,0.0,0.0,0.0,0.0,0.0,0.0,0.0,0.0,0.0,0.0,0.0,0.0,0.0,0.0,0.0,0.0,0.0,0.0,0.0,0.0,0.0,0.0,0.0,0.0,0.0,0.0,0.0,0.0,0.0,0.0,0.0,0.0,0.0,0.0,0.0,0.0,0.0,0.0,0.0,0.0,0.0,0.0,0.0,0.0,0.0,0.0,0.0,0.0,0.0,0.0,0.0,0.0,0.0,0.0,0.0,0.0,0.0,0.0,0.0,0.0,0.0,0.0,0.0,0.0,0.0,0.0,0.0,0.0,0.0,0.0,0.0,0.0,0.0,0.0,0.0,0.0,0.0,0.0,0.0,0.0,0.0,0.0,0.0,0.0,0.0,0.0,0.0,0.0,2.3749,0.0,0.0,0.0,2.2395,0.0,0.0,0.0,0.0,0.0,0.0,0.0,0.0,0.0,0.0,0.0,0.0,0.0,0.0,0.0,0.0,0.0,0.0,0.0,0.0,0.0,0.0,0.0,0.0,0.0,0.0,0.0,0.0,0.0,0.0,0.0,0.0,0.0,0.0,0.0,0.0,0.0,0.0,0.0,0.0,0.0,0.0,0.0,0.0,0.0,0.0,0.0,0.0,0.0,0.0,0.0,0.0,0.0,0.0,0.0,0.0,0.0,0.0,0.0,0.0,0.0,0.0,0.0,0.0,0.0,0.0,0.0,0.0,0.0,0.0,0.0,0.0,0.0,0.0,0.0,0.0,0.0,0.0,0.0,0.0,0.0,0.0,0.0,0.0,0.0,0.0,0.0,0.0,0.0,0.0,0.0,0.0,0.0,0.0,0.0,0.0,0.0,0.0,0.0,0.0,0.0,0.0,0.0,0.0,0.0,0.0,0.0,0.0,0.0,0.0,2.3743,2.344,2.3155,2.2838,2.2475,0.0,0.0,0.0,0.0,0.0,0.0,0.0,0.0,0.0,0.0,0.0,0.0,0.0,0.0,0.0,0.0,0.0,0.0,0.0,0.0,0.0,0.0,0.0,0.0,0.0,0.0,0.0,0.0,0.0,0.0,0.0,0.0,0.0,0.0,0.0,0.0,0.0,0.0,0.0,0.0,0.0,0.0,0.0,0.0,0.0,0.0,0.0,0.0,0.0,0.0,0.0,0.0,0.0,0.0,0.0,0.0,0.0,0.0,0.0,0.0,0.0,0.0,0.0,0.0,0.0,0.0,0.0,0.0,0.0,0.0,0.0,0.0,0.0,0.0,0.0,0.0,0.0,0.0,0.0,0.0,0.0,0.0,0.0,0.0,0.0,0.0,0.0,0.0,0.0,0.0,0.0,0.0,0.0,0.0,0.0,0.0,0.0,0.0,0.0,0.0,0.0,0.0,0.0,0.0,0.0,0.0,0.0,0.0,0.0,0.0,0.0,0.0,2.3097,2.2845,2.2532,0.0,0.0,0.0,0.0,0.0,0.0,0.0,0.0,0.0,0.0,0.0,0.0,0.0,0.0,0.0,0.0,0.0,0.0,0.0,0.0,0.0,0.0,0.0,0.0,0.0,0.0,0.0,0.0,0.0,0.0,0.0,0.0,0.0,0.0,0.0,0.0,0.0,0.0,0.0,0.0,0.0,0.0,0.0,0.0,0.0,0.0,0.0,0.0,0.0,0.0,0.0,0.0,0.0,0.0,0.0,0.0,0.0,0.0,0.0,0.0,0.0,0.0,0.0,0.0,0.0,0.0,0.0,0.0,0.0,0.0,0.0,0.0,0.0,0.0,0.0,0.0,0.0,0.0,0.0,0.0,0.0,0.0,0.0,0.0,0.0,0.0,0.0,0.0,0.0,0.0,0.0,0.0,0.0,0.0,0.0,0.0,0.0,0.0,0.0,0.0,0.0,0.0,0.0,0.0,0.0,0.0,0.0,0.0,0.0,0.0,2.4069,2.4001,2.3057,0.0,2.2394,0.0,0.0,0.0,0.0,0.0,0.0,0.0,0.0,0.0,0.0,0.0,0.0,0.0,0.0,0.0,0.0,0.0,0.0,0.0,0.0,0.0,0.0,0.0,0.0,0.0,0.0,0.0,0.0,0.0,0.0,0.0,0.0,0.0,0.0,0.0,0.0,0.0,0.0,0.0,0.0,0.0,0.0,0.0,0.0,0.0,0.0,0.0,0.0,0.0,0.0,0.0,0.0,0.0,0.0,0.0,0.0,0.0,0.0,0.0,0.0,0.0,0.0,0.0,0.0,0.0,0.0,0.0,0.0,0.0,0.0,0.0,0.0,0.0,0.0,0.0,0.0,0.0,0.0,0.0,0.0,0.0,0.0,0.0,0.0,0.0,0.0,0.0,0.0,0.0,0.0,0.0,0.0,0.0,0.0,0.0,0.0,0.0,0.0,0.0,0.0,0.0,0.0,0.0,0.0,0.0,0.0,0.0,0.0,0.0,0.0,2.396,2.3698,2.2761,2.2158,0.0,0.0,0.0,0.0,0.0,0.0,0.0,0.0,0.0,0.0,0.0,0.0,0.0,0.0,0.0,0.0,0.0,0.0,0.0,0.0,0.0,0.0,0.0,0.0,0.0,0.0,0.0,0.0,0.0,0.0,0.0,0.0,0.0,0.0,0.0,0.0,0.0,0.0,0.0,0.0,0.0,0.0,0.0,0.0,0.0,0.0,0.0,0.0,0.0,0.0,0.0,0.0,0.0,0.0,0.0,0.0,0.0,0.0,0.0,0.0,0.0,0.0,0.0,0.0,0.0,0.0,0.0,0.0,0.0,0.0,0.0,0.0,0.0,0.0,0.0,0.0,0.0,0.0,0.0,0.0,0.0,0.0,0.0,0.0,0.0,0.0,0.0,0.0,0.0,0.0,0.0,0.0,0.0,0.0,0.0,0.0,0.0,0.0,0.0,0.0,0.0,0.0,0.0,0.0,0.0,0.0,0.0,0.0,0.0,0.0,2.4015,2.3663,2.3059,2.2472,2.1919,2.145,0.0,0.0,0.0,0.0,0.0,0.0,0.0,0.0,0.0,0.0,0.0,0.0,0.0,0.0,0.0,0.0,0.0,0.0,0.0,0.0,0.0,0.0,0.0,0.0,0.0,0.0,0.0,0.0,0.0,0.0,0.0,0.0,0.0,0.0,0.0,0.0,0.0,0.0,0.0,0.0,0.0,0.0,0.0,0.0,0.0,0.0,0.0,0.0,0.0,0.0,0.0,0.0,0.0,0.0,0.0,0.0,0.0,0.0,0.0,0.0,0.0,0.0,0.0,0.0,0.0,0.0,0.0,0.0,0.0,0.0,0.0,0.0,0.0,0.0,0.0,0.0,0.0,0.0,0.0,0.0,0.0,0.0,0.0,0.0,0.0,0.0,0.0,0.0,0.0,0.0,0.0,0.0,0.0,0.0,0.0,0.0,0.0,0.0,0.0,0.0,0.0,0.0,0.0,0.0,0.0,0.0,0.0,0.0,2.3616,2.3616,2.3148,2.2221,2.2239,2.1904,0.0,0.0,0.0,0.0,0.0,0.0,0.0,0.0,0.0,0.0,0.0,0.0,0.0,0.0,0.0,0.0,0.0,0.0,0.0,0.0,0.0,0.0,0.0,0.0,0.0,0.0,0.0,0.0,0.0,0.0,0.0,0.0,0.0,0.0,0.0,0.0,0.0,0.0,0.0,0.0,0.0,0.0,0.0,0.0,0.0,0.0,0.0,0.0,0.0,0.0,0.0,0.0,0.0,0.0,0.0,0.0,0.0,0.0,0.0,0.0,0.0,0.0,0.0,0.0,0.0,0.0,0.0,0.0,0.0,0.0,0.0,0.0,0.0,0.0,0.0,0.0,0.0,0.0,0.0,0.0,0.0,0.0,0.0,0.0,0.0,0.0,0.0,0.0,0.0,0.0,0.0,0.0,0.0,0.0,0.0,0.0,0.0,0.0,0.0,0.0,0.0,0.0,0.0,0.0,0.0,0.0,0.0,0.0,0.0,2.348,2.3463,2.311,2.239,2.2159,2.1808,0.0,0.0,0.0,0.0,0.0,0.0,0.0,0.0,0.0,0.0,0.0,0.0,0.0,0.0,0.0,0.0,0.0,0.0,0.0,0.0,0.0,0.0,0.0,0.0,0.0,0.0,0.0,0.0,0.0,0.0,0.0,0.0,0.0,0.0,0.0,0.0,0.0,0.0,0.0,0.0,0.0,0.0,0.0,0.0,0.0,0.0,0.0,0.0,0.0,0.0,0.0,0.0,0.0,0.0,0.0,0.0,0.0,0.0,0.0,0.0,0.0,0.0,0.0,0.0,0.0,0.0,0.0,0.0,0.0,0.0,0.0,0.0,0.0,0.0,0.0,0.0,0.0,0.0,0.0,0.0,0.0,0.0,0.0,0.0,0.0,0.0,0.0,0.0,0.0,0.0,0.0,0.0,0.0,0.0,0.0,0.0,0.0,0.0,0.0,0.0,0.0,0.0,0.0,0.0,0.0,0.0,0.0,0.0,0.0,2.33,2.33,2.3035,2.2454,2.2066,2.1682,0.0,0.0,0.0,0.0,0.0,0.0,0.0,0.0,0.0,0.0,0.0,0.0,0.0,0.0,0.0,0.0,0.0,0.0,0.0,0.0,0.0,0.0,0.0,0.0,0.0,0.0,0.0,0.0,0.0,0.0,0.0,0.0,0.0,0.0,0.0,0.0,0.0,0.0,0.0,0.0,0.0,0.0,0.0,0.0,0.0,0.0,0.0,0.0,0.0,0.0,0.0,0.0,0.0,0.0,0.0,0.0,0.0,0.0,0.0,0.0,0.0,0.0,0.0,0.0,0.0,0.0,0.0,0.0,0.0,0.0,0.0,0.0,0.0,0.0,0.0,0.0,0.0,0.0,0.0,0.0,0.0,0.0,0.0,0.0,0.0,0.0,0.0,0.0,0.0,0.0,0.0,0.0,0.0,0.0,0.0,0.0,0.0,0.0,0.0,0.0,0.0,0.0,0.0,0.0,0.0,0.0,0.0,0.0,2.3138,2.3108,2.3138,2.2887,2.2334,2.1964,2.1557,0.0,0.0,0.0,0.0,0.0,0.0,0.0,0.0,0.0,0.0,0.0,0.0,0.0,0.0,0.0,0.0,0.0,0.0,0.0,0.0,0.0,0.0,0.0,0.0,0.0,0.0,0.0,0.0,0.0,0.0,0.0,0.0,0.0,0.0,0.0,0.0,0.0,0.0,0.0,0.0,0.0,0.0,0.0,0.0,0.0,0.0,0.0,0.0,0.0,0.0,0.0,0.0,0.0,0.0,0.0,0.0,0.0,0.0,0.0,0.0,0.0,0.0,0.0,0.0,0.0,0.0,0.0,0.0,0.0,0.0,0.0,0.0,0.0,0.0,0.0,0.0,0.0,0.0,0.0,0.0,0.0,0.0,0.0,0.0,0.0,0.0,0.0,0.0,0.0,0.0,0.0,0.0,0.0,0.0,0.0,0.0,0.0,0.0,0.0,0.0,0.0,0.0,0.0,0.0,0.0,0.0,0.0,0.0,0.0,2.345,2.3437,2.3374,2.3183,2.2722,2.2257,0.0,0.0,0.0,0.0,0.0,0.0,0.0,0.0,0.0,0.0,0.0,0.0,0.0,0.0,0.0,0.0,0.0,0.0,0.0,0.0,0.0,0.0,0.0,0.0,0.0,0.0,0.0,0.0,0.0,0.0,0.0,0.0,0.0,0.0,0.0,0.0,0.0,0.0,0.0,0.0,0.0,0.0,0.0,0.0,0.0,0.0,0.0,0.0,0.0,0.0,0.0,0.0,0.0,0.0,0.0,0.0,0.0,0.0,0.0,0.0,0.0,0.0,0.0,0.0,0.0,0.0,0.0,0.0,0.0,0.0,0.0,0.0,0.0,0.0,0.0,0.0,0.0,0.0,0.0,0.0,0.0,0.0,0.0,0.0,0.0,0.0,0.0,0.0,0.0,0.0,0.0,0.0,0.0,0.0,0.0,0.0,0.0,0.0,0.0,0.0,0.0,0.0,0.0,0.0,0.0,0.0,0.0,0.0,0.0,2.4203,2.394,2.3793,2.378,2.3251,2.2827,2.2508,0.0,0.0,0.0,0.0,0.0,0.0,0.0,0.0,0.0,0.0,0.0,0.0,0.0,0.0,0.0,0.0,0.0,0.0,0.0,0.0,0.0,0.0,0.0,0.0,0.0,0.0,0.0,0.0,0.0,0.0,0.0,0.0,0.0,0.0,0.0,0.0,0.0,0.0,0.0,0.0,0.0,0.0,0.0,0.0,0.0,0.0,0.0,0.0,0.0,0.0,0.0,0.0,0.0,0.0,0.0,0.0,0.0,0.0,0.0,0.0,0.0,0.0,0.0,0.0,0.0,0.0,0.0,0.0,0.0,0.0,0.0,0.0,0.0,0.0,0.0,0.0,0.0,0.0,0.0,0.0,0.0,0.0,0.0,0.0,0.0,0.0,0.0,0.0,0.0,0.0,0.0,0.0,0.0,0.0,0.0,0.0,0.0,0.0,0.0,0.0,0.0,0.0,0.0,0.0,0.0,0.0,0.0,0.0,2.5299,2.4673,2.4313,2.4147,2.369,2.336,0.0,0.0,0.0,0.0,0.0,0.0,0.0,0.0,0.0,0.0,0.0,0.0,0.0,0.0,0.0,0.0,0.0,0.0,0.0,0.0,0.0,0.0,0.0,0.0,0.0,0.0,0.0,0.0,0.0,0.0,0.0,0.0,0.0,0.0,0.0,0.0,0.0,0.0,0.0,0.0,0.0,0.0,0.0,0.0,0.0,0.0,0.0,0.0,0.0,0.0,0.0,0.0,0.0,0.0,0.0,0.0,0.0,0.0,0.0,0.0,0.0,0.0,0.0,0.0,0.0,0.0,0.0,0.0,0.0,0.0,0.0,0.0,0.0,0.0,0.0,0.0,0.0,0.0,0.0,0.0,0.0,0.0,0.0,0.0,0.0,0.0,0.0,0.0,0.0,0.0,0.0,0.0,0.0,0.0,0.0,0.0,0.0,0.0,0.0,0.0,0.0,0.0,0.0,0.0,0.0,0.0,0.0,0.0,0.0,2.661,2.7003,2.6465,2.4975,2.4758,2.4404,0.0,0.0,0.0,0.0,0.0,0.0,0.0,0.0,0.0,0.0,0.0,0.0,0.0,0.0,0.0,0.0,0.0,0.0,0.0,0.0,0.0,0.0,0.0,0.0,0.0,0.0,0.0,0.0,0.0,0.0,0.0,0.0,0.0,0.0,0.0,0.0,0.0,0.0,0.0,0.0,0.0,0.0,0.0,0.0,0.0,0.0,0.0,0.0,0.0,0.0,0.0,0.0,0.0,0.0,0.0,0.0,0.0,0.0,0.0,0.0,0.0,0.0,0.0,0.0,0.0,0.0,0.0,0.0,0.0,0.0,0.0,0.0,0.0,0.0,0.0,0.0,0.0,0.0,0.0,0.0,0.0,0.0,0.0,0.0,0.0,0.0,0.0,0.0,0.0,0.0,0.0,0.0,0.0,0.0,0.0,0.0,0.0,0.0,0.0,0.0,0.0,0.0,0.0,0.0,0.0,0.0,0.0,0.0,2.7424,2.7962,2.8491,2.8164,2.6932,2.6302,2.5536,0.0,0.0,0.0,0.0,0.0,0.0,0.0,0.0,0.0,0.0,0.0,0.0,0.0,0.0,0.0,0.0,0.0,0.0,0.0,0.0,0.0,0.0,0.0,0.0,0.0,0.0,0.0,0.0,0.0,0.0,0.0,0.0,0.0,0.0,0.0,0.0,0.0,0.0,0.0,0.0,0.0,0.0,0.0,0.0,0.0,0.0,0.0,0.0,0.0,0.0,0.0,0.0,0.0,0.0,0.0,0.0,0.0,0.0,0.0,0.0,0.0,0.0,0.0,0.0,0.0,0.0,0.0,0.0,0.0,0.0,0.0,0.0,0.0,0.0,0.0,0.0,0.0,0.0,0.0,0.0,0.0,0.0,0.0,0.0,0.0,0.0,0.0,0.0,0.0,0.0,0.0,0.0,0.0,0.0,0.0,0.0,0.0,0.0,0.0,0.0,0.0,0.0,0.0,0.0,0.0,0.0,0.0,0.0,2.8223,2.9339,2.9565,2.958,2.9339,2.7961,2.6679,0.0,0.0,0.0,0.0,0.0,0.0,0.0,0.0,0.0,0.0,0.0,0.0,0.0,0.0,0.0,0.0,0.0,0.0,0.0,0.0,0.0,0.0,0.0,0.0,0.0,0.0,0.0,0.0,0.0,0.0,0.0,0.0,0.0,0.0,0.0,0.0,0.0,0.0,0.0,0.0,0.0,0.0,0.0,0.0,0.0,0.0,0.0,0.0,0.0,0.0,0.0,0.0,0.0,0.0,0.0,0.0,0.0,0.0,0.0,0.0,0.0,0.0,0.0,0.0,0.0,0.0,0.0,0.0,0.0,0.0,0.0,0.0,0.0,0.0,0.0,0.0,0.0,0.0,0.0,0.0,0.0,0.0,0.0,0.0,0.0,0.0,0.0,0.0,0.0,0.0,0.0,0.0,0.0,0.0,0.0,0.0,0.0,0.0,0.0,0.0,0.0,0.0,0.0,0.0,0.0,0.0,0.0,0.0,2.9341,3.0272,3.1033,3.1119,3.0466,2.8729,2.7472,0.0,0.0,0.0,0.0,0.0,0.0,0.0,0.0,0.0,0.0,0.0,0.0,0.0,0.0,0.0,0.0,0.0,0.0,0.0,0.0,0.0,0.0,0.0,0.0,0.0,0.0,0.0,0.0,0.0,0.0,0.0,0.0,0.0,0.0,0.0,0.0,0.0,0.0,0.0,0.0,0.0,0.0,0.0,0.0,0.0,0.0,0.0,0.0,2.2185,0.0,0.0,0.0,0.0,0.0,0.0,0.0,0.0,0.0,0.0,0.0,0.0,0.0,0.0,0.0,0.0,0.0,0.0,0.0,0.0,0.0,0.0,0.0,0.0,0.0,0.0,0.0,0.0,0.0,0.0,0.0,0.0,0.0,0.0,0.0,0.0,0.0,0.0,0.0,0.0,0.0,0.0,0.0,0.0,0.0,0.0,0.0,0.0,0.0,0.0,0.0,0.0,0.0,0.0,0.0,0.0,0.0,0.0,0.0,3.0259,3.1324,3.1896,3.1995,3.153,3.0229,2.8892,0.0,0.0,0.0,0.0,0.0,0.0,0.0,0.0,0.0,0.0,0.0,0.0,0.0,0.0,0.0,0.0,0.0,0.0,0.0,0.0,0.0,0.0,0.0,0.0,0.0,0.0,0.0,0.0,0.0,0.0,0.0,0.0,0.0,0.0,0.0,0.0,0.0,0.0,0.0,0.0,0.0,0.0,0.0,0.0,0.0,0.0,0.0,0.0,0.0,0.0,0.0,0.0,0.0,0.0,0.0,0.0,0.0,0.0,0.0,0.0,0.0,0.0,0.0,0.0,0.0,0.0,0.0,0.0,0.0,0.0,0.0,0.0,0.0,0.0,0.0,0.0,0.0,0.0,0.0,0.0,0.0,0.0,0.0,0.0,0.0,0.0,0.0,0.0,0.0,0.0,0.0,0.0,0.0,0.0,0.0,0.0,0.0,0.0,0.0,0.0,0.0,0.0,0.0,0.0,0.0,0.0,0.0,2.9859,3.0977,3.2188,3.2398,3.248,3.248,3.1666,3.033,2.837,0.0,0.0,0.0,0.0,0.0,0.0,0.0,0.0,0.0,0.0,0.0,0.0,0.0,0.0,0.0,0.0,0.0,0.0,0.0,0.0,0.0,0.0,0.0,0.0,0.0,0.0,0.0,0.0,0.0,0.0,0.0,0.0,0.0,0.0,0.0,0.0,0.0,0.0,2.2739,2.2432,0.0,0.0,0.0,0.0,0.0,0.0,0.0,0.0,2.2197,0.0,0.0,0.0,0.0,0.0,0.0,0.0,0.0,0.0,0.0,0.0,0.0,0.0,0.0,0.0,0.0,0.0,0.0,0.0,0.0,0.0,0.0,0.0,0.0,0.0,0.0,0.0,0.0,0.0,0.0,0.0,0.0,0.0,0.0,0.0,0.0,0.0,0.0,0.0,0.0,0.0,0.0,0.0,0.0,0.0,0.0,0.0,0.0,0.0,0.0,0.0,0.0,0.0,0.0,0.0,0.0,2.9098,3.0288,3.1366,3.2339,3.2648,3.28,3.2784,3.1886,3.0827,2.9705,0.0,0.0,0.0,0.0,0.0,0.0,0.0,0.0,0.0,0.0,0.0,0.0,0.0,0.0,0.0,0.0,0.0,0.0,0.0,0.0,0.0,0.0,0.0,0.0,0.0,0.0,0.0,0.0,0.0,0.0,0.0,0.0,0.0,0.0,0.0,0.0,0.0,0.0,0.0,2.2512,2.2328,0.0,0.0,0.0,0.0,0.0,0.0,0.0,0.0,2.2197,0.0,0.0,0.0,0.0,0.0,0.0,0.0,0.0,0.0,0.0,0.0,0.0,0.0,0.0,0.0,0.0,0.0,0.0,0.0,0.0,0.0,0.0,0.0,0.0,0.0,0.0,0.0,0.0,0.0,0.0,0.0,0.0,0.0,0.0,0.0,0.0,0.0,0.0,0.0,0.0,0.0,0.0,0.0,0.0,0.0,0.0,0.0,0.0,0.0,0.0,0.0,0.0,0.0,0.0,0.0,2.9224,3.0717,3.1882,3.2586,3.2947,3.3112,3.3096,3.2618,3.171,0.0,0.0,0.0,0.0,0.0,0.0,0.0,0.0,0.0,0.0,0.0,0.0,0.0,0.0,0.0,0.0,0.0,0.0,0.0,0.0,0.0,0.0,0.0,0.0,0.0,0.0,0.0,0.0,0.0,0.0,0.0,0.0,0.0,0.0,0.0,0.0,0.0,0.0,0.0,0.0,2.2512,2.2359,2.2216,0.0,0.0,0.0,0.0,0.0,0.0,2.2197,2.2197,0.0,0.0,0.0,0.0,0.0,0.0,0.0,0.0,0.0,0.0,0.0,0.0,0.0,0.0,0.0,0.0,0.0,0.0,0.0,0.0,0.0,0.0,0.0,0.0,0.0,0.0,0.0,0.0,0.0,0.0,0.0,0.0,0.0,0.0,0.0,0.0,0.0,0.0,0.0,0.0,0.0,0.0,0.0,0.0,0.0,0.0,0.0,0.0,0.0,0.0,0.0,0.0,0.0,0.0,0.0,2.9389,3.1172,3.237,3.2884,3.3198,3.3346,3.3372,3.3335,3.2484,0.0,0.0,0.0,0.0,0.0,0.0,0.0,0.0,0.0,0.0,0.0,0.0,0.0,0.0,0.0,0.0,0.0,0.0,0.0,0.0,0.0,0.0,0.0,0.0,0.0,0.0,0.0,0.0,0.0,0.0,0.0,0.0,0.0,0.0,0.0,0.0,0.0,0.0,0.0,0.0,0.0,2.2389,2.2216,2.2197,0.0,0.0,0.0,0.0,2.2197,2.2216,0.0,0.0,0.0,0.0,0.0,0.0,0.0,0.0,0.0,0.0,0.0,0.0,0.0,0.0,0.0,0.0,0.0,0.0,0.0,0.0,0.0,0.0,0.0,0.0,0.0,0.0,0.0,0.0,0.0,0.0,0.0,0.0,0.0,0.0,0.0,0.0,0.0,0.0,0.0,0.0,0.0,0.0,0.0,0.0,0.0,0.0,0.0,0.0,0.0,0.0,0.0,0.0,0.0,0.0,0.0,0.0,2.9955,3.1636,3.2769,3.324,3.3398,3.3529,3.3658,3.3424,3.2798,0.0,0.0,0.0,0.0,0.0,0.0,0.0,0.0,0.0,0.0,0.0,0.0,0.0,0.0,0.0,0.0,0.0,0.0,0.0,0.0,0.0,0.0,0.0,0.0,0.0,0.0,0.0,0.0,0.0,0.0,0.0,0.0,0.0,0.0,0.0,0.0,0.0,0.0,0.0,0.0,0.0,2.2567,2.2259,2.2197,2.2197,0.0,0.0,2.2197,2.2197,2.2309,0.0,0.0,0.0,0.0,0.0,0.0,0.0,0.0,0.0,0.0,0.0,0.0,0.0,0.0,0.0,0.0,0.0,0.0,0.0,0.0,0.0,0.0,0.0,0.0,0.0,0.0,0.0,0.0,0.0,0.0,0.0,0.0,0.0,0.0,0.0,0.0,0.0,0.0,0.0,0.0,0.0,0.0,0.0,0.0,0.0,0.0,0.0,0.0,0.0,0.0,0.0,0.0,0.0,0.0,0.0,2.9726,3.0177,3.1851,3.2953,3.3398,3.3607,3.3761,3.3797,3.3633,3.3091,0.0,0.0,0.0,0.0,0.0,0.0,0.0,0.0,0.0,0.0,0.0,0.0,0.0,0.0,0.0,0.0,0.0,0.0,0.0,0.0,0.0,0.0,0.0,0.0,0.0,0.0,0.0,0.0,0.0,0.0,0.0,0.0,0.0,0.0,0.0,0.0,0.0,0.0,0.0,0.0,0.0,0.0,2.2247,2.2197,0.0,0.0,0.0,2.2309,2.2309,0.0,0.0,0.0,0.0,0.0,0.0,0.0,0.0,0.0,0.0,0.0,0.0,0.0,0.0,0.0,0.0,0.0,0.0,0.0,0.0,0.0,0.0,0.0,0.0,0.0,0.0,0.0,0.0,0.0,0.0,0.0,0.0,0.0,0.0,0.0,0.0,0.0,0.0,0.0,0.0,0.0,0.0,0.0,0.0,0.0,0.0,0.0,0.0,0.0,0.0,0.0,0.0,0.0,0.0,0.0,0.0,0.0,3.0664,3.2184,3.3156,3.3591,3.3813,3.3899,3.3965,3.3822,0.0,0.0,0.0,0.0,0.0,0.0,0.0,0.0,0.0,0.0,0.0,0.0,0.0,0.0,0.0,0.0,0.0,0.0,0.0,0.0,0.0,0.0,0.0,0.0,0.0,0.0,0.0,2.7152,0.0,0.0,0.0,0.0,0.0,0.0,0.0,0.0,0.0,0.0,0.0,0.0,0.0,0.0,2.2616,2.2371,2.229,2.229,0.0,0.0,2.2482,2.2512,2.2708,2.2818,0.0,0.0,0.0,0.0,0.0,0.0,0.0,0.0,0.0,0.0,0.0,0.0,0.0,0.0,0.0,0.0,0.0,0.0,0.0,0.0,0.0,0.0,0.0,0.0,0.0,0.0,0.0,0.0,0.0,0.0,0.0,0.0,0.0,0.0,0.0,0.0,0.0,0.0,0.0,0.0,0.0,0.0,0.0,0.0,0.0,0.0,0.0,0.0,0.0,0.0,0.0,0.0,0.0,0.0,3.0897,3.195,3.2835,3.3461,3.3848,3.3899,3.3949,3.4075,3.3965,3.3729,0.0,0.0,0.0,0.0,0.0,0.0,0.0,0.0,0.0,0.0,0.0,0.0,0.0,0.0,0.0,0.0,0.0,0.0,0.0,0.0,0.0,0.0,0.0,0.0,0.0,0.0,0.0,0.0,0.0,0.0,0.0,0.0,0.0,0.0,0.0,0.0,0.0,0.0,0.0,0.0,0.0,2.269,2.2678,2.2525,2.2463,0.0,2.2678,2.2739,2.2848,2.3,2.3138,2.3343,0.0,0.0,0.0,0.0,0.0,0.0,0.0,0.0,0.0,0.0,0.0,0.0,0.0,0.0,0.0,0.0,0.0,0.0,0.0,0.0,0.0,0.0,0.0,0.0,0.0,0.0,0.0,0.0,0.0,0.0,0.0,0.0,0.0,0.0,0.0,0.0,0.0,0.0,0.0,0.0,0.0,0.0,0.0,0.0,0.0,0.0,0.0,0.0,0.0,0.0,0.0,0.0,0.0,3.1659,3.2352,3.323,3.3797,3.4025,3.4201,3.43,3.4349,3.4142,3.3975,0.0,0.0,0.0,0.0,0.0,0.0,0.0,0.0,0.0,0.0,0.0,0.0,0.0,0.0,0.0,0.0,0.0,0.0,0.0,0.0,0.0,0.0,0.0,0.0,0.0,0.0,0.0,0.0,2.8629,2.8301,2.7974,0.0,0.0,0.0,0.0,0.0,0.0,0.0,0.0,0.0,0.0,2.28,2.2708,2.2616,0.0,0.0,2.2878,2.3,2.3193,2.333,2.345,2.3509,2.3556,0.0,0.0,0.0,0.0,0.0,0.0,0.0,0.0,0.0,0.0,0.0,0.0,0.0,0.0,0.0,0.0,0.0,0.0,0.0,0.0,0.0,0.0,0.0,0.0,0.0,0.0,0.0,0.0,0.0,0.0,0.0,0.0,0.0,0.0,0.0,0.0,0.0,0.0,0.0,0.0,0.0,0.0,0.0,0.0,0.0,0.0,0.0,0.0,0.0,0.0,0.0,0.0,3.2422,3.2974,3.3682,3.4075,3.4201,3.4399,3.448,3.4497,3.4325,3.4201,0.0,0.0,0.0,0.0,0.0,0.0,0.0,0.0,0.0,0.0,0.0,0.0,0.0,0.0,0.0,0.0,0.0,0.0,0.0,0.0,0.0,0.0,0.0,0.0,0.0,0.0,0.0,0.0,2.9548,2.934,2.8901,0.0,0.0,0.0,0.0,0.0,0.0,0.0,0.0,0.0,0.0,2.303,2.2969,2.2982,2.3092,2.3394,2.3571,2.3803,2.4133,2.4309,2.4356,2.4399,0.0,0.0,0.0,0.0,0.0,0.0,0.0,0.0,0.0,0.0,0.0,0.0,0.0,0.0,0.0,0.0,0.0,0.0,0.0,0.0,0.0,0.0,0.0,0.0,0.0,0.0,0.0,3.0506,0.0,0.0,3.1955,0.0,0.0,0.0,0.0,0.0,0.0,0.0,0.0,0.0,0.0,0.0,0.0,0.0,0.0,0.0,0.0,0.0,0.0,0.0,0.0,0.0,0.0,3.314,3.4043,3.4209,3.4374,3.4497,3.4497,3.4521,3.4497,3.4513,3.4423,3.43,0.0,0.0,0.0,0.0,0.0,0.0,0.0,0.0,0.0,0.0,0.0,0.0,0.0,0.0,0.0,0.0,0.0,0.0,0.0,0.0,0.0,0.0,0.0,0.0,0.0,0.0,3.0797,3.1157,3.1154,0.0,0.0,0.0,0.0,0.0,0.0,0.0,0.0,0.0,2.4138,2.3713,2.3433,2.3595,2.3582,2.3889,2.4559,2.4845,2.5205,2.5902,2.6025,2.6083,0.0,0.0,0.0,0.0,0.0,0.0,0.0,0.0,0.0,0.0,0.0,0.0,0.0,0.0,0.0,0.0,0.0,0.0,0.0,0.0,0.0,0.0,0.0,0.0,0.0,0.0,0.0,3.2442,3.2442,0.0,0.0,0.0,0.0,0.0,0.0,0.0,0.0,0.0,0.0,0.0,3.5977,3.6222,0.0,0.0,0.0,0.0,0.0,0.0,0.0,0.0,0.0,0.0,0.0,0.0,3.408,3.448,3.4618,3.478,3.4899,3.4994,3.5034,3.5041,3.4947,3.478,3.4431,0.0,0.0,0.0,0.0,0.0,0.0,0.0,0.0,0.0,0.0,0.0,0.0,0.0,0.0,0.0,0.0,0.0,0.0,0.0,0.0,0.0,0.0,0.0,0.0,0.0,3.1808,0.0,0.0,0.0,0.0,0.0,0.0,0.0,0.0,0.0,0.0,2.6378,2.5875,2.5661,2.5297,2.5114,2.524,2.5258,2.5428,0.0,0.0,0.0,0.0,0.0,0.0,0.0,0.0,0.0,0.0,0.0,0.0,0.0,0.0,2.4988,2.3769,2.348,2.339,2.3253,0.0,0.0,0.0,0.0,0.0,0.0,0.0,0.0,0.0,0.0,0.0,0.0,0.0,0.0,3.3642,3.3663,3.3764,0.0,0.0,0.0,0.0,0.0,0.0,0.0,0.0,3.6716,3.6913,3.7193,3.7196,3.7175,0.0,3.6991,3.6542,0.0,0.0,0.0,0.0,0.0,0.0,0.0,0.0,3.4804,3.4851,3.497,3.5065,3.5175,3.5245,3.5308,3.5308,3.5222,3.5018,3.4732,3.4199,3.3864,0.0,0.0,0.0,0.0,0.0,0.0,0.0,0.0,0.0,0.0,0.0,0.0,0.0,0.0,0.0,0.0,0.0,0.0,0.0,0.0,0.0,0.0,0.0,3.335,0.0,0.0,0.0,0.0,0.0,0.0,0.0,0.0,0.0,2.844,2.7618,2.7145,2.6919,2.6587,2.6421,2.6529,0.0,0.0,0.0,0.0,0.0,0.0,0.0,2.8003,2.8019,2.7942,2.7867,2.7806,2.7639,2.7435,2.7213,0.0,0.0,2.4489,2.4162,2.4038,2.365,2.342,2.3198,2.2927,2.2488,2.2075,0.0,0.0,0.0,0.0,0.0,0.0,0.0,0.0,3.4165,3.4241,0.0,3.4322,0.0,0.0,0.0,0.0,3.7027,3.7062,0.0,0.0,3.7233,3.768,3.8502,3.8424,3.8347,3.8347,3.8227,3.772,3.6898,3.6387,0.0,0.0,0.0,0.0,0.0,0.0,3.5285,3.5202,3.5335,3.5381,3.5415,3.5415,3.5415,3.5438,3.5415,3.5352,3.5161,3.5145,3.5081,3.493,3.425,0.0,0.0,0.0,0.0,0.0,0.0,0.0,0.0,0.0,0.0,0.0,0.0,0.0,0.0,0.0,0.0,0.0,0.0,0.0,0.0,3.443,0.0,0.0,0.0,0.0,0.0,0.0,0.0,0.0,0.0,3.1898,2.9455,2.8539,2.8039,2.7936,0.0,0.0,0.0,0.0,2.8089,2.8681,2.9035,2.9458,3.0015,3.0101,3.0101,3.0101,0.0,0.0,2.9651,2.9467,2.9073,2.8377,2.814,2.7475,2.5678,2.5272,2.4955,2.4164,2.3841,2.3624,2.3433,2.3047,2.261,3.5769,0.0,0.0,0.0,0.0,3.5766,3.587,3.5973,3.6107,3.6147,3.6184,3.6186,0.0,0.0,0.0,0.0,0.0,0.0,3.8604,3.9158,3.9216,3.9398,3.9631,3.9612,3.9575,3.9593,3.9514,3.9274,3.8943,3.8687,3.7798,3.6314,0.0,0.0,0.0,0.0,3.5988,3.636,3.6417,3.6757,3.7409,3.7426,3.7449,3.7466,3.7339,3.7015,3.6411,3.6359,3.602,3.5412,3.529,0.0,0.0,0.0,0.0,0.0,0.0,0.0,0.0,0.0,0.0,0.0,0.0,0.0,0.0,0.0,0.0,0.0,0.0,0.0,3.5806,3.5939,3.6015,0.0,0.0,0.0,0.0,0.0,0.0,0.0,0.0,0.0,3.2364,3.1089,3.0221,0.0,0.0,2.9632,2.9795,2.9854,3.003,3.0293,3.0426,0.0,3.0733,3.0732,3.0762,3.0762,3.0628,3.0509,3.0448,3.0221,2.9905,2.9598,2.94,2.8932,2.7936,2.6856,2.6005,2.5335,2.4952,2.4599,2.4148,2.3738,2.3399,3.7741,3.7694,3.6896,3.6652,3.6811,3.6871,3.6972,3.711,3.7203,3.7222,3.7222,3.7241,3.7456,3.7835,3.8286,0.0,0.0,0.0,3.9713,4.0253,4.0291,4.0472,4.0705,4.0742,4.0741,4.0723,4.0665,4.0427,4.0046,3.9875,3.9179,3.794,0.0,3.7326,3.7172,3.7128,3.7247,3.7581,3.7575,3.786,3.8408,3.8431,3.8408,3.8391,3.8322,3.8077,3.7592,3.7547,3.7297,3.6819,3.6605,3.6582,0.0,0.0,0.0,0.0,0.0,0.0,0.0,0.0,0.0,0.0,0.0,3.5359,3.5414,0.0,0.0,0.0,3.6749,3.6993,3.7011,3.6954,0.0,0.0,0.0,0.0,0.0,0.0,0.0,3.5243,3.4971,3.4655,3.426,3.3302,3.2439,3.1875,3.1506,3.1333,3.1463,0.0,3.1551,3.1608,3.1665,3.1722,3.1707,3.1665,3.1623,3.148,3.1379,3.1219,3.116,3.0911,3.0657,3.0478,3.0297,3.0031,2.9568,2.8629,2.76,2.6565,2.6134,2.5804,2.5413,2.4925,2.4518,3.9365,3.9883,3.8056,3.7395,3.7548,3.7548,3.7661,3.7828,3.7846,3.7828,3.7846,3.7846,3.8276,3.9084,3.9949,0.0,4.0546,4.051,4.0637,4.0799,4.0799,4.1162,4.1814,4.1814,4.1814,4.1832,4.174,4.1341,4.0655,4.0434,4.034,4.0284,3.9696,3.9269,3.905,3.8908,3.8833,3.8758,3.8758,3.8775,3.8861,3.8844,3.8844,3.8861,3.8844,3.8827,3.8758,3.8758,3.8723,3.8637,3.8087,3.7829,3.7896,0.0,0.0,0.0,0.0,0.0,0.0,0.0,0.0,0.0,0.0,0.0,0.0,0.0,0.0,3.7631,3.7631,0.0,3.7631,3.7523,0.0,0.0,0.0,3.6995,3.6958,3.6681,3.6395,3.6203,0.0,0.0,3.5357,3.5088,3.4528,3.3401,3.2917,3.266,3.2633,3.2691,3.2707,3.2707,3.2815,3.2879,3.2841,3.2749,3.2574,3.2342,3.2191,3.2023,3.1838,3.1596,3.135,3.1131,3.0984,3.0837,3.0717,3.0345,2.9681,2.7966,2.7416,2.7179,2.6895,2.6337,2.588,4.0185,4.0402,3.9932,3.9697,3.9586,3.9604,3.9715,3.986,3.9896,3.9878,3.9896,3.9896,4.004,4.0274,4.0509,4.0961,4.1631,4.1613,4.1977,4.2577,4.2577,4.2668,4.2832,4.2832,4.2832,4.285,4.2832,4.2686,4.2449,4.2412,4.2319,4.2149,4.1896,4.0991,3.9511,3.937,3.9582,4.0036,4.0036,4.0333,4.0853,4.0888,4.0888,4.0888,4.0888,4.0626,4.0088,4.0053,3.9756,3.9161,3.9139,3.9118,3.9176,3.9215,0.0,0.0,0.0,0.0,0.0,0.0,0.0,0.0,0.0,3.7721,3.7757,0.0,3.7948,0.0,3.7983,3.7966,3.7966,3.7948,0.0,0.0,3.7774,3.7632,3.7395,3.7284,3.7133,3.6895,3.6721,3.6522,3.6277,3.6126,3.5895,3.547,3.4574,3.3921,3.382,3.3795,3.3802,3.3691,3.3691,3.3681,3.3636,3.3523,3.3382,3.324,3.3022,3.2846,3.2602,3.241,3.2216,3.1979,3.1796,3.1653,3.1481,3.1204,3.0852,3.0177,2.918,2.8162,2.7699,2.7432,2.7276,4.145,4.1795,4.1866,4.183,4.1722,4.0871,4.0635,4.0793,4.0809,4.0826,4.0844,4.119,4.1389,4.1442,4.1789,4.2224,4.2696,4.2713,4.297,4.3463,4.3481,4.3481,4.3463,4.3463,4.3463,4.3481,4.341,4.3339,4.3287,4.3214,4.3123,4.2975,4.2879,4.2275,4.1199,4.0884,4.0931,4.1276,4.1213,4.1403,4.1788,4.1827,4.1805,4.1827,4.1888,4.1718,4.1311,4.1294,4.1081,4.066,4.0508,4.0394,4.0394,4.0321,4.0074,0.0,0.0,0.0,0.0,0.0,0.0,0.0,0.0,0.0,0.0,0.0,3.9423,3.9442,3.9423,3.9442,3.9423,3.9423,3.9407,3.9392,3.9341,3.9093,3.8559,3.8436,3.8169,3.7613,3.745,3.7302,3.7113,3.6978,3.6862,3.6744,3.61,3.5475,3.5031,3.4885,3.4783,3.4657,3.4633,3.4553,3.4341,3.4243,3.4118,3.3975,3.3755,3.3533,3.3403,3.3166,3.29,3.2683,3.248,3.2287,3.2148,3.1881,3.1653,3.1392,3.0705,2.9871,2.9186,2.8797,2.8568,4.2787,4.3373,4.3496,4.3599,4.3537,4.1904,4.1269,4.1356,4.142,4.1452,4.1489,4.222,4.2515,4.257,4.3252,4.358,4.3664,4.3646,4.3697,4.3837,4.3837,4.3837,4.3818,4.382,4.382,4.3804,4.3682,4.358,4.3531,4.3409,4.3321,4.325,4.3178,4.3142,4.3141,4.2668,4.2391,4.2369,4.2228,4.2166,4.2184,4.2166,4.2166,4.2187,4.2308,4.2369,4.2369,4.2389,4.2389,4.2353,4.1905,4.1624,4.1625,4.1216,4.0907,0.0,4.0868,0.0,0.0,0.0,0.0,0.0,0.0,0.0,0.0,4.0653,4.1137,4.1156,4.1156,4.1156,4.1174,4.1156,4.1156,4.1156,4.1107,4.0765,4.0001,3.9798,3.9428,3.8566,3.8427,3.8308,3.8204,3.7936,3.7757,3.7683,3.7411,3.6943,3.6319,3.5933,3.5732,3.5599,3.5549,3.5351,3.5052,3.4958,3.4857,3.4675,3.4431,3.425,3.4184,3.3899,3.3575,3.3377,3.3135,3.2922,3.2749,3.2535,3.233,3.215,3.1892,3.1506,3.0793,3.0207,2.9871,4.3518,4.38,4.3798,4.3881,4.3905,4.3621,4.3399,4.3277,4.3293,4.3324,4.337,4.3598,4.3669,4.3688,4.3836,4.391,4.3926,4.3923,4.3942,4.3976,4.3958,4.3976,4.3958,4.3897,4.3883,4.3883,4.3802,4.3753,4.3736,4.3719,4.3651,4.3529,4.3512,4.3479,4.341,0.0,0.0,0.0,4.257,4.251,4.2492,4.2492,4.255,4.2667,4.2668,0.0,4.2786,4.2768,4.2787,4.2787,4.2774,0.0,0.0,0.0,0.0,0.0,0.0,0.0,0.0,0.0,0.0,0.0,4.1987,4.1908,4.1077,4.1292,4.1512,4.1494,4.1512,4.1512,4.1512,4.1512,4.1494,4.1494,4.1497,4.1359,4.1018,4.0972,4.0838,4.0569,4.0451,4.0419,4.0259,3.9701,3.9164,3.9078,3.8432,3.788,3.7667,3.7071,3.6641,3.6536,3.6287,3.6054,3.5902,3.5705,3.5549,3.5407,3.5218,3.4977,3.473,3.4561,3.4374,3.4134,3.3958,3.3781,3.3523,3.3356,3.3102,3.2738,3.2614,3.2339,3.1508,3.1231,3.1156,4.3889,4.4005,4.407,4.4131,0.0,4.4214,4.4203,4.4131,4.4073,4.4073,4.4104,4.4131,4.4147,4.4147,4.4147,4.4147,4.4147,4.4147,4.4147,4.4128,4.4147,4.4128,4.4128,4.4116,4.4085,4.4104,4.4058,4.3992,4.3942,4.3961,4.3894,4.3795,4.3763,4.3732,4.3682,4.3529,4.3303,4.2994,4.2899,4.2841,4.2841,4.2841,4.2879,4.2936,4.3012,0.0,0.0,0.0,0.0,0.0,0.0,0.0,0.0,4.3548,0.0,4.3158,4.3169,4.3048,4.2715,4.2791,4.288,4.2972,4.3446,4.3488,4.2865,4.2924,4.3001,4.3029,4.3029,4.3029,4.3029,4.2982,4.2986,4.2986,4.2957,4.275,4.2248,4.2114,4.1905,4.1477,4.1345,4.1298,4.1298,4.082,4.0464,4.0382,3.9922,3.9549,3.9393,3.8241,3.7264,3.7129,3.6876,3.6655,3.6516,3.6346,3.6156,3.6045,3.5849,3.5627,3.5413,3.5247,3.5078,3.4835,3.4602,3.4366,3.4134,3.4,3.3755,3.3351,3.3245,3.3087,3.2492,3.216,3.1951,4.417,4.4199,4.431,4.4401,4.4454,4.4435,4.4482,4.4524,4.4416,0.0,0.0,4.4373,4.4373,4.4387,4.4373,4.4373,4.4373,4.4354,4.4354,4.4354,4.4373,4.4373,4.4373,4.4358,4.4358,4.4358,4.4344,4.4281,4.417,4.417,4.4124,4.4067,4.4008,4.3942,4.3929,4.3927,4.3801,4.3577,4.3433,4.3378,4.3397,4.3524,4.3615,4.3634,4.3743,4.3794,4.383,4.3935,4.395,4.3802,4.3869,4.3843,4.3761,4.3894,4.3989,4.4048,4.4082,4.4128,4.4185,4.424,4.4331,4.4468,4.4578,4.4578,4.4468,4.4454,4.4468,4.4524,4.4542,4.4524,4.4542,4.4482,4.4454,4.4454,4.4397,4.4055,4.3385,4.3235,4.2949,4.2304,4.2191,4.2087,4.2114,4.1824,4.1619,4.1554,4.128,4.1188,4.0889,3.9344,3.7936,3.7559,3.7356,3.7186,3.7054,3.6878,3.6716,3.665,3.6409,3.6224,3.6131,3.5937,3.5694,3.5509,3.5218,3.4968,3.4747,3.4594,3.4349,3.3949,3.3848,3.3761,3.345,3.2996,3.2645,4.4407,4.4537,4.4551,4.4592,4.464,4.4659,4.4653,4.4672,4.4611,4.457,4.457,4.4619,4.4646,4.4627,4.4646,4.4646,4.4646,4.4646,4.4646,4.4646,4.4627,4.4646,4.4646,4.4578,4.457,4.4551,4.4515,4.4454,4.444,4.4383,4.4335,4.4358,4.4285,4.4229,4.4135,4.4789,4.5064,4.4913,4.4629,4.449,4.449,4.515,4.5571,4.5661,4.5678,4.5766,4.5865,4.5864,4.5619,4.5002,4.4981,4.4695,4.4085,4.414,4.4214,4.4321,4.4416,4.4454,4.4519,4.4532,4.4587,4.4719,4.4757,4.4732,4.4672,4.4659,4.4672,4.4672,4.4685,4.4653,4.4653,4.4672,4.4659,4.4659,4.4659,4.4544,4.4339,4.4312,4.4182,4.3933,4.4031,4.3914,4.3725,4.3191,4.2737,4.259,4.2214,4.1598,4.1219,4.0166,3.8999,3.8146,3.7845,3.7739,3.7685,3.7431,3.7316,3.7201,3.6954,3.6761,3.6676,3.6509,3.6339,3.6156,3.5941,3.5722,3.5476,3.5281,3.4994,3.4618,3.4456,3.4275,3.3924,3.3704,3.3497,4.4619,4.4768,4.5215,4.5475,4.5597,4.6082,4.6278,4.6266,4.6259,4.5628,4.4691,4.4719,4.4745,4.4764,4.4783,4.4815,4.4827,4.4815,4.4808,4.4796,4.4776,4.4764,4.4732,4.4685,4.4659,4.4659,4.4619,4.485,4.5278,4.5288,4.55,4.5876,4.5843,4.579,4.5716,4.6076,4.6229,4.6183,4.5848,4.5665,4.5665,4.6016,4.6255,4.6306,4.6357,4.6389,4.6471,4.6568,4.6464,4.6141,4.6168,4.5821,4.5071,4.5058,4.4923,4.4657,4.4627,4.468,4.4764,4.4796,4.4877,4.4943,4.4955,4.4962,4.4907,4.4883,4.4889,4.4907,4.4907,4.4926,4.4926,4.4889,4.4833,4.4808,4.477,4.4719,4.4672,4.4659,4.4632,4.4578,4.4546,4.4551,4.4542,4.4125,4.3844,4.3755,4.3328,4.2857,4.2259,4.1733,4.098,3.9944,3.9579,3.9259,3.8828,3.8527,3.8187,3.772,3.7467,3.7282,3.715,3.7011,3.6871,3.6676,3.6471,3.6259,3.6028,3.5822,3.5532,3.5188,3.5001,3.4804,3.4448,3.4226,3.3899,4.5357,4.5514,4.614,4.6506,4.6661,4.7322,4.7631,4.7612,4.7605,4.6794,4.5521,4.5426,4.542,4.5439,4.5488,4.5513,4.5513,4.5513,4.5494,4.5513,4.5464,4.5439,4.5426,4.5369,4.5363,4.535,4.5363,4.5703,4.6289,4.6352,4.6641,4.7181,4.7197,4.7141,4.7085,4.7273,4.7334,4.7372,4.7319,4.7148,4.6882,4.705,4.7143,4.7162,4.7226,4.7236,4.7271,4.7432,4.7432,4.727,4.731,4.6972,4.625,4.6189,4.594,4.5458,4.5256,4.5103,4.4974,4.5014,4.5103,4.514,4.517,4.517,4.5162,4.5129,4.5084,4.5084,4.5091,4.5091,4.5091,4.5057,4.501,4.4962,4.4895,4.4846,4.4796,4.4783,4.477,4.4757,4.4745,4.4751,4.4706,4.4672,4.4554,4.4481,4.4426,4.4044,4.3411,4.3252,4.2806,4.2044,4.1346,4.0667,4.0048,3.9775,3.9351,3.8633,3.8509,3.8456,3.8239,3.7985,3.7676,3.7487,3.704,3.6751,3.655,3.6301,3.6023,3.5677,3.5515,3.5321,3.4923,3.457,3.4201,4.7269,4.7336,4.7393,4.7462,4.7543,4.7678,4.7758,4.777,4.7777,4.7712,4.7495,4.7395,4.7329,4.7336,4.7291,4.7284,4.7265,4.7329,4.7291,4.7284,4.7348,4.7317,4.7241,4.7298,4.7336,4.7267,4.7229,4.7255,4.7426,4.7415,4.7384,4.739,4.7378,4.7422,4.7478,4.8109,4.845,4.8475,4.92,4.9098,4.8142,4.8768,4.9143,4.9143,4.9124,4.9189,4.9205,4.9333,4.9031,4.8423,4.8361,4.8005,4.7365,4.7296,4.7315,4.7175,4.6616,4.5959,4.5284,4.5224,4.5354,4.5359,4.5416,4.5417,4.54,4.5361,4.5281,4.5151,4.5114,4.5125,4.5103,4.5114,4.5114,4.5084,4.5091,4.508,4.5038,4.5068,4.5045,4.4986,4.4926,4.4858,4.4808,4.4764,4.468,4.4685,4.4619,4.45,4.4261,4.4149,4.4111,4.3614,4.2529,4.1425,4.1075,4.0948,4.0653,4.0462,4.0396,4.02,3.9877,3.9392,3.8905,3.8724,3.8054,3.7487,3.7283,3.6871,3.6561,3.6379,3.6126,3.5795,3.536,3.4947,3.4521,4.7647,4.7762,4.8285,4.8815,4.9277,4.9349,4.9349,4.936,4.9382,4.9401,4.9401,4.9338,4.8758,4.7799,4.7813,4.7824,4.7843,4.7843,4.7843,4.7843,4.7791,4.7769,4.7769,4.7735,4.7724,4.7705,4.7724,4.7972,4.8457,4.8874,4.9061,4.8998,4.9005,4.8986,4.9024,4.9328,4.9486,4.9499,4.9828,4.9794,4.9422,4.957,4.9698,4.9698,4.9698,4.9712,4.9774,4.9816,4.9687,4.9413,4.9473,4.9138,4.8395,4.8379,4.8197,4.7774,4.7505,4.7223,4.69,4.6882,4.6903,4.6923,4.6463,4.6186,4.6148,4.5707,4.5361,4.5301,4.527,4.527,4.529,4.527,4.5279,4.5267,4.5267,4.5235,4.5159,4.5178,4.5136,4.508,4.5045,4.5003,4.4967,4.4907,4.4858,4.484,4.4776,4.4699,4.4632,4.4573,4.4537,4.4351,4.3642,4.2973,4.2335,4.2063,4.1751,4.1236,4.1024,4.0958,4.0843,4.0522,4.0091,4.0075,3.9391,3.8991,3.9151,3.8293,3.7654,3.7341,3.6487,3.5949,3.5751,3.5396,3.5031,4.849,4.863,4.9258,4.9895,5.0502,5.0544,5.0554,5.0573,5.0565,5.0575,5.0575,5.0575,4.9912,4.8815,4.8699,4.8679,4.8679,4.8708,4.8679,4.8679,4.8618,4.8626,4.8626,4.8583,4.8523,4.8523,4.8562,4.8868,4.943,4.997,5.0267,5.0219,5.0219,5.0207,5.0226,5.0219,5.0207,5.0219,5.0207,5.0207,5.0175,5.0133,5.0038,4.9986,5.0018,5.0018,5.0018,5.005,5.0095,5.0101,5.0188,4.9992,4.9461,4.9419,4.9062,4.8398,4.8374,4.8308,4.8077,4.8078,4.8078,4.8039,4.7463,4.7136,4.704,4.656,4.6224,4.6243,4.6205,4.6109,4.5429,4.541,4.541,4.5409,4.5409,4.535,4.5288,4.5248,4.5237,4.5194,4.5203,4.517,4.5125,4.5049,4.501,4.4962,4.4926,4.4846,4.4802,4.4776,4.4725,4.4605,4.4546,4.4163,4.3398,4.3113,4.2668,4.2331,4.2102,4.2046,4.173,4.1557,4.122,4.1118,4.0763,4.0348,4.0004,3.9349,3.8844,3.837,3.7502,3.6595,3.6586,3.6071,3.5616,5.0374,5.0357,5.0476,5.0545,5.0603,5.0664,5.0682,5.0682,5.0757,5.0803,5.0775,5.0794,5.0745,5.0545,5.0297,5.0357,5.0357,5.0272,5.0253,5.0253,5.0281,5.0347,5.0385,5.0385,5.0327,5.0166,5.0146,5.0261,5.0385,5.0432,5.047,5.0489,5.0459,5.0459,5.0459,5.0459,5.0489,5.0459,5.0468,5.0459,5.0478,5.0459,5.0352,5.0224,5.0236,5.0278,5.0278,5.029,5.0314,5.0379,5.0382,5.0396,5.0413,5.0404,5.0033,4.9355,4.9365,4.9074,4.8409,4.8396,4.8403,4.8354,4.8307,4.8219,4.8191,4.8017,4.7902,4.8103,4.794,4.7302,4.5917,4.564,4.5544,4.5534,4.5448,4.541,4.54,4.539,4.54,4.5371,4.537,4.5309,4.5213,4.5148,4.5125,4.5103,4.5091,4.5049,4.4979,4.4919,4.4858,4.4783,4.4725,4.4568,4.4265,4.3961,4.3901,4.362,4.3324,4.3582,4.3407,4.3104,4.2603,4.2103,4.1586,4.1103,4.0636,4.0275,3.9941,3.938,3.852,3.7843,3.7711,3.6724,3.6297,5.0635,5.0712,5.0711,5.074,5.072,5.0757,5.0747,5.0756,5.0793,5.0821,5.0821,5.0821,5.0821,5.0773,5.073,5.0692,5.0692,5.0692,5.0692,5.0692,5.0692,5.0692,5.0692,5.0692,5.0692,5.0692,5.0692,5.0673,5.0635,5.0635,5.0615,5.0576,5.0576,5.0546,5.0576,5.0557,5.0576,5.0576,5.0566,5.0546,5.0557,5.0596,5.0586,5.0516,5.044,5.0435,5.0416,5.0448,5.05,5.0511,5.0565,5.0615,5.0635,5.0654,5.0567,5.0316,5.0305,5.0196,4.9935,4.9931,4.9956,4.9917,4.9439,4.9135,4.9049,4.869,4.8361,4.8381,4.8381,4.7917,4.7452,4.6788,4.6446,4.636,4.5937,4.5631,4.5537,4.5528,4.5502,4.5466,4.5429,4.5361,4.5351,4.5301,4.53,4.5277,4.5246,4.5203,4.5136,4.508,4.5022,4.4931,4.4858,4.4783,4.4672,4.4449,4.4317,4.4277,4.4166,4.402,4.385,4.3735,4.3307,4.3139,4.2568,4.2326,4.2026,4.1415,4.1067,4.0303,3.9414,3.903,3.8954,3.8074,3.7585,5.0766,5.0801,5.0827,5.0816,5.0844,5.0869,5.0905,5.0905,5.0905,5.0885,5.0905,5.0905,5.0905,5.0905,5.0905,5.0885,5.0877,5.0827,5.0821,5.0821,5.0821,5.0821,5.0821,5.0821,5.0821,5.0801,5.0821,5.0756,5.0729,5.0729,5.071,5.0682,5.0682,5.0682,5.0663,5.0663,5.0682,5.0663,5.0663,5.0682,5.0663,5.0748,5.0766,5.0757,5.0683,5.0625,5.0595,5.0644,5.0664,5.0673,5.0711,5.0729,5.0766,5.0827,5.0861,5.0861,5.0877,5.0905,5.0905,5.0948,5.0945,5.0945,5.0445,5.008,5.0042,4.9558,4.9306,4.9267,4.9267,4.9267,4.9105,4.8469,4.7797,4.7457,4.6881,4.6537,4.6458,4.6488,4.6367,4.6103,4.6001,4.5811,4.5533,4.5448,4.5438,4.5419,4.537,4.5319,4.5288,4.5235,4.517,4.5095,4.5057,4.4967,4.4902,4.4776,4.4643,4.4594,4.444,4.4335,4.4248,4.4173,4.4082,4.3974,4.3846,4.3681,4.3294,4.2649,4.1978,4.1252,4.0664,4.0212,3.9929,3.9564,3.9012,5.081,5.0827,5.0885,5.0898,5.0933,5.1032,5.1094,5.106,5.1067,5.1053,5.1053,5.1067,5.1073,5.1067,5.1053,5.1087,5.1058,5.0913,5.0827,5.0827,5.0846,5.0838,5.0846,5.0846,5.0846,5.0846,5.0829,5.081,5.0819,5.0819,5.0819,5.081,5.081,5.0819,5.0791,5.0819,5.081,5.081,5.0799,5.081,5.0829,5.0863,5.0908,5.0888,5.0905,5.085,5.0801,5.0801,5.0801,5.0801,5.081,5.0838,5.0888,5.0952,5.0986,5.0998,5.1053,5.1087,5.1067,5.1087,5.1074,5.1074,5.1042,5.0959,5.0881,5.0881,5.0843,5.0804,5.0843,5.0933,5.0758,5.0157,4.9303,4.8477,4.8122,4.8029,4.8105,4.8205,4.7946,4.7204,4.694,4.6549,4.5926,4.5845,4.5906,4.5897,4.5793,4.5774,4.5822,4.5811,4.5531,4.5479,4.5663,4.5807,4.5445,4.5083,4.4996,4.4909,4.4697,4.4565,4.4482,4.4378,4.4292,4.4188,4.4002,4.3857,4.3697,4.315,4.3048,4.2432,4.1885,4.1389,4.1183,4.0847,4.0164,5.101,5.101,5.1032,5.1039,5.1046,5.1087,5.1081,5.1081,5.1081,5.1081,5.1081,5.1081,5.1081,5.1101,5.1081,5.1081,5.1094,5.1032,5.101,5.101,5.101,5.0983,5.101,5.101,5.101,5.101,5.101,5.099,5.099,5.101,5.101,5.101,5.101,5.101,5.0983,5.101,5.101,5.101,5.101,5.099,5.101,5.1017,5.1044,5.1044,5.1039,5.1032,5.101,5.0968,5.0933,5.0933,5.0975,5.1017,5.1032,5.1066,5.106,5.108,5.1087,5.1081,5.1088,5.1082,5.1094,5.1101,5.115,5.1173,5.1178,5.1173,5.1173,5.1173,5.1178,5.1178,5.112,5.0964,5.033,4.9419,4.8805,4.8526,4.8583,4.8472,4.8275,4.8052,4.7917,4.773,4.7505,4.7375,4.727,4.7281,4.7246,4.7191,4.7193,4.7031,4.7203,4.7172,4.7101,4.683,4.6596,4.6426,4.6344,4.5897,4.5445,4.5053,4.4898,4.4592,4.4491,4.435,4.4185,4.4048,4.3873,4.3712,4.358,4.3426,4.2831,4.2578,4.254,4.2064,4.1311,5.1081,5.1081,5.1089,5.1076,5.1102,5.1121,5.1153,5.1133,5.1114,5.1139,5.1139,5.112,5.112,5.1139,5.1139,5.112,5.1159,5.1133,5.1133,5.1146,5.1114,5.1081,5.1081,5.1081,5.1081,5.1081,5.1081,5.1081,5.1081,5.1081,5.1081,5.1101,5.1081,5.1074,5.1081,5.1081,5.1081,5.1081,5.1088,5.1082,5.1108,5.1128,5.114,5.114,5.1146,5.1159,5.1133,5.1095,5.1063,5.1048,5.1069,5.1121,5.1134,5.1127,5.1114,5.1133,5.1139,5.1139,5.1139,5.1136,5.1139,5.1145,5.119,5.1206,5.1211,5.1211,5.1211,5.1211,5.1206,5.1211,5.1211,5.1211,5.0903,5.0394,4.9859,4.9485,4.9466,4.9439,4.9218,4.9054,4.8885,4.8701,4.8473,4.8354,4.8338,4.8342,4.8282,4.824,4.8178,4.8093,4.8135,4.8107,4.7818,4.7712,4.7825,4.7782,4.7726,4.7079,4.6354,4.5873,4.5515,4.4997,4.468,4.4537,4.4364,4.4277,4.4124,4.3986,4.3809,4.3679,4.3563,4.3334,4.3084,4.2923,4.2355,5.1114,5.1101,5.1101,5.1105,5.1111,5.118,5.1196,5.1181,5.1201,5.1176,5.1201,5.1196,5.1201,5.1206,5.119,5.119,5.1206,5.1196,5.119,5.1169,5.1126,5.1115,5.1115,5.1095,5.1121,5.1108,5.1108,5.1101,5.1115,5.1115,5.1095,5.1108,5.1115,5.1095,5.1108,5.1095,5.1108,5.1095,5.1095,5.1114,5.1114,5.1161,5.1208,5.1189,5.1185,5.1196,5.119,5.1185,5.1147,5.1102,5.112,5.1142,5.1189,5.1215,5.1176,5.1196,5.1206,5.1201,5.1206,5.122,5.1206,5.1186,5.1196,5.1215,5.1201,5.1225,5.1225,5.1225,5.122,5.122,5.122,5.122,5.1157,5.1186,5.0886,5.0835,5.105,5.0966,5.0539,5.0028,4.9828,4.9627,4.8955,4.8811,4.8783,4.8774,4.8756,4.8821,4.8789,4.8861,4.8546,4.8561,4.8777,4.8807,4.9,4.8951,4.8891,4.8569,4.7704,4.6969,4.6371,4.5773,4.5439,4.5208,4.4823,4.4665,4.4458,4.4382,4.4184,4.4002,4.3857,4.3728,4.3545,4.3375,4.3196,5.1164,5.1189,5.118,5.1166,5.1171,5.1186,5.1211,5.1211,5.1211,5.1215,5.1211,5.1211,5.1215,5.1211,5.1215,5.1211,5.1215,5.1215,5.1211,5.1206,5.1166,5.1164,5.1184,5.1184,5.1184,5.1178,5.1173,5.1184,5.1164,5.1173,5.1178,5.1164,5.1173,5.1159,5.1164,5.1159,5.1164,5.1164,5.1169,5.1175,5.118,5.119,5.122,5.122,5.1206,5.1211,5.1211,5.1211,5.1201,5.1189,5.1175,5.1171,5.122,5.1211,5.1215,5.1215,5.1215,5.1211,5.1215,5.1249,5.1278,5.1282,5.1276,5.1261,5.1284,5.128,5.1284,5.1284,5.1284,5.1284,5.1284,5.1284,5.1276,5.1258,5.1215,5.1166,5.1164,5.1164,5.1036,5.0796,5.0706,5.0519,5.0352,5.0235,5.0241,5.024,5.0187,5.0146,4.9954,4.9962,4.9795,5.0063,5.0233,5.0177,5.0141,5.0105,5.0029,4.9922,4.9198,4.8258,4.7636,4.697,4.6834,4.6758,4.5967,4.5642,4.525,4.4979,4.4701,4.4662,4.4304,4.4203,4.3966,4.3732,4.358,5.1211,5.1211,5.122,5.1225,5.123,5.1234,5.1239,5.1258,5.1239,5.1228,5.1237,5.1237,5.1241,5.1288,5.1269,5.1288,5.1269,5.1288,5.1273,5.1288,5.1269,5.1248,5.122,5.1211,5.1211,5.1211,5.1211,5.1211,5.1206,5.1211,5.1211,5.1206,5.1211,5.1211,5.1206,5.1211,5.1211,5.1211,5.124,5.1244,5.1244,5.1234,5.1243,5.1243,5.1252,5.1261,5.1288,5.1292,5.128,5.1254,5.1244,5.1249,5.1258,5.1252,5.1256,5.1237,5.1265,5.1292,5.1292,5.1324,5.1328,5.1331,5.1339,5.1362,5.1342,5.1342,5.1346,5.1342,5.1342,5.1346,5.1342,5.1342,5.1339,5.1331,5.1316,5.1252,5.1215,5.1206,5.1176,5.1169,5.1159,5.1134,5.1126,5.1126,5.1127,5.1056,5.0908,5.092,5.0898,5.1005,5.0963,5.0952,5.0921,5.0703,5.0574,5.054,5.0477,5.0451,5.0192,4.9324,4.8586,4.7953,4.7727,4.7497,4.7005,4.6594,4.6295,4.6038,4.6012,4.5796,4.5213,4.4815,4.4677,4.442,4.422,5.1201,5.1205,5.1272,5.13,5.1304,5.1296,5.1308,5.1304,5.1308,5.1316,5.1287,5.1294,5.1336,5.1394,5.1362,5.1391,5.1388,5.1382,5.1388,5.1385,5.1362,5.1339,5.1267,5.1243,5.1243,5.1239,5.123,5.1234,5.1243,5.1234,5.123,5.1239,5.1239,5.123,5.1321,5.1375,5.1366,5.1516,5.1786,5.1873,5.1877,5.1885,5.1912,5.1912,5.1869,5.1743,5.1655,5.1583,5.1528,5.1304,5.13,5.1312,5.1308,5.1307,5.131,5.133,5.1359,5.1385,5.1391,5.1385,5.1391,5.1388,5.1391,5.1394,5.1391,5.1388,5.1388,5.1388,5.1394,5.1391,5.1391,5.1391,5.1388,5.1385,5.1388,5.1342,5.1252,5.1205,5.122,5.1215,5.1215,5.1215,5.1211,5.1206,5.1171,5.1156,5.113,5.1113,5.1101,5.1069,5.1056,5.1042,5.1027,5.099,5.0921,5.0882,5.0822,5.0761,5.0633,5.0048,4.9268,4.8703,4.8356,4.8067,4.7974,4.7819,4.7586,4.7441,4.7224,4.6865,4.6223,4.5961,4.5767,4.5435,4.5166,5.1273,5.1277,5.1372,5.1379,5.1398,5.1382,5.1362,5.1362,5.1382,5.1385,5.1388,5.1369,5.1372,5.1397,5.1397,5.1394,5.1397,5.1397,5.1394,5.1394,5.1394,5.1391,5.1353,5.1349,5.1349,5.1349,5.1353,5.1353,5.1349,5.1342,5.1372,5.1349,5.144,5.1372,5.1466,5.2067,5.2389,5.2487,5.2958,5.3189,5.3169,5.3173,5.3176,5.3199,5.3202,5.2932,5.2528,5.2431,5.2093,5.1577,5.1398,5.1476,5.1401,5.1366,5.1369,5.1372,5.1375,5.1397,5.1394,5.1397,5.1394,5.1397,5.1397,5.1394,5.1394,5.1397,5.1394,5.1394,5.1394,5.1397,5.1397,5.1397,5.1397,5.14,5.1397,5.1391,5.1356,5.13,5.1285,5.1288,5.1272,5.1254,5.1215,5.1201,5.1191,5.1176,5.119,5.1185,5.1159,5.1125,5.1113,5.112,5.1095,5.1056,5.1022,5.1005,5.0979,5.0921,5.0816,5.0708,4.9932,4.9643,4.939,4.9256,4.9175,4.8976,4.8712,4.8147,4.7789,4.7498,4.732,4.7062,4.6816,4.645,4.6031,5.1362,5.1343,5.1391,5.1394,5.1394,5.1394,5.1394,5.1394,5.1394,5.1397,5.1386,5.1386,5.1389,5.1394,5.1394,5.1394,5.1394,5.1394,5.1396,5.1396,5.1396,5.1396,5.1394,5.1391,5.1389,5.1397,5.1394,5.1394,5.1394,5.1394,5.1391,5.1453,5.1787,5.2035,5.2119,5.2821,5.3208,5.3286,5.364,5.3891,5.3891,5.3891,5.3916,5.3942,5.3925,5.3691,5.3347,5.3308,5.3055,5.2642,5.2235,5.1798,5.1475,5.14,5.1386,5.1386,5.1394,5.1394,5.1396,5.1394,5.1396,5.1394,5.1394,5.1394,5.1394,5.1394,5.1394,5.1394,5.1396,5.1394,5.1396,5.1396,5.1394,5.1396,5.1396,5.1394,5.1391,5.1358,5.134,5.1349,5.1358,5.1331,5.13,5.1261,5.1252,5.1248,5.1249,5.1244,5.1201,5.1169,5.1169,5.1159,5.1142,5.1132,5.1095,5.1075,5.1073,5.1017,5.0941,5.0866,5.0538,5.0478,5.0519,5.0238,4.9884,4.9937,4.9625,4.9007,4.8677,4.8831,4.8713,4.8289,4.7819,4.74,4.6957,5.1397,5.1397,5.14,5.14,5.14,5.1403,5.1383,5.1403,5.14,5.1391,5.1399,5.1401,5.1386,5.1392,5.1392,5.1394,5.1394,5.1392,5.139,5.139,5.139,5.139,5.139,5.1388,5.1384,5.1403,5.1383,5.1383,5.1383,5.1419,5.1545,5.1695,5.2261,5.2676,5.3005,5.3685,5.4137,5.4159,5.4452,5.4566,5.4527,5.4527,5.4552,5.4618,5.4621,5.4467,5.4279,5.4166,5.409,5.3973,5.3292,5.2581,5.1984,5.1452,5.1401,5.1401,5.1388,5.1392,5.1394,5.1396,5.1396,5.1398,5.1398,5.1398,5.1398,5.1398,5.1398,5.1398,5.1398,5.1398,5.1398,5.1398,5.1398,5.1396,5.1396,5.1396,5.139,5.1396,5.1383,5.1397,5.1385,5.1359,5.1359,5.133,5.1323,5.1312,5.1312,5.1295,5.1254,5.122,5.122,5.1206,5.1185,5.1169,5.1136,5.1094,5.1095,5.1069,5.1022,5.0998,5.0948,5.0901,5.0819,5.0682,5.048,5.0449,5.0398,4.9997,4.9873,5.0203,4.9904,4.9274,4.8751,4.8296,4.7927,5.1394,5.1396,5.1386,5.1388,5.1388,5.1388,5.1388,5.1388,5.1388,5.139,5.1392,5.1392,5.1394,5.1396,5.1394,5.1394,5.1396,5.1398,5.1396,5.1396,5.1396,5.1396,5.1398,5.1398,5.1392,5.139,5.1388,5.1388,5.1386,5.1408,5.1835,5.2345,5.2735,5.3125,5.3884,5.4572,5.5075,5.5133,5.5543,5.5858,5.5875,5.5877,5.5879,5.5903,5.5845,5.5611,5.5205,5.5054,5.4765,5.4081,5.3853,5.3718,5.3264,5.2259,5.1668,5.1609,5.1552,5.1576,5.1543,5.1407,5.139,5.1394,5.1394,5.1395,5.1395,5.1473,5.1609,5.1628,5.1589,5.1512,5.1395,5.1648,5.149,5.1468,5.1582,5.1581,5.1574,5.1607,5.1659,5.1789,5.1642,5.1397,5.138,5.1378,5.1369,5.134,5.1353,5.1339,5.1308,5.1273,5.1284,5.1263,5.124,5.1211,5.1196,5.1147,5.1107,5.1114,5.1089,5.1069,5.1048,5.106,5.0983,5.0852,5.0729,5.0625,5.0596,5.0575,5.0504,5.0393,5.0251,5.0107,4.9694,4.9229,4.908,5.1386,5.1388,5.1392,5.1394,5.1394,5.1394,5.1394,5.1394,5.14,5.1402,5.1384,5.1387,5.1389,5.1389,5.1389,5.1389,5.1389,5.1389,5.1389,5.1389,5.1389,5.1389,5.1389,5.1389,5.1389,5.1389,5.1389,5.1423,5.1453,5.1902,5.2314,5.2782,5.3485,5.4285,5.4771,5.5513,5.5884,5.6079,5.6376,5.6614,5.6614,5.6618,5.6621,5.6621,5.6602,5.6367,5.6135,5.598,5.5787,5.5379,5.4912,5.4719,5.4288,5.3621,5.2757,5.2679,5.2345,5.2073,5.1941,5.1727,5.1395,5.1397,5.1437,5.1398,5.1535,5.1808,5.2219,5.259,5.2727,5.2747,5.2824,5.2669,5.2745,5.2744,5.2684,5.2663,5.27,5.2698,5.2633,5.245,5.1974,5.1674,5.1399,5.1394,5.1389,5.1383,5.1458,5.1489,5.1541,5.159,5.1693,5.1417,5.1397,5.1263,5.1254,5.1201,5.1164,5.1153,5.113,5.1133,5.1114,5.1108,5.1088,5.0983,5.0885,5.078,5.0748,5.0702,5.0644,5.0576,5.0458,5.0368,5.0358,5.0214,4.9935,5.1398,5.14,5.14,5.14,5.14,5.14,5.14,5.1402,5.1389,5.1391,5.1393,5.1396,5.1398,5.1398,5.1398,5.1398,5.1398,5.1398,5.1397,5.1397,5.1397,5.1398,5.1398,5.1398,5.1397,5.1435,5.1729,5.1648,5.1874,5.2301,5.2809,5.3572,5.48,5.5443,5.5677,5.6167,5.6554,5.6614,5.6619,5.6603,5.6605,5.6609,5.6612,5.6612,5.6612,5.6592,5.6514,5.6496,5.6496,5.6263,5.5932,5.5582,5.5444,5.4898,5.4546,5.437,5.3548,5.3079,5.2806,5.2494,5.2202,5.2223,5.2007,5.1968,5.2105,5.2711,5.3198,5.3823,5.3902,5.3824,5.3708,5.3902,5.3902,5.3861,5.3841,5.3919,5.3781,5.3702,5.3621,5.3206,5.2479,5.2296,5.2349,5.2323,5.2513,5.2513,5.2567,5.2523,5.2554,5.2395,5.2308,5.1824,5.1573,5.1378,5.1304,5.1267,5.124,5.1225,5.1185,5.1159,5.1161,5.115,5.1121,5.116,5.1009,5.0925,5.0874,5.0819,5.0766,5.0701,5.0654,5.0596,5.0506,5.0462,5.0284,5.1391,5.1396,5.1396,5.1396,5.1396,5.1395,5.1396,5.1396,5.1396,5.1397,5.1397,5.1398,5.1399,5.1399,5.1399,5.1399,5.1399,5.14,5.14,5.14,5.14,5.14,5.1399,5.1398,5.1498,5.1634,5.2201,5.2511,5.2724,5.288,5.3583,5.4677,5.5105,5.5653,5.6256,5.649,5.661,5.661,5.6611,5.6611,5.6611,5.6612,5.6613,5.6613,5.6613,5.6613,5.6614,5.6617,5.6618,5.6599,5.6503,5.6426,5.6426,5.6386,5.6289,5.582,5.4919,5.3842,5.3825,5.3533,5.3377,5.332,5.3437,5.3633,5.3633,5.3652,5.3926,5.3906,5.4101,5.4238,5.4336,5.4141,5.4062,5.4178,5.4392,5.4294,5.4214,5.4703,5.4623,5.4485,5.3914,5.3828,5.3821,5.3758,5.3715,5.3696,5.3654,5.3569,5.3448,5.3208,5.3069,5.2626,5.2298,5.2106,5.2079,5.1928,5.1834,5.168,5.1643,5.158,5.1735,5.1816,5.1372,5.1358,5.1256,5.1089,5.0966,5.0898,5.0869,5.0808,5.0745,5.0663,5.0587,5.0567,5.0556,5.1399,5.1398,5.1398,5.1398,5.1398,5.1398,5.1398,5.1399,5.1401,5.1402,5.1384,5.1385,5.1385,5.1387,5.1385,5.1385,5.1387,5.1387,5.1387,5.1387,5.1387,5.1387,5.1386,5.1444,5.1561,5.2148,5.2617,5.3397,5.3728,5.4175,5.47,5.5208,5.5793,5.6183,5.6574,5.6612,5.6612,5.6612,5.6615,5.6618,5.6619,5.6621,5.6621,5.6621,5.6621,5.6621,5.6621,5.662,5.662,5.6621,5.6621,5.6601,5.6601,5.6582,5.6582,5.6504,5.5956,5.5272,5.4785,5.4336,5.416,5.4023,5.4082,5.4141,5.4551,5.4765,5.5,5.5449,5.5469,5.543,5.539,5.5469,5.5469,5.543,5.5215,5.5273,5.5293,5.5449,5.5643,5.5525,5.5405,5.5205,5.4927,5.4535,5.4337,5.4234,5.4154,5.4051,5.3908,5.3723,5.3621,5.3498,5.3234,5.3026,5.3082,5.3052,5.3022,5.2929,5.2948,5.2888,5.283,5.2714,5.2271,5.2007,5.2005,5.1721,5.1257,5.1007,5.0983,5.0917,5.085,5.0771,5.0718,5.071,5.0664,5.1385,5.1402,5.1402,5.1402,5.1402,5.1402,5.1402,5.1402,5.1385,5.1386,5.1386,5.1387,5.1387,5.1387,5.1387,5.1387,5.1387,5.1387,5.1387,5.1387,5.1387,5.1387,5.1484,5.1582,5.209,5.2754,5.3379,5.4062,5.4883,5.5448,5.5563,5.564,5.6207,5.6519,5.6597,5.6617,5.6617,5.6618,5.6619,5.662,5.6621,5.6621,5.6621,5.6621,5.6621,5.6621,5.6621,5.6621,5.6621,5.6621,5.6621,5.6621,5.6621,5.6621,5.6621,5.6582,5.6348,5.6152,5.5644,5.5195,5.4707,5.4629,5.4668,5.5117,5.5469,5.5644,5.5762,5.6348,5.6406,5.6465,5.6582,5.6504,5.6387,5.6328,5.6387,5.6543,5.6562,5.6308,5.6191,5.6113,5.6073,5.6267,5.5875,5.525,5.4935,5.4772,5.4651,5.4589,5.4523,5.4457,5.4352,5.4311,5.3877,5.3671,5.3705,5.3816,5.3927,5.4034,5.4036,5.3904,5.3669,5.3515,5.3234,5.3025,5.284,5.2669,5.2393,5.1722,5.1081,5.1012,5.0941,5.0901,5.0861,5.0855,5.0793,5.1387,5.1387,5.1387,5.1387,5.1387,5.1387,5.1387,5.1387,5.1387,5.1387,5.1387,5.1387,5.1387,5.1387,5.1387,5.1387,5.1387,5.1387,5.1387,5.1387,5.1406,5.1523,5.1758,5.2226,5.2754,5.3164,5.4023,5.4863,5.5449,5.6074,5.6328,5.6543,5.6543,5.6582,5.6621,5.6621,5.6621,5.6621,5.6621,5.6621,5.6621,5.6621,5.6621,5.6621,5.6621,5.6621,5.6621,5.6621,5.6621,5.6621,5.6621,5.6621,5.6621,5.6621,5.6621,5.6621,5.6621,5.6484,5.623,5.6191,5.6348,5.6367,5.6269,5.6094,5.625,5.6426,5.6582,5.6562,5.6601,5.6621,5.6621,5.6621,5.6621,5.6621,5.6621,5.6621,5.6621,5.6582,5.6504,5.6582,5.6621,5.6621,5.6601,5.5918,5.5762,5.5617,5.5672,5.561,5.5607,5.5542,5.5302,5.5064,5.4498,5.4218,5.4131,5.4301,5.4666,5.4716,5.4665,5.444,5.4172,5.4083,5.4324,5.3922,5.3734,5.3628,5.339,5.2583,5.1851,5.1321,5.115,5.1497,5.125,5.1009,5.093,5.1387,5.1387,5.1387,5.1387,5.1387,5.1387,5.1387,5.1387,5.1387,5.1387,5.1387,5.1387,5.1387,5.1387,5.1387,5.1387,5.1387,5.1387,5.1445,5.1621,5.1836,5.2129,5.25,5.3066,5.3789,5.4277,5.5078,5.5664,5.6172,5.6445,5.6523,5.6601,5.6621,5.6621,5.6621,5.6621,5.6621,5.6621,5.6621,5.6621,5.6621,5.6621,5.6621,5.6621,5.6621,5.6621,5.6621,5.6621,5.6621,5.6621,5.6621,5.662,5.662,5.6619,5.6618,5.6618,5.6618,5.6618,5.6619,5.662,5.6621,5.662,5.6582,5.6619,5.662,5.662,5.6621,5.6601,5.6621,5.6621,5.6621,5.6621,5.6621,5.6621,5.6621,5.6621,5.6621,5.6621,5.6621,5.6621,5.6621,5.6621,5.6621,5.6543,5.6504,5.65,5.6576,5.6592,5.6433,5.6331,5.6035,5.5876,5.5366,5.5283,5.5235,5.537,5.5502,5.5396,5.5291,5.5181,5.5074,5.55,5.5583,5.5085,5.4586,5.4453,5.4041,5.3312,5.2761,5.242,5.2382,5.2537,5.2075,5.1401,5.1304,5.1387,5.1387,5.1387,5.1387,5.1387,5.1387,5.1387,5.1387,5.1387,5.1387,5.1387,5.1387,5.1387,5.1387,5.1387,5.1641,5.1777,5.1875,5.2031,5.2383,5.2832,5.3066,5.3379,5.3906,5.4648,5.5293,5.5683,5.6094,5.6504,5.6582,5.6621,5.6621,5.6621,5.6621,5.6621,5.6621,5.6621,5.6621,5.6621,5.6621,5.6621,5.6621,5.6621,5.6621,5.6621,5.6621,5.6621,5.6621,5.6621,5.6621,5.6618,5.6618,5.6616,5.6614,5.6612,5.6612,5.6612,5.6612,5.6614,5.6617,5.662,5.6618,5.6615,5.6615,5.6616,5.6618,5.6618,5.6621,5.6621,5.662,5.662,5.6621,5.6621,5.6621,5.6621,5.6621,5.6621,5.6621,5.6621,5.6621,5.6621,5.6621,5.6621,5.6621,5.6621,5.6621,5.6618,5.6616,5.6575,5.6515,5.6492,5.6391,5.6312,5.6385,5.6534,5.6259,5.6003,5.6053,5.6006,5.6135,5.6224,5.6514,5.6465,5.5886,5.5466,5.5248,5.5003,5.4686,5.4193,5.3677,5.3532,5.3281,5.3036,5.245,5.2201,5.1387,5.1387,5.1387,5.1387,5.1387,5.1387,5.1387,5.1387,5.1387,5.1387,5.1387,5.1387,5.1484,5.1504,5.1601,5.2012,5.2578,5.2695,5.2969,5.3496,5.3789,5.3945,5.4277,5.4805,5.539,5.5527,5.5957,5.6406,5.6621,5.6621,5.6621,5.6621,5.6621,5.6621,5.6621,5.6621,5.6621,5.6621,5.6621,5.6621,5.6621,5.6621,5.6621,5.6621,5.6621,5.6621,5.6619,5.6619,5.6618,5.6615,5.6613,5.6612,5.6611,5.661,5.661,5.661,5.661,5.6611,5.6612,5.6612,5.6612,5.6612,5.661,5.661,5.6612,5.6612,5.6613,5.6616,5.6615,5.6614,5.6613,5.6613,5.6617,5.6618,5.6619,5.6621,5.6621,5.6621,5.6621,5.6621,5.6621,5.6621,5.6621,5.6621,5.6621,5.6621,5.6621,5.6621,5.6621,5.6618,5.6615,5.6613,5.6612,5.6609,5.6603,5.6621,5.652,5.6591,5.6584,5.656,5.6536,5.6531,5.6461,5.6374,5.6192,5.5857,5.6104,5.6308,5.5548,5.4733,5.4086,5.3798,5.3657,5.3437,5.3054,5.1402,5.1384,5.1386,5.1386,5.1386,5.1387,5.1387,5.1387,5.1387,5.1387,5.1387,5.1387,5.1777,5.209,5.2324,5.2734,5.3437,5.3555,5.3887,5.4062,5.459,5.4805,5.5117,5.5605,5.6094,5.623,5.6543,5.6621,5.6621,5.6621,5.6621,5.6621,5.6621,5.6621,5.6621,5.6621,5.6621,5.6621,5.6621,5.6621,5.662,5.662,5.6619,5.6618,5.6618,5.6617,5.6615,5.6615,5.6613,5.661,5.6607,5.6605,5.6605,5.6603,5.6618,5.6616,5.6616,5.6616,5.6616,5.6616,5.6619,5.6602,5.6621,5.6621,5.6605,5.6606,5.6607,5.661,5.661,5.661,5.6612,5.6612,5.6614,5.6614,5.6615,5.6615,5.6621,5.6621,5.6621,5.6621,5.6621,5.6621,5.6621,5.6621,5.6621,5.6621,5.6621,5.6621,5.6621,5.6621,5.662,5.6618,5.6617,5.6614,5.6612,5.661,5.6607,5.6603,5.6598,5.6595,5.6591,5.6565,5.656,5.6494,5.6486,5.65,5.6491,5.6462,5.6289,5.5747,5.5054,5.4633,5.4597,5.4185,5.3578,5.1398,5.1399,5.1402,5.1384,5.1384,5.1386,5.1387,5.1387,5.1406,5.1543,5.1816,5.1875,5.2344,5.2949,5.3223,5.3613,5.4394,5.4453,5.4805,5.4902,5.5449,5.5703,5.5976,5.6269,5.6445,5.6621,5.6621,5.6621,5.6621,5.6621,5.6621,5.6621,5.662,5.6621,5.6621,5.6621,5.6621,5.6621,5.6619,5.6619,5.6618,5.6617,5.6615,5.6613,5.6612,5.6611,5.6609,5.6609,5.6607,5.6605,5.66,5.6596,5.6614,5.661,5.6604,5.6604,5.658,5.658,5.656,5.6572,5.6558,5.6563,5.6582,5.6608,5.6614,5.6616,5.6618,5.6602,5.6605,5.6605,5.6605,5.6606,5.6607,5.6607,5.6609,5.6609,5.6611,5.6612,5.6613,5.6616,5.6618,5.6619,5.662,5.6621,5.6621,5.6621,5.6621,5.6621,5.6621,5.6621,5.6621,5.6621,5.6621,5.6618,5.6617,5.6615,5.6614,5.6612,5.6609,5.6606,5.6603,5.6598,5.6595,5.661,5.6582,5.6533,5.6506,5.6436,5.6345,5.625,5.5931,5.5667,5.5575,5.5077,5.4466,5.1397,5.1398,5.1398,5.1398,5.14,5.1483,5.1504,5.1465,5.1465,5.1953,5.2715,5.2734,5.3223,5.3906,5.4023,5.4531,5.5195,5.5332,5.5723,5.6152,5.6308,5.6426,5.6445,5.6562,5.6621,5.6621,5.662,5.6619,5.6618,5.6617,5.6614,5.6613,5.6615,5.6614,5.6615,5.6616,5.6616,5.6615,5.6615,5.6614,5.6612,5.6611,5.661,5.6609,5.6607,5.6606,5.6603,5.6619,5.6616,5.661,5.6586,5.6584,5.6584,5.6584,5.6604,5.658,5.6531,5.6509,5.6506,5.6514,5.6511,5.652,5.6553,5.658,5.6604,5.6582,5.6586,5.6589,5.6591,5.6608,5.6608,5.661,5.6612,5.6616,5.6619,5.6603,5.6607,5.661,5.661,5.6612,5.6613,5.6615,5.6618,5.6619,5.6619,5.6621,5.6621,5.6621,5.6621,5.6621,5.6621,5.6621,5.6621,5.6621,5.6621,5.6621,5.6618,5.6618,5.6615,5.6612,5.661,5.6607,5.6605,5.6619,5.6612,5.6584,5.6536,5.6528,5.6503,5.6391,5.6276,5.6235,5.6007,5.6072,5.5735,5.1403,5.1384,5.139,5.1393,5.1492,5.2064,5.232,5.234,5.234,5.2809,5.3628,5.3628,5.4117,5.4878,5.4922,5.5483,5.5914,5.625,5.6348,5.6558,5.6618,5.6617,5.6617,5.6617,5.6617,5.6617,5.6615,5.6614,5.6614,5.6611,5.6611,5.6612,5.661,5.6609,5.6607,5.6607,5.6609,5.661,5.661,5.6609,5.6606,5.6605,5.6603,5.6619,5.6618,5.6614,5.6593,5.6591,5.6586,5.6584,5.6536,5.6514,5.6514,5.6523,5.6517,5.6536,5.6511,5.6491,5.6488,5.6485,5.6482,5.6498,5.6511,5.6533,5.6539,5.6545,5.655,5.6553,5.6577,5.6577,5.6577,5.658,5.6582,5.6584,5.6589,5.6593,5.6579,5.66,5.6602,5.6605,5.6606,5.661,5.6613,5.6614,5.6615,5.6617,5.6618,5.6619,5.662,5.6621,5.6621,5.6621,5.6621,5.6621,5.6621,5.6621,5.6621,5.662,5.6619,5.6617,5.6616,5.6614,5.6611,5.6606,5.6621,5.6593,5.6584,5.6558,5.6555,5.6528,5.6436,5.6455,5.6492,5.6444,5.6417,5.1394,5.1394,5.1402,5.1579,5.203,5.2853,5.3383,5.3619,5.3368,5.3702,5.4483,5.4502,5.499,5.5734,5.5831,5.6085,5.6515,5.6516,5.6574,5.6574,5.6611,5.6612,5.6612,5.6611,5.6612,5.6611,5.661,5.6607,5.6607,5.6605,5.6603,5.6603,5.6605,5.6621,5.6616,5.6616,5.6618,5.6621,5.6603,5.6619,5.6618,5.6616,5.661,5.6606,5.6604,5.6602,5.656,5.6558,5.6558,5.6553,5.65,5.6497,5.6497,5.6488,5.6485,5.6504,5.6494,5.6494,5.6491,5.6484,5.6484,5.6484,5.648,5.6503,5.6494,5.6504,5.6514,5.65,5.6525,5.655,5.655,5.655,5.655,5.655,5.6553,5.6558,5.6563,5.6584,5.6591,5.6614,5.6619,5.6603,5.6606,5.6627,5.661,5.6613,5.6615,5.6616,5.6619,5.662,5.6621,5.6621,5.6621,5.6621,5.6621,5.6621,5.6621,5.6621,5.6621,5.662,5.6621,5.6618,5.6615,5.6612,5.6609,5.6602,5.6595,5.6593,5.6589,5.6563,5.6533,5.652,5.6504,5.6487,5.6465,5.1394,5.1414,5.1472,5.204,5.2858,5.3719,5.45,5.5185,5.4535,5.4657,5.532,5.5399,5.5808,5.6334,5.6432,5.6451,5.6607,5.6607,5.6607,5.661,5.6607,5.6607,5.6607,5.661,5.6606,5.6607,5.6605,5.6619,5.6618,5.6614,5.661,5.6606,5.6608,5.6608,5.6608,5.6586,5.6567,5.6567,5.6586,5.6582,5.6586,5.6586,5.6604,5.6582,5.658,5.6577,5.6509,5.6484,5.6497,5.6488,5.6482,5.6482,5.6494,5.6494,5.6494,5.6487,5.6476,5.6469,5.648,5.6472,5.6464,5.6479,5.6479,5.6479,5.6472,5.6484,5.6498,5.6485,5.6511,5.6514,5.6517,5.6517,5.6517,5.6517,5.652,5.6525,5.6525,5.6531,5.6555,5.666,5.6918,5.6924,5.7086,5.7166,5.7596,5.7154,5.708,5.7119,5.7083,5.7087,5.6836,5.6816,5.666,5.666,5.6621,5.6621,5.6621,5.6621,5.668,5.6621,5.6621,5.6621,5.6618,5.6616,5.6613,5.661,5.6605,5.6623,5.6619,5.661,5.6584,5.656,5.6531,5.6517,5.6498,5.1394,5.1453,5.2117,5.2878,5.3756,5.4615,5.5083,5.5357,5.5829,5.6027,5.6261,5.628,5.6341,5.6557,5.6616,5.6616,5.6614,5.6618,5.6614,5.6614,5.6616,5.6618,5.6614,5.6616,5.6616,5.6612,5.661,5.6608,5.6606,5.6604,5.6604,5.6584,5.6602,5.6602,5.6602,5.6558,5.6533,5.6531,5.6525,5.657,5.658,5.6536,5.6511,5.6528,5.6525,5.6517,5.6491,5.6488,5.6488,5.6482,5.6487,5.6496,5.648,5.648,5.648,5.6476,5.6459,5.6455,5.6446,5.6432,5.6422,5.6412,5.6432,5.6432,5.6451,5.6476,5.648,5.6484,5.6487,5.6475,5.6482,5.6482,5.6482,5.6482,5.6508,5.6508,5.653,5.6614,5.662,5.6918,5.7233,5.7436,5.7601,5.7899,5.8348,5.8508,5.8554,5.8536,5.8422,5.8291,5.7534,5.7324,5.6816,5.6719,5.6797,5.6992,5.7187,5.7051,5.7051,5.6894,5.6738,5.6973,5.7206,5.6775,5.6618,5.6928,5.7042,5.665,5.6647,5.6776,5.6616,5.6575,5.6589,5.6577,5.6542,5.1613,5.2062,5.3291,5.4092,5.4638,5.5457,5.5828,5.5926,5.6333,5.6567,5.6572,5.658,5.6604,5.6604,5.6604,5.6604,5.6604,5.6606,5.6606,5.6606,5.6604,5.6606,5.6604,5.6604,5.6606,5.6604,5.658,5.6555,5.6572,5.6548,5.6548,5.655,5.655,5.657,5.657,5.652,5.6497,5.6497,5.6485,5.6514,5.655,5.6523,5.6497,5.6491,5.6488,5.6498,5.6491,5.6491,5.6484,5.6476,5.6476,5.6455,5.6441,5.6451,5.6451,5.6451,5.6422,5.6393,5.6388,5.6397,5.6386,5.6381,5.6406,5.6416,5.6416,5.6441,5.6435,5.644,5.6429,5.6437,5.6469,5.6492,5.6492,5.6492,5.6581,5.6631,5.7164,5.7678,5.7801,5.8055,5.8273,5.8334,5.846,5.8487,5.8841,5.8844,5.9048,5.9211,5.9212,5.9449,5.8695,5.8173,5.7863,5.775,5.8027,5.8105,5.8086,5.7871,5.7558,5.7812,5.7969,5.789,5.7812,5.7637,5.7637,5.7908,5.7849,5.7397,5.7199,5.737,5.7016,5.6606,5.6658,5.6811,5.6801,5.2116,5.3111,5.4534,5.5276,5.5471,5.6153,5.6446,5.6465,5.6504,5.6504,5.6527,5.657,5.658,5.6582,5.6599,5.658,5.658,5.6575,5.6597,5.6577,5.6577,5.6575,5.6575,5.6577,5.6577,5.6572,5.6528,5.652,5.6511,5.6508,5.6511,5.6485,5.6482,5.6485,5.6482,5.6498,5.6498,5.6498,5.6494,5.6494,5.6498,5.6498,5.6498,5.6498,5.6494,5.6487,5.6473,5.6484,5.6476,5.6459,5.6441,5.6422,5.6407,5.6421,5.6416,5.6397,5.6391,5.6386,5.6381,5.637,5.637,5.637,5.6381,5.64,5.6375,5.64,5.6416,5.6432,5.6422,5.6456,5.6509,5.6693,5.6693,5.679,5.6905,5.7096,5.7888,5.8581,5.8795,5.9033,5.9134,5.9193,5.9281,5.9287,5.9391,5.9377,5.9363,5.9407,5.959,6.0022,5.9911,5.9683,5.9551,5.9482,5.9175,5.8981,5.8806,5.8672,5.8457,5.8906,5.9101,5.873,5.8613,5.8848,5.8906,5.8828,5.8691,5.8358,5.8219,5.8079,5.7883,5.7608,5.7507,5.7563,5.7308,5.3283,5.4729,5.5081,5.5607,5.6209,5.6443,5.6485,5.6482,5.6482,5.6485,5.6501,5.6524,5.6533,5.6514,5.6514,5.6514,5.652,5.6536,5.6514,5.6511,5.6539,5.6517,5.6517,5.6542,5.6514,5.6511,5.6511,5.6485,5.6494,5.6498,5.6482,5.6498,5.6482,5.6482,5.6498,5.6491,5.6496,5.6492,5.6484,5.65,5.6484,5.6488,5.65,5.6496,5.6484,5.6468,5.6431,5.6426,5.6407,5.6412,5.6402,5.6391,5.6381,5.6375,5.6395,5.6364,5.6339,5.6327,5.6321,5.6323,5.6317,5.631,5.6317,5.6317,5.6349,5.6446,5.6471,5.6514,5.6545,5.6605,5.6738,5.7263,5.7439,5.7702,5.7887,5.8262,5.8845,5.9068,5.9228,5.9509,5.9771,5.9939,6.0164,6.0366,6.0779,6.0763,6.0727,6.0756,6.0707,6.0905,6.0985,6.0937,6.0866,6.0175,5.9443,5.9465,5.9348,5.9272,5.9313,5.9667,5.9668,5.9238,5.9238,5.9687,5.9551,5.9336,5.9199,5.9316,5.9061,5.8923,5.8942,5.8805,5.8588,5.835,5.8115]}]]